GFSMW_sfc_thetae_000.txt.gz
Theta_e
314 316 317 319 321 324 325 325 326 329 331 332 332 332 331 333 333 334 334 333 332 331 330 329 330 329 326 325 325 324 322 322 322 319 319 320 322 321 321 319 317 316 315
309 311 312 314 316 318 322 325 326 327 329 331 332 332 332 332 333 333 333 333 332 332 332 331 330 330 328 327 326 325 322 322 323 317 315 310 315 318 318 318 316 315 315
307 308 310 311 313 316 318 320 323 326 328 330 331 332 332 331 330 331 332 332 332 333 333 332 332 331 330 328 328 327 324 321 322 322 317 311 308 312 315 314 314 314 315
309 309 309 310 312 315 317 318 320 322 324 328 328 328 327 325 328 329 331 332 333 333 333 333 332 332 331 330 330 329 327 324 320 320 318 319 317 310 308 316 316 318 315
311 311 310 311 312 314 314 316 315 316 319 322 326 327 326 327 328 328 328 329 331 332 332 333 332 332 332 331 330 329 327 326 321 319 317 314 313 311 308 309 313 317 317
312 311 312 312 312 314 315 316 314 315 317 318 321 324 325 325 325 326 326 327 328 329 330 331 332 332 331 330 330 330 328 325 322 319 318 316 315 311 306 306 311 313 316
311 310 309 310 311 311 312 312 314 314 318 321 322 323 325 326 326 326 327 327 328 328 328 329 330 330 331 330 330 330 328 323 319 318 318 318 318 320 314 313 312 312 315
311 309 308 309 309 309 310 311 310 311 313 317 321 324 326 326 326 327 328 328 328 330 331 330 330 330 329 329 329 329 328 326 321 319 318 318 319 321 321 315 313 311 312
309 308 308 308 309 309 310 310 310 310 311 311 313 317 321 324 325 327 328 328 329 329 330 331 330 330 330 329 329 328 326 326 324 321 319 319 320 322 322 321 318 314 310
307 307 308 308 309 310 310 311 311 310 310 311 312 312 313 316 319 321 323 325 326 327 328 329 329 329 329 329 328 328 327 326 325 322 321 320 320 320 321 319 318 317 314
305 306 307 309 310 310 311 311 311 312 312 311 311 312 313 314 315 315 317 319 321 322 323 324 325 326 327 327 327 327 326 325 325 324 322 322 322 320 320 317 315 313 312
306 307 308 309 309 309 310 311 311 311 312 311 311 312 312 312 312 313 314 316 316 318 319 321 322 323 324 325 325 325 325 324 324 323 323 321 321 321 321 317 315 313 313
306 308 308 308 309 309 310 310 311 311 312 311 311 312 312 312 312 312 312 313 313 315 316 317 318 320 322 323 324 324 324 325 325 324 322 323 322 320 320 319 316 315 313
305 307 308 309 309 310 310 310 310 311 311 311 311 311 312 312 312 312 312 312 312 312 313 315 316 317 319 321 323 323 324 324 324 324 324 322 321 320 320 318 316 316 313
305 306 305 306 308 309 309 310 310 310 311 310 310 310 311 311 311 311 312 312 312 312 313 312 314 316 317 319 321 323 323 323 323 323 323 322 319 314 319 317 316 315 315
303 304 305 306 307 309 309 308 309 309 310 309 309 310 309 310 310 310 310 311 311 312 313 312 312 313 315 313 312 315 321 322 321 321 322 322 312 313 313 313 313 316 314
302 303 305 307 308 309 307 306 307 308 308 307 307 307 307 307 307 308 309 309 310 311 311 311 312 312 313 311 311 310 317 319 320 320 319 320 319 313 317 312 312 311 311
302 304 307 308 309 305 304 304 304 304 304 305 304 304 303 303 304 305 305 306 307 308 309 309 310 311 312 308 309 310 317 318 319 319 319 319 319 316 315 312 310 309 305
305 307 304 302 302 301 300 299 300 300 301 301 300 300 300 300 301 302 302 304 304 305 306 308 308 308 310 307 307 309 316 315 316 317 318 318 318 315 310 311 302 296 293
300 299 298 297 296 298 297 297 298 298 298 298 298 299 299 299 299 300 301 302 303 303 305 305 307 307 308 307 306 307 313 313 313 315 316 310 315 311 308 308 300 295 292
298 296 295 295 295 295 293 292 293 293 294 294 294 295 296 295 296 297 299 300 300 301 302 303 305 306 306 308 306 307 310 311 312 312 312 313 307 307 306 306 302 299 293
294 294 293 293 293 293 292 290 290 292 293 292 292 292 293 294 294 294 296 298 299 298 299 300 302 304 305 304 304 305 305 306 309 310 312 309 304 303 303 302 302 297 294
291 292 290 289 290 291 289 287 288 289 290 290 290 290 290 291 292 291 292 295 296 296 295 296 298 298 301 303 302 303 305 304 305 308 309 304 301 302 301 301 298 294 288
287 289 287 286 286 287 287 287 287 288 288 287 288 288 288 289 290 290 290 291 292 293 293 294 294 295 297 299 302 301 301 301 303 301 301 301 301 300 296 295 293 288 287
286 286 285 284 284 285 285 286 286 287 286 286 286 287 287 287 289 289 289 289 291 293 293 294 294 294 293 296 298 297 297 298 301 297 297 296 292 291 291 287 287 286 287
285 283 283 283 283 284 284 285 286 286 285 284 285 286 286 286 288 287 287 291 292 294 294 294 295 295 295 297 297 297 298 298 300 295 294 291 290 289 287 285 285 285 284

GFSMW_sfc_thetae_003.txt.gz
Theta_e
313 314 316 318 320 321 323 325 325 328 330 332 332 331 332 333 334 335 334 334 333 332 331 330 330 331 328 326 326 326 324 323 324 321 320 321 321 320 321 322 321 319 317
310 312 313 314 314 316 319 322 324 326 327 330 332 333 332 333 334 335 335 334 334 334 333 332 331 331 330 329 327 326 324 324 325 318 317 312 315 319 320 321 320 320 319
310 311 312 313 316 316 317 318 321 325 327 329 330 332 333 334 332 333 333 334 334 334 334 333 333 332 332 330 330 328 325 321 324 323 317 311 308 312 317 316 315 315 314
312 312 312 313 314 315 317 318 320 322 324 328 328 329 329 328 330 331 332 333 334 333 333 334 334 333 333 332 331 330 327 326 321 323 321 320 317 311 309 315 315 314 314
312 311 312 313 314 317 318 318 317 317 319 322 325 328 328 330 331 330 329 330 332 334 333 333 334 334 334 333 333 331 329 328 325 323 320 319 317 317 313 309 312 315 316
312 311 313 314 313 317 317 318 317 317 320 321 320 321 324 326 326 327 327 328 329 331 333 333 333 334 334 333 333 333 331 328 327 326 324 318 314 311 310 309 311 311 314
311 310 311 312 312 313 316 314 314 313 314 317 321 323 324 324 325 326 326 326 328 329 330 331 331 332 333 334 333 332 332 331 328 326 324 323 320 318 315 312 311 310 313
311 310 311 312 312 312 313 313 313 312 313 314 314 316 321 324 325 326 327 327 328 330 332 331 331 331 332 332 332 332 331 331 330 328 325 322 321 320 318 315 310 309 312
309 309 310 311 311 312 313 314 314 314 314 313 314 314 314 315 317 320 323 325 327 328 330 331 331 332 331 331 331 329 329 330 329 327 325 322 322 322 321 319 317 312 308
308 309 310 311 312 312 313 314 314 313 314 314 314 314 314 314 314 315 315 317 319 321 323 325 327 329 330 330 330 329 329 328 328 327 325 323 322 322 321 320 319 318 314
308 309 310 311 312 313 313 313 313 313 313 313 313 314 314 314 314 313 314 314 315 315 316 318 320 322 324 326 327 327 328 327 326 327 325 324 323 321 321 321 319 318 316
308 309 310 310 311 311 312 312 312 312 313 313 313 313 314 314 313 313 314 314 313 314 314 314 315 316 318 321 322 323 324 324 325 325 325 323 322 321 321 320 318 317 317
308 309 310 310 310 311 311 311 311 311 312 312 312 312 313 313 313 313 314 314 314 314 314 314 313 313 315 316 319 321 322 323 324 324 324 323 323 321 320 320 318 317 316
306 307 308 308 308 309 310 310 310 311 311 311 311 310 311 311 311 312 313 313 313 313 313 314 314 313 313 314 315 317 319 321 322 323 323 323 323 322 321 320 318 317 315
306 306 305 306 306 307 309 310 311 310 310 309 309 310 310 310 310 310 311 311 312 312 313 313 313 314 314 313 314 316 317 318 319 321 322 322 319 315 319 320 319 318 315
303 304 304 305 306 307 309 308 308 307 308 306 306 308 307 307 307 307 307 308 308 309 310 311 312 312 312 310 309 310 313 314 316 316 319 320 313 314 313 314 314 318 315
303 302 303 305 307 308 307 305 304 303 303 303 304 304 303 303 303 305 305 305 305 306 306 308 308 309 311 309 309 308 311 311 313 314 316 316 318 315 319 315 312 312 312
302 303 305 305 305 305 303 301 301 301 301 300 301 301 301 300 301 302 302 302 303 304 304 305 306 307 309 307 307 306 309 311 312 313 314 315 315 317 317 316 315 312 313
303 303 303 302 301 300 299 297 296 297 297 297 296 296 296 297 297 297 297 298 300 301 302 303 304 305 306 306 305 306 308 308 309 312 313 313 315 314 311 313 311 309 301
302 300 299 298 298 296 295 294 293 293 294 294 294 295 295 295 295 295 296 297 297 299 301 301 303 303 304 304 304 304 305 303 305 307 309 308 310 311 310 312 310 299 293
298 297 296 295 294 294 293 291 291 290 291 291 292 292 293 293 293 293 295 294 294 296 298 298 299 299 299 301 303 303 302 302 302 303 303 307 308 309 309 309 309 303 294
295 294 292 291 291 291 290 288 287 288 288 289 289 290 291 291 291 291 292 292 292 292 294 295 295 296 297 298 300 301 302 301 298 298 300 303 304 305 306 306 309 304 296
291 290 289 288 288 288 287 285 286 287 287 287 287 288 288 289 289 288 289 290 290 290 290 291 291 291 294 295 298 299 299 298 296 298 299 300 301 302 304 305 302 297 291
287 287 286 284 284 285 285 285 286 286 286 285 285 286 286 287 287 288 289 289 288 288 289 288 289 290 291 293 294 294 294 295 295 296 297 299 299 301 301 299 296 290 290
285 285 284 283 283 284 284 285 285 285 284 284 284 285 285 285 285 286 286 287 288 289 287 288 290 288 289 292 294 294 292 292 295 296 297 296 294 291 290 291 287 287 288
284 283 283 283 283 283 283 284 285 285 284 283 284 284 284 284 284 285 285 289 290 291 291 292 291 291 293 295 294 293 293 295 296 297 296 293 290 289 290 285 285 286 286

GFSMW_sfc_thetae_006.txt.gz
Theta_e
306 308 308 309 308 309 312 317 318 322 323 324 324 326 326 326 327 329 329 329 328 326 325 325 324 324 322 319 320 319 317 317 316 313 313 313 314 313 313 313 313 314 313
305 306 308 309 310 310 310 311 315 318 321 323 325 326 327 327 329 329 330 330 329 329 327 325 325 324 324 323 320 319 318 318 317 315 310 309 311 314 316 317 317 316 317
305 306 306 308 309 310 310 312 313 315 319 321 323 324 325 325 324 326 326 328 329 329 328 327 326 325 325 324 324 321 319 317 318 320 316 308 306 305 310 313 316 316 312
305 306 307 307 308 310 312 312 312 312 315 318 320 320 320 320 323 324 325 327 328 328 329 329 328 327 327 326 326 326 323 322 319 320 320 319 312 308 305 308 308 309 310
305 306 307 309 309 310 309 310 311 312 313 312 312 315 319 321 323 324 323 323 325 329 329 329 328 328 328 328 327 327 326 325 322 321 319 319 317 316 311 309 311 311 312
304 306 308 309 308 309 309 309 308 308 309 312 315 314 312 313 315 316 318 319 321 322 326 328 328 328 328 328 328 328 327 326 324 323 322 320 316 314 313 311 311 311 314
304 305 306 306 307 307 308 309 308 307 308 308 308 309 311 315 317 318 318 319 319 320 322 323 326 327 328 328 329 329 328 327 325 323 322 322 321 320 316 313 311 309 312
304 305 306 306 306 307 308 308 309 308 309 308 308 308 308 309 310 312 313 316 318 321 323 324 324 325 326 327 328 329 329 329 328 326 324 323 323 323 320 316 312 309 311
303 304 305 305 306 306 307 307 307 308 308 308 308 308 308 307 307 308 308 310 311 313 314 316 320 322 326 327 327 326 327 327 327 326 326 326 325 324 322 320 318 314 308
304 304 305 305 306 306 307 307 307 307 308 308 307 308 308 308 308 308 307 307 308 309 309 310 311 313 316 320 323 325 325 325 326 326 325 326 326 324 322 320 319 318 314
303 304 304 305 306 306 306 306 306 307 307 307 307 307 307 308 308 308 309 309 309 309 309 308 308 309 310 312 314 316 319 322 323 324 324 324 325 323 322 320 319 317 317
304 304 304 305 305 305 306 305 305 305 306 307 307 307 307 307 306 307 308 309 309 310 310 310 310 310 309 310 310 311 314 315 316 319 321 321 323 322 322 320 319 318 318
304 304 304 305 304 304 305 305 305 306 307 307 306 306 306 305 305 306 307 308 308 308 308 309 309 310 310 310 310 310 311 312 314 315 316 318 320 320 320 321 320 318 317
303 302 302 301 301 302 304 305 306 306 306 306 305 304 304 304 303 304 305 305 305 305 306 306 307 308 309 310 310 309 309 310 311 313 314 316 317 318 319 319 319 318 317
302 301 300 300 300 302 304 304 304 303 302 302 301 302 303 302 302 301 302 303 303 303 304 304 304 305 306 307 308 308 308 307 307 309 310 312 312 309 313 317 319 318 316
301 301 300 299 301 302 303 303 301 300 300 299 299 301 300 300 299 299 300 300 300 300 301 301 302 302 304 306 307 307 306 306 306 306 308 309 308 311 312 313 312 315 315
299 299 299 301 301 300 301 297 297 297 298 297 298 297 296 295 296 297 296 296 296 296 297 298 300 300 301 305 306 306 304 304 304 305 306 307 310 309 312 313 313 312 312
300 300 299 298 298 298 297 294 294 293 294 293 293 293 293 293 293 293 293 293 293 293 294 295 297 298 300 304 304 304 301 300 301 302 302 305 306 309 310 311 311 312 314
298 298 297 296 295 294 292 291 291 291 291 291 290 291 291 290 290 290 290 290 291 291 291 293 294 296 297 300 301 299 297 298 298 301 301 302 302 304 306 306 307 308 311
299 295 294 294 292 291 290 289 288 287 286 287 287 288 288 288 287 288 287 288 289 289 290 290 292 295 293 297 299 297 296 294 296 296 297 300 300 302 303 302 303 304 307
294 295 293 290 288 288 287 285 284 282 284 285 286 286 286 286 286 286 287 286 286 288 287 288 289 290 291 291 297 297 294 293 292 290 292 295 299 300 300 300 300 300 306
293 291 288 287 286 286 283 282 281 284 285 285 284 284 284 285 285 284 285 285 284 284 286 286 286 288 288 293 294 296 297 296 290 290 291 294 296 297 298 299 301 302 303
288 287 285 284 284 284 282 280 281 283 283 283 282 283 283 283 284 283 283 282 283 283 284 284 284 284 286 288 292 294 295 294 291 290 292 295 296 297 298 299 300 301 294
285 285 283 282 281 282 282 281 282 282 282 281 281 282 282 283 282 283 283 282 282 283 283 283 282 284 285 286 288 290 290 292 290 291 292 296 298 299 299 298 298 292 290
283 283 281 281 280 280 280 281 282 282 281 281 281 281 282 281 281 282 282 282 283 285 284 284 284 283 283 286 291 291 289 288 289 292 293 293 292 293 293 290 286 287 288
282 281 280 279 279 279 280 281 282 282 280 280 280 281 281 281 281 281 281 286 287 287 289 289 289 287 289 290 291 291 291 291 293 289 289 288 288 288 289 286 285 285 284

GFSMW_sfc_thetae_009.txt.gz
Theta_e
303 306 307 308 309 308 309 308 311 318 320 320 322 323 325 323 324 325 326 325 324 323 321 322 320 319 319 318 317 317 315 316 312 311 313 313 314 313 314 315 314 314 312
304 305 306 306 307 308 308 309 310 311 317 320 322 324 323 324 325 326 327 327 326 325 323 323 322 321 321 320 317 316 316 317 315 314 309 310 314 315 317 316 313 313 314
303 303 304 304 305 306 307 309 308 309 312 318 321 322 322 322 322 322 323 326 327 327 326 325 324 323 322 322 321 319 317 316 316 316 315 309 306 304 308 313 316 316 316
302 304 304 305 305 305 305 307 308 309 312 311 313 317 317 317 320 321 323 324 325 327 328 328 326 324 324 322 323 323 321 319 317 317 319 319 310 308 306 307 308 312 313
302 304 304 307 306 306 305 305 306 308 307 308 311 310 310 314 317 317 318 319 320 323 326 327 327 326 325 325 324 325 325 324 321 320 319 318 317 316 313 309 312 308 308
302 304 305 306 305 305 305 306 306 306 307 307 306 306 306 309 311 313 314 316 317 319 320 323 325 326 326 326 326 326 326 326 325 324 322 320 315 315 313 312 313 312 315
301 303 303 303 305 305 305 307 306 306 306 306 306 305 305 305 306 306 308 308 312 315 315 318 319 324 327 327 327 327 327 327 326 325 324 324 322 321 319 316 313 312 315
301 303 303 303 304 305 304 305 305 305 306 305 305 305 305 306 306 305 305 306 307 308 309 309 311 313 318 324 327 327 327 327 326 326 326 325 325 324 321 318 315 312 312
301 303 303 303 303 304 305 304 305 305 306 305 305 305 305 305 305 305 305 306 307 309 308 308 308 309 310 311 314 319 322 324 325 325 326 325 325 325 324 323 321 316 310
301 302 303 304 304 305 304 304 304 304 304 305 305 305 305 305 305 305 305 306 308 308 308 308 308 308 308 309 309 309 311 313 316 320 320 321 323 323 324 323 322 320 316
301 301 302 304 304 304 303 303 303 304 305 305 305 304 304 305 305 305 305 306 307 307 307 307 307 308 308 309 308 308 309 309 310 312 314 315 318 319 320 321 321 319 318
301 302 303 303 303 302 303 303 304 304 305 305 304 304 304 303 303 303 303 304 304 305 305 305 305 305 306 306 307 307 308 307 307 309 311 312 314 314 316 317 317 319 319
302 302 301 300 299 302 303 303 303 303 302 302 302 301 302 301 300 300 301 301 301 301 302 303 302 302 303 303 305 305 306 305 306 307 307 308 309 309 310 312 313 315 317
302 300 298 297 298 302 302 301 301 300 299 299 299 298 300 299 298 299 299 299 299 299 300 299 299 300 302 302 303 303 302 303 305 306 306 306 307 307 307 309 310 312 312
299 298 297 298 300 301 300 299 298 298 298 297 297 297 297 295 295 296 296 297 297 297 297 295 297 297 298 301 300 301 303 304 303 304 303 304 305 304 306 308 309 309 310
297 297 300 298 297 297 297 296 294 294 294 294 293 294 293 293 293 293 293 293 293 293 293 293 294 293 298 300 303 304 300 299 296 296 299 301 302 303 307 308 309 309 308
298 298 297 297 296 296 294 291 291 292 291 291 292 291 291 290 290 290 290 290 290 290 289 291 291 292 292 299 302 303 295 293 294 296 296 298 301 299 301 302 304 305 307
296 296 294 294 294 293 291 290 291 290 289 289 287 288 288 288 288 288 287 287 287 287 288 287 288 289 290 298 301 299 292 292 293 294 294 296 293 295 298 299 299 299 301
295 294 293 292 292 290 291 289 288 287 286 285 284 285 285 285 285 285 284 285 285 285 285 286 287 287 288 296 295 293 291 290 291 293 294 291 290 295 298 295 295 295 297
295 294 293 293 290 289 287 285 284 282 282 283 283 284 284 284 283 283 283 284 284 284 285 284 285 289 286 292 293 291 290 288 289 291 291 293 292 295 296 293 293 292 293
293 292 291 288 286 285 283 281 281 280 282 283 283 283 283 282 283 282 282 283 283 283 282 283 284 284 286 285 290 291 288 288 289 289 289 289 292 294 295 296 295 295 297
291 290 287 284 283 282 281 279 279 281 281 282 282 282 281 282 283 281 281 282 281 281 281 281 283 284 284 288 289 290 291 291 288 287 288 288 292 293 296 297 299 300 300
288 286 283 282 282 281 280 278 279 280 281 280 280 280 281 281 281 281 280 280 281 280 280 281 281 282 284 285 289 290 291 291 288 287 289 292 292 294 294 294 296 297 293
285 283 282 281 281 281 280 279 279 280 280 279 279 280 280 281 281 281 281 280 280 280 281 281 281 282 283 284 285 286 287 288 287 288 288 291 291 292 292 291 292 288 289
284 283 281 280 280 280 279 280 281 280 279 279 279 279 280 280 280 280 280 280 281 283 282 282 282 281 282 284 287 288 286 286 287 288 287 286 286 286 286 287 288 288 286
282 281 280 280 279 278 278 279 280 280 279 279 279 279 280 279 279 279 279 284 285 286 286 286 285 284 287 288 288 288 288 288 288 285 283 282 283 284 285 285 285 286 285

GFSMW_sfc_thetae_012.txt.gz
Theta_e
302 304 305 305 307 307 307 307 309 310 318 320 319 319 321 321 321 322 323 322 322 320 319 320 320 318 318 319 318 315 314 314 311 309 314 314 314 314 315 316 314 315 313
302 303 304 303 304 304 306 306 307 308 313 317 320 321 321 322 323 324 325 325 324 323 322 321 321 320 319 319 319 316 315 315 313 311 312 310 314 316 316 316 315 315 316
301 302 302 303 303 302 302 305 306 309 310 315 319 320 321 321 321 321 322 324 325 325 324 324 323 323 320 320 320 318 315 315 318 315 314 309 308 306 308 311 315 315 315
302 302 303 303 303 302 303 304 305 306 307 310 311 311 313 313 316 318 319 319 320 322 324 326 325 324 323 321 321 322 319 318 316 320 317 318 317 311 310 312 308 311 313
301 302 303 304 304 304 303 304 305 306 305 305 305 306 305 309 311 311 309 311 314 316 317 319 321 322 324 323 323 323 322 322 320 319 319 318 316 316 313 310 313 314 311
301 302 303 304 304 304 304 304 305 305 305 305 305 304 303 303 305 304 306 307 309 311 310 310 311 315 320 323 326 326 325 324 324 323 322 320 316 315 314 312 314 314 317
301 301 301 302 303 303 303 305 304 304 304 304 304 304 303 303 303 303 303 304 305 306 307 307 307 308 308 310 315 320 324 325 324 324 323 324 323 322 320 317 316 315 317
300 301 301 302 302 303 303 303 304 303 304 304 303 303 304 304 304 303 303 303 304 305 305 306 307 307 308 308 308 309 312 316 320 320 321 321 322 323 323 320 317 314 315
300 301 301 302 303 303 302 302 303 303 303 303 303 303 303 303 303 302 303 303 304 306 306 305 305 306 306 307 307 307 307 308 310 311 313 316 317 319 320 320 320 316 311
300 301 301 302 303 302 301 302 303 303 303 303 303 303 302 302 302 302 301 301 303 303 303 303 304 304 304 304 305 305 306 306 307 308 308 309 312 313 316 317 317 316 314
299 300 301 302 301 301 301 302 302 302 302 302 301 300 301 301 300 299 300 299 300 300 300 301 301 301 301 302 302 302 303 304 304 304 305 306 308 308 310 311 312 312 312
299 300 301 300 300 301 301 301 300 299 299 300 299 298 300 298 297 297 297 298 297 298 298 298 298 297 298 300 300 299 301 299 300 301 303 304 306 305 306 307 306 307 309
299 299 298 298 300 300 300 299 298 297 297 297 296 296 296 295 293 294 295 295 295 294 295 294 294 294 297 295 297 299 297 299 301 302 303 303 302 301 302 304 303 304 306
300 297 295 298 299 299 298 296 295 295 295 295 294 294 293 291 291 292 292 292 293 292 292 291 291 294 292 293 297 295 297 300 300 301 298 297 297 298 300 300 301 304 305
298 296 297 297 297 296 294 293 292 292 293 292 292 291 291 291 290 290 290 290 290 289 290 288 289 292 289 292 292 293 295 297 293 293 293 295 297 299 301 300 295 299 300
295 298 297 295 294 292 291 291 290 291 291 290 289 289 288 287 287 287 287 287 287 287 287 286 287 287 288 295 296 296 294 291 290 290 290 293 296 297 298 296 297 299 296
297 296 294 294 293 291 290 289 289 290 290 288 286 286 285 285 285 285 285 285 284 285 284 285 285 284 286 292 295 297 290 287 287 289 288 289 293 295 291 293 295 295 296
295 294 292 291 291 291 289 288 289 286 285 284 283 284 284 283 283 283 283 282 283 282 283 283 284 284 285 290 293 293 287 285 286 288 288 289 291 291 291 290 290 290 292
293 292 291 291 289 288 287 285 283 282 282 282 282 282 282 282 282 281 281 282 282 282 282 283 282 282 283 290 290 289 285 285 286 287 288 290 289 292 293 289 288 289 291
292 292 291 291 287 284 283 281 280 280 280 281 281 282 282 281 281 280 281 281 281 282 282 282 282 284 282 287 289 288 286 284 285 287 289 291 289 291 292 289 288 288 290
292 292 290 286 283 281 280 279 279 278 280 281 281 281 281 280 280 281 281 281 281 281 280 281 281 282 283 284 289 289 286 285 286 285 285 286 290 291 291 292 290 292 293
290 287 286 284 283 281 280 278 277 279 279 280 280 280 280 281 282 280 280 280 280 279 279 279 281 282 283 287 287 289 289 289 286 285 285 286 290 291 291 291 293 294 293
287 285 284 283 282 280 279 277 278 279 279 279 278 279 280 279 280 279 279 279 279 279 278 279 280 281 283 283 287 289 289 289 286 285 287 288 289 289 288 290 291 291 287
284 284 283 281 280 279 279 278 279 279 278 277 278 278 278 280 279 280 280 279 278 278 279 280 280 280 281 282 284 285 285 287 286 286 285 286 286 287 287 287 288 286 286
284 283 281 279 278 278 278 278 279 278 277 277 277 278 279 278 279 279 279 279 280 281 281 281 281 280 281 282 286 285 284 285 285 284 283 281 281 281 282 283 284 285 286
281 279 278 277 277 277 277 278 279 278 277 277 278 278 279 278 279 278 278 283 284 285 285 285 284 283 285 286 286 286 287 287 285 281 280 279 278 279 281 281 282 284 285

GFSMW_sfc_thetae_015.txt.gz
Theta_e
301 302 303 303 304 304 305 305 307 308 315 317 317 317 318 319 320 320 320 320 320 319 317 318 318 317 317 318 318 314 313 313 311 312 314 315 315 315 315 316 316 316 315
300 301 302 302 301 301 302 304 306 308 311 316 319 319 319 319 321 322 323 323 323 323 321 319 320 320 318 317 317 316 316 315 312 313 313 310 314 314 314 315 315 315 316
300 300 301 301 301 301 301 304 304 305 308 311 317 318 318 317 316 316 317 317 318 319 320 321 321 321 319 318 319 317 315 315 318 313 314 310 309 310 311 310 314 315 315
300 301 302 301 301 301 302 303 305 305 306 306 307 307 308 308 309 311 309 310 311 312 311 312 313 315 319 319 319 321 318 317 316 319 317 317 317 312 312 317 312 313 314
300 301 302 303 302 302 302 302 304 305 304 304 303 303 303 303 304 304 304 305 306 308 307 307 306 307 309 310 313 318 321 322 320 319 319 319 316 316 312 310 314 318 314
300 301 302 303 302 302 302 303 304 303 304 304 303 302 301 302 303 302 303 303 304 305 306 306 305 305 305 306 307 308 309 313 319 320 320 319 316 316 314 312 313 314 317
299 300 301 301 301 301 302 303 303 302 302 303 303 302 302 301 301 301 301 301 302 303 303 303 304 304 305 305 305 306 306 307 308 310 312 315 315 316 315 313 311 311 317
299 299 300 301 301 301 301 301 302 302 302 302 302 301 302 301 301 300 300 300 301 301 301 302 303 303 304 304 303 304 305 305 305 305 307 308 310 313 313 312 310 306 308
299 299 300 301 300 300 300 301 302 302 302 301 301 300 300 299 299 299 299 299 299 301 300 300 300 301 301 300 301 301 301 302 303 304 304 304 306 309 309 310 310 307 302
299 299 300 300 300 299 300 301 301 301 300 300 299 300 299 298 298 297 296 297 297 297 297 298 298 298 297 297 298 299 299 300 301 300 300 301 304 305 306 306 306 306 305
298 299 300 299 299 300 300 299 299 298 298 298 297 297 296 296 295 294 294 294 294 294 294 294 293 292 293 295 293 293 296 297 296 298 299 300 303 302 301 301 301 302 303
298 299 299 298 299 299 298 297 296 296 296 296 295 295 294 292 291 291 291 292 291 292 291 291 289 289 291 292 289 290 294 291 294 296 298 300 298 295 296 297 297 299 299
298 298 297 299 299 298 297 295 294 294 294 294 293 291 290 290 289 289 289 289 289 288 288 288 287 287 289 289 287 291 289 290 292 297 296 292 292 291 294 293 294 298 299
299 296 297 297 297 296 294 292 291 292 292 292 290 289 288 288 288 287 287 287 287 286 286 286 286 286 287 286 287 289 288 290 292 291 291 290 290 290 292 293 295 292 290
295 295 296 296 295 293 291 290 290 290 291 289 288 287 287 286 285 285 285 285 285 285 285 285 284 285 285 286 287 288 288 289 287 286 286 288 291 293 292 292 293 291 289
294 297 296 293 292 290 289 290 291 289 288 285 285 285 284 284 283 283 283 283 283 283 283 283 283 283 285 289 290 290 288 287 284 283 285 288 289 289 294 295 294 293 289
296 295 294 293 291 289 291 288 288 286 285 283 283 283 283 282 282 282 282 281 281 281 281 281 282 282 282 288 290 291 287 285 284 284 285 286 287 289 290 291 292 292 293
294 293 291 290 289 289 289 288 285 283 282 281 281 282 282 281 281 281 280 280 281 280 280 281 281 281 282 288 289 290 285 285 285 285 285 285 286 288 288 287 287 287 288
292 291 290 289 287 288 287 284 281 280 280 280 280 280 280 280 280 279 279 280 280 280 280 281 281 280 281 287 288 287 285 284 284 285 286 286 286 289 290 286 285 286 287
291 290 289 290 287 285 283 282 281 278 278 279 280 280 280 280 279 279 279 280 280 280 281 280 281 283 281 285 288 287 285 284 284 286 286 289 287 289 290 287 286 285 287
290 289 288 285 282 281 280 280 280 277 278 279 280 280 279 279 279 278 279 279 279 279 279 279 280 280 282 283 287 288 285 284 284 284 283 284 288 289 289 289 286 286 289
288 287 285 283 283 282 281 280 277 278 278 279 279 279 278 279 280 278 278 278 278 278 278 278 279 281 282 285 286 288 288 288 284 282 284 285 287 287 288 286 287 289 289
286 286 284 283 282 282 280 277 277 278 278 277 277 277 278 278 278 277 278 277 278 277 277 278 279 280 281 282 286 287 288 288 284 284 287 286 286 286 284 285 287 287 284
283 282 282 281 280 279 278 277 277 278 277 276 276 277 276 279 278 278 278 277 276 277 278 279 279 279 280 281 282 283 284 285 284 287 283 283 284 284 283 282 283 283 283
284 283 281 279 277 277 277 277 277 277 277 276 276 276 277 276 277 278 278 277 278 280 280 280 280 279 279 280 285 284 282 283 286 284 280 278 278 278 278 279 280 281 281
281 279 277 276 276 276 276 277 278 277 276 276 277 277 278 277 278 277 277 282 283 284 284 284 283 281 284 285 285 285 286 286 285 280 277 276 277 277 277 277 278 280 280

GFSMW_sfc_thetae_018.txt.gz
Theta_e
300 302 301 301 302 302 303 304 307 308 314 315 315 315 316 317 318 319 320 320 319 319 316 316 316 316 315 316 319 318 315 315 317 312 313 315 316 316 315 316 315 315 315
299 300 301 300 300 300 301 302 304 305 310 315 317 317 317 318 318 316 314 314 314 315 316 316 317 317 317 316 315 314 316 317 316 313 314 311 314 315 315 316 315 315 316
299 299 300 300 300 300 300 303 303 304 306 308 312 312 312 309 309 308 308 308 309 308 307 307 308 309 312 314 316 316 317 316 319 316 314 310 309 315 315 311 313 314 315
298 299 301 300 300 300 301 303 304 304 305 304 305 304 304 303 303 304 303 304 305 306 305 305 304 304 305 304 305 307 311 314 313 318 319 317 316 310 309 317 318 312 313
299 300 300 301 301 301 301 301 303 304 303 303 303 303 301 301 301 301 301 301 303 304 304 304 303 303 304 303 303 304 304 305 306 308 311 312 313 314 311 307 311 316 318
299 300 301 301 300 300 301 301 302 302 302 303 302 301 300 299 299 299 299 300 301 302 302 302 302 302 302 302 302 303 302 303 304 305 304 305 305 305 306 304 305 306 310
298 299 299 299 299 300 300 302 302 301 301 301 301 300 299 298 298 298 298 297 298 299 299 299 300 300 301 301 300 300 301 302 302 302 302 305 305 305 305 304 303 303 306
298 299 299 299 299 299 300 301 301 300 300 300 299 299 298 298 297 296 296 296 296 297 297 297 298 298 298 296 297 298 299 299 299 299 301 301 301 303 304 304 302 298 300
297 299 299 299 298 299 300 300 300 299 299 299 298 297 296 295 295 294 294 294 294 296 294 295 294 294 292 293 294 293 292 294 297 297 296 298 299 301 304 304 301 297 292
297 298 299 298 298 299 299 299 299 297 297 296 296 295 294 293 292 292 291 291 292 292 291 290 290 288 289 289 292 289 289 292 292 291 295 296 298 300 301 297 297 296 294
297 298 298 298 298 299 297 296 296 296 295 295 294 292 291 290 289 289 289 288 289 289 288 288 287 286 287 287 289 286 287 288 288 290 291 296 297 292 292 292 294 293 291
297 298 297 297 298 296 295 294 294 293 293 293 291 289 289 288 287 286 287 287 286 286 286 286 285 285 285 286 285 284 287 287 287 288 290 289 290 289 289 290 290 290 291
296 296 296 297 297 295 293 292 292 291 291 291 288 287 286 285 284 284 285 285 285 284 284 284 284 284 284 284 284 284 286 286 287 288 287 285 285 284 287 287 287 289 291
297 295 296 296 295 293 291 289 289 289 291 290 286 284 284 283 283 283 283 284 284 282 283 283 283 283 283 283 284 285 286 286 288 287 285 284 284 285 286 286 286 288 290
294 296 295 294 292 290 289 288 288 290 288 285 284 285 284 283 282 282 282 282 282 282 282 282 282 282 283 284 285 286 286 286 285 284 284 285 287 290 289 288 287 288 287
293 296 295 292 290 288 287 288 286 286 284 283 284 283 282 282 282 281 281 281 281 281 281 281 281 281 283 287 289 288 285 285 284 283 284 285 287 287 291 291 291 290 286
295 294 293 291 288 288 288 285 283 283 283 282 282 282 281 281 281 281 280 280 279 279 279 280 280 280 281 287 289 289 285 284 284 284 284 284 286 287 286 289 290 289 290
294 293 291 288 287 287 287 285 284 283 283 281 280 280 280 280 280 279 278 278 279 279 279 279 280 280 281 286 288 288 284 284 284 284 284 284 285 286 286 285 285 286 286
292 290 289 288 286 285 285 282 282 279 280 281 279 279 279 279 279 278 278 278 278 278 279 280 279 279 279 285 287 286 283 283 283 284 285 286 284 287 289 286 284 283 284
290 288 287 286 284 281 280 281 279 278 280 280 278 279 279 278 277 277 277 278 278 279 279 279 279 281 279 284 287 286 283 282 282 283 285 286 285 289 289 284 283 281 281
288 287 285 283 282 282 280 279 280 279 279 278 278 278 278 277 277 277 277 278 278 278 277 277 278 279 280 282 286 287 284 282 283 283 282 282 287 289 287 287 282 281 284
287 285 284 283 282 281 279 278 279 277 277 278 277 277 277 278 279 276 277 277 277 276 276 277 277 279 281 284 285 286 287 286 283 281 282 283 287 286 285 284 285 286 285
284 284 282 282 279 279 278 276 276 277 277 276 276 276 277 277 277 275 277 277 277 276 276 277 277 279 280 280 285 286 286 286 283 282 285 285 285 284 282 283 284 283 279
282 282 281 279 278 278 277 276 276 277 276 275 275 276 275 278 277 277 277 276 276 275 277 278 278 278 279 279 280 282 283 284 283 285 282 282 282 282 281 280 279 278 279
281 281 279 277 276 276 276 276 277 276 276 275 276 276 277 275 276 277 276 276 277 279 279 279 279 278 278 280 284 284 282 282 284 282 279 278 277 276 277 277 277 277 278
279 278 277 276 275 275 275 276 276 276 275 275 277 277 277 276 277 276 276 281 282 283 284 284 282 281 283 284 285 284 285 285 284 279 276 276 276 275 276 276 276 276 278

GFSMW_sfc_thetae_021.txt.gz
Theta_e
304 304 305 305 307 307 309 310 314 316 321 321 322 322 322 321 317 315 315 314 316 316 316 316 316 317 318 318 319 320 320 320 322 317 317 320 322 323 323 324 323 322 322
303 303 304 305 305 306 307 308 309 312 320 323 323 322 316 314 312 312 311 311 309 310 309 309 309 309 310 309 310 311 311 314 317 315 314 310 315 320 322 322 322 323 324
302 302 304 304 306 305 305 307 308 309 310 314 314 313 312 311 309 308 308 308 308 307 307 307 307 307 308 306 307 307 307 305 308 311 311 307 306 311 316 319 321 322 322
302 303 303 304 305 305 306 307 307 308 308 310 309 308 307 304 305 305 306 306 307 305 305 305 306 305 306 304 304 305 305 305 303 306 308 309 308 302 302 309 314 316 317
303 303 303 304 304 305 305 306 307 307 307 307 307 306 304 304 304 303 303 303 304 304 303 303 303 303 303 302 302 302 303 303 302 303 303 304 306 307 304 300 303 308 311
302 303 304 304 304 305 306 306 306 305 305 305 304 303 302 301 301 300 300 300 301 301 299 300 300 300 299 299 299 301 300 300 301 302 303 303 300 299 301 300 301 302 306
302 302 302 302 303 304 305 305 305 303 303 303 303 302 301 300 299 298 297 296 296 297 296 296 296 295 295 295 296 299 298 297 298 300 302 298 299 300 300 301 298 299 303
302 302 302 302 303 303 304 304 303 302 302 301 300 299 299 298 296 295 294 294 294 294 294 294 293 292 291 292 293 295 294 294 296 299 294 295 296 298 300 300 298 291 295
301 302 302 302 302 303 303 302 301 301 301 299 298 296 295 294 293 292 293 292 292 291 291 291 291 290 290 290 291 292 289 290 294 292 292 294 296 300 300 298 294 292 286
300 301 301 301 302 302 301 301 300 299 298 296 295 293 292 291 291 291 290 290 290 290 289 289 289 288 289 289 289 289 288 289 290 290 291 293 295 294 295 295 293 293 292
300 301 301 300 301 300 299 298 297 297 295 294 292 290 290 289 289 288 288 288 288 288 287 287 287 287 287 287 287 287 287 287 288 290 290 292 290 290 290 290 291 292 290
300 300 300 300 299 297 296 296 295 295 293 291 289 288 288 288 287 287 287 287 286 287 286 286 286 286 286 286 285 285 286 287 287 288 290 289 288 287 287 287 288 289 289
299 299 299 299 297 295 294 293 293 293 291 289 288 287 286 286 285 285 286 286 285 285 285 285 284 284 285 285 285 286 287 287 287 288 288 286 286 285 287 287 288 289 289
298 298 298 297 296 293 292 291 291 291 289 287 287 286 285 285 285 285 285 285 285 284 284 284 284 284 284 284 285 286 287 287 287 287 287 286 286 286 287 287 288 288 288
296 297 297 296 293 291 290 290 290 288 287 286 285 285 285 285 284 284 284 284 284 284 284 283 283 283 284 284 286 287 287 286 286 286 286 286 287 289 289 288 288 287 287
296 297 296 294 291 290 290 289 288 286 285 284 284 284 284 284 284 283 283 283 283 283 283 282 282 282 283 286 288 288 287 286 285 285 286 286 287 288 290 290 290 289 286
297 297 295 293 290 290 289 286 285 285 284 283 283 283 283 282 283 282 282 282 282 282 281 281 282 281 282 286 287 288 286 285 285 285 285 285 286 287 287 288 289 289 290
296 295 293 290 289 289 287 285 284 283 282 282 282 282 282 282 282 281 281 281 281 281 281 281 281 281 282 285 287 287 285 285 285 285 285 285 286 287 286 286 286 286 286
295 293 291 289 288 286 285 283 282 281 282 282 281 281 281 281 281 280 280 281 281 281 281 281 281 280 281 285 286 286 285 284 284 285 285 286 285 287 288 287 285 283 284
291 290 288 287 285 284 283 282 281 281 280 280 280 281 281 280 280 280 280 281 281 280 281 280 280 281 280 284 286 286 284 283 283 284 285 286 285 287 289 284 283 281 282
289 288 286 284 283 283 283 281 280 280 280 280 280 280 280 279 280 280 280 280 280 280 279 279 280 280 282 283 286 286 284 283 283 284 283 284 286 289 287 286 282 282 284
288 284 283 282 282 282 282 280 279 280 279 279 279 279 279 279 280 279 280 280 279 278 278 278 279 281 282 284 284 286 286 286 283 282 283 284 287 285 285 283 284 285 284
285 284 283 282 281 280 279 278 279 279 279 278 278 278 279 279 279 279 279 279 279 278 277 278 279 280 282 282 284 285 286 286 283 283 285 285 284 283 282 282 283 283 280
283 283 283 281 280 279 279 278 278 278 278 277 278 279 278 280 280 279 279 278 278 278 278 279 279 280 281 281 282 283 283 284 284 285 282 282 282 282 281 280 280 279 279
283 282 280 279 278 278 278 278 278 278 278 278 278 278 278 278 278 279 278 279 280 280 280 280 280 279 279 281 284 283 282 283 284 282 280 279 278 278 277 278 278 279 279
280 279 278 277 277 277 277 277 278 278 277 277 278 278 279 278 278 278 278 281 282 283 283 283 282 281 283 284 284 284 284 285 283 279 277 276 277 276 276 276 277 277 278

GFSMW_sfc_thetae_024.txt.gz
Theta_e
309 311 312 314 316 318 320 323 325 327 328 328 328 328 322 321 318 317 316 315 315 315 315 315 314 313 313 312 311 311 310 311 313 310 312 313 316 321 320 324 325 324 323
309 310 312 313 314 315 317 321 324 328 329 329 324 322 318 316 315 314 312 312 311 311 310 311 310 310 310 310 309 309 307 308 310 307 306 304 307 313 313 313 313 316 318
308 309 310 312 313 313 314 317 320 320 321 320 318 316 316 314 312 311 310 310 309 309 309 309 309 308 308 307 307 306 306 304 306 307 304 302 300 304 307 309 310 312 314
309 309 310 311 312 312 314 314 315 315 316 316 315 314 311 308 308 309 309 309 308 306 306 305 305 305 304 303 303 302 303 302 300 302 304 305 304 299 298 305 305 307 308
308 309 309 310 311 313 313 314 313 312 313 313 312 310 308 308 308 308 307 306 306 304 301 301 301 300 299 299 299 300 300 299 298 298 300 301 302 302 298 296 298 301 303
308 309 310 310 310 312 312 312 310 309 310 310 310 309 307 306 305 304 303 303 302 301 299 298 298 297 296 297 296 298 299 296 296 297 299 300 297 295 295 294 296 298 300
308 308 308 309 309 310 310 310 309 307 308 308 307 306 305 304 301 301 299 298 298 297 296 296 295 295 295 295 295 296 297 295 295 297 298 296 294 295 294 295 296 295 298
308 308 309 309 309 309 309 309 307 306 306 305 304 303 302 301 299 297 297 295 295 294 294 294 294 293 293 293 293 294 295 294 293 296 294 293 294 295 296 296 295 291 292
308 308 309 309 309 309 308 308 306 305 304 302 301 299 298 297 296 295 295 293 293 292 293 293 292 292 292 292 292 292 291 292 292 292 293 292 293 296 295 294 292 290 286
308 308 308 308 309 308 307 306 305 303 301 300 299 297 295 294 293 293 292 292 292 292 291 291 291 291 291 291 291 291 291 290 291 291 291 292 292 294 293 291 290 289 287
307 307 308 308 308 306 305 304 303 301 299 297 296 295 293 292 292 291 291 291 291 290 290 290 289 289 289 289 289 289 289 289 290 291 290 290 291 291 290 290 289 288 288
308 308 307 307 305 304 303 302 301 299 297 295 294 292 291 291 290 289 290 290 289 290 289 289 288 288 288 288 288 287 288 288 288 289 289 289 289 288 288 288 288 289 289
306 306 306 305 304 303 301 300 299 297 295 293 292 291 290 289 288 288 289 289 289 288 288 288 287 287 287 287 287 287 288 288 289 289 288 288 288 287 287 287 288 289 289
305 305 305 304 303 301 299 298 297 296 293 291 290 289 288 288 289 289 288 288 288 288 287 287 287 287 287 287 287 287 288 288 288 288 288 288 287 287 287 287 287 288 288
304 304 304 303 301 299 298 297 295 293 291 289 289 288 288 288 288 288 288 287 287 287 287 286 286 286 286 286 286 287 287 287 287 288 287 287 288 288 289 287 287 287 287
303 304 304 303 300 298 296 295 293 290 290 288 287 287 287 287 287 287 287 287 287 287 286 286 285 285 285 287 287 288 287 287 286 286 286 287 287 287 289 289 289 288 286
303 303 303 301 298 297 295 293 291 289 288 286 286 286 286 286 286 286 286 286 286 286 286 285 285 284 285 286 287 288 286 286 286 286 285 285 286 287 287 288 288 289 290
302 303 301 298 296 295 293 290 289 286 285 285 285 285 285 285 285 285 285 285 285 285 285 284 284 284 284 286 286 287 286 286 286 286 286 285 286 287 286 286 287 288 287
303 302 299 296 295 293 291 288 286 285 285 285 285 285 285 284 284 284 284 285 285 284 284 284 284 283 283 285 286 286 285 285 285 285 285 286 285 287 287 286 285 285 285
300 296 295 294 293 290 289 287 284 285 284 284 284 284 284 284 284 284 284 284 284 284 284 283 283 284 283 285 286 286 285 283 284 285 285 286 286 287 288 285 283 282 282
295 294 293 292 289 288 287 285 285 284 284 284 284 284 284 284 284 284 284 284 283 283 283 282 283 283 284 285 286 286 284 284 284 285 284 285 286 287 286 285 283 282 283
292 292 290 288 287 286 284 284 284 284 284 284 283 284 284 284 283 284 284 283 283 282 281 281 282 284 284 285 285 286 286 286 284 283 284 285 286 285 284 284 284 284 284
291 290 289 286 284 284 285 283 283 284 283 283 283 283 283 283 284 283 282 282 282 281 281 281 281 282 283 284 285 286 286 286 283 284 285 286 284 283 283 283 283 283 281
289 289 287 284 283 284 283 283 283 283 282 282 283 283 283 283 283 283 282 281 281 280 280 281 281 281 282 282 283 284 285 285 284 285 284 283 283 282 282 281 281 281 281
288 288 286 285 284 283 283 283 283 282 282 282 282 282 282 282 282 282 281 281 282 282 281 281 281 281 280 282 284 284 283 283 284 283 282 280 279 279 279 279 280 280 280
287 286 284 283 282 282 282 282 282 282 281 281 282 282 282 282 281 281 281 283 283 284 283 283 283 282 283 284 284 284 284 285 284 280 278 278 278 278 278 277 277 278 278

GFSMW_sfc_thetae_027.txt.gz
Theta_e
312 314 315 318 319 322 325 326 326 328 328 328 328 327 321 319 317 316 315 314 313 313 313 313 312 312 311 310 310 310 309 309 310 308 309 309 310 313 314 311 310 312 314
311 313 314 316 317 320 324 326 328 329 327 326 324 321 318 316 314 314 312 311 310 311 310 310 309 309 309 308 306 306 305 305 307 303 302 300 304 309 306 306 309 308 310
310 311 313 314 316 317 320 320 322 322 321 321 319 317 316 314 311 311 310 309 308 307 307 306 305 305 305 304 303 303 303 300 302 303 300 296 294 299 303 304 305 304 304
311 311 312 313 314 315 316 317 317 317 318 319 317 314 311 307 309 309 310 309 307 303 302 302 301 301 301 299 300 299 301 300 296 299 299 301 300 295 295 300 300 302 301
310 310 312 312 314 315 315 315 314 313 313 313 312 311 309 309 309 309 308 306 306 303 299 299 299 298 297 297 297 297 298 298 296 296 296 297 299 299 293 289 293 297 299
310 311 312 313 313 314 313 313 311 310 311 311 311 310 308 308 306 305 304 303 302 300 298 297 297 296 296 295 296 296 297 296 296 296 295 297 294 292 291 290 291 292 296
309 309 309 310 311 311 311 310 310 308 309 309 308 307 306 305 303 302 300 299 298 296 295 295 295 294 295 295 295 295 297 297 295 294 294 296 294 294 293 292 291 292 293
309 309 310 311 310 310 310 309 308 307 307 306 304 304 303 302 300 298 297 296 295 294 294 294 294 293 293 293 294 294 295 295 294 293 293 293 293 294 293 292 291 287 288
309 309 310 311 310 310 310 309 307 306 304 303 302 300 299 298 297 296 295 294 294 293 293 293 292 292 292 292 292 292 291 292 292 292 292 292 292 293 293 294 292 288 283
309 309 310 310 310 310 309 308 307 304 303 301 300 298 297 295 295 294 293 292 292 292 292 291 291 291 291 291 291 290 291 290 290 291 291 291 291 291 292 292 291 289 286
309 309 309 310 309 308 307 306 304 302 300 300 299 297 295 294 293 292 291 291 291 291 290 290 290 290 289 289 289 289 289 288 289 290 290 290 290 290 290 290 289 288 288
309 309 309 309 308 307 306 305 303 301 299 298 296 294 293 293 291 290 290 290 290 290 290 289 289 289 288 288 288 287 288 287 288 289 289 288 289 288 289 288 287 287 287
309 309 308 307 307 306 304 303 302 299 298 296 295 293 292 291 290 290 290 290 289 289 289 289 288 288 288 287 287 287 286 287 288 288 288 288 288 287 287 287 286 286 287
308 308 307 307 306 305 303 302 300 298 296 294 293 291 290 290 289 289 289 289 289 288 288 288 288 287 287 287 287 286 286 287 287 288 288 288 287 286 286 286 286 287 286
307 307 306 307 305 303 301 301 298 296 294 292 291 289 289 289 289 289 288 288 288 288 288 287 287 287 287 287 287 286 286 286 286 287 287 287 288 289 288 286 286 285 285
306 306 307 306 304 302 300 299 296 293 292 290 289 288 288 288 288 288 287 288 288 288 288 287 287 286 286 289 289 287 286 286 286 285 286 287 287 288 289 289 289 288 284
306 306 306 306 303 301 299 297 294 292 290 288 287 287 287 287 287 287 287 287 287 287 287 287 286 285 286 288 288 288 285 285 285 285 285 285 286 287 286 288 289 288 289
305 306 306 304 302 300 298 294 292 289 287 287 286 287 286 286 286 286 286 286 286 286 286 286 285 285 285 287 287 287 286 285 285 285 285 285 285 286 286 285 285 286 285
306 306 304 301 299 296 294 290 288 287 287 286 286 286 286 285 285 285 285 286 285 285 285 285 285 284 284 287 287 286 285 284 284 285 285 285 285 287 288 285 284 282 282
304 301 299 297 296 293 291 289 287 287 286 285 285 285 285 285 284 285 285 285 285 285 285 284 284 285 283 287 287 287 285 283 283 284 285 287 285 287 288 284 282 279 280
298 298 296 295 292 291 290 288 287 285 285 285 285 285 285 285 285 285 285 285 284 284 283 283 284 284 285 285 287 287 284 283 283 283 283 284 286 288 287 286 281 280 283
295 295 293 290 290 290 288 285 285 285 285 285 285 285 285 285 285 284 285 284 284 283 282 282 282 284 284 286 286 287 287 286 283 282 283 283 287 285 285 284 284 285 284
293 294 291 288 287 286 287 286 284 285 284 284 284 284 285 285 285 284 283 283 283 281 281 281 281 282 283 284 286 286 286 286 283 283 284 287 284 284 282 283 283 283 279
292 292 289 287 285 285 285 285 285 284 284 283 284 284 284 284 284 284 284 282 281 281 281 280 280 281 281 282 283 283 283 284 283 284 283 283 282 283 281 280 280 279 279
291 291 289 287 285 285 284 284 284 284 283 283 283 284 284 283 283 283 282 282 282 283 281 281 281 280 279 281 284 284 282 282 283 283 280 279 278 277 277 278 278 278 278
291 289 288 287 284 284 284 284 284 283 283 282 283 283 283 283 283 282 281 285 285 285 285 284 283 282 284 285 285 284 284 285 284 280 277 276 276 276 276 276 276 277 278

GFSMW_sfc_thetae_030.txt.gz
Theta_e
308 309 310 312 315 318 319 320 321 322 322 322 322 317 313 310 308 308 308 307 307 307 305 306 305 304 304 302 301 301 300 299 300 298 298 298 301 300 300 300 300 303 303
305 308 310 311 315 318 320 321 322 320 320 318 317 315 311 308 308 307 306 305 304 303 303 301 301 299 300 298 297 296 296 297 297 294 293 291 294 297 298 299 301 300 300
305 306 307 309 312 313 315 316 316 315 315 313 312 311 309 307 305 304 303 302 300 300 299 298 297 296 296 295 294 293 294 293 294 293 291 289 288 291 295 297 298 295 295
306 307 307 307 308 309 311 312 313 313 314 312 310 307 304 302 303 303 304 301 299 297 296 296 295 294 294 292 292 294 292 293 290 292 295 292 291 289 289 293 292 293 293
306 306 307 308 309 309 308 307 307 307 307 307 306 304 303 303 303 302 300 299 298 295 295 294 293 292 292 291 291 290 290 292 290 290 290 290 292 291 287 284 287 291 292
305 306 308 309 308 307 306 305 305 305 306 305 304 303 301 300 299 297 296 296 295 294 293 293 291 291 291 290 290 290 290 291 291 290 289 289 289 288 287 285 286 286 289
305 305 305 306 306 305 304 305 303 303 303 302 301 300 298 296 294 294 292 291 291 290 290 290 289 289 290 290 289 289 289 290 289 288 288 289 289 289 289 287 286 285 287
305 304 305 305 305 305 303 303 302 301 300 299 297 296 296 294 293 291 290 289 289 289 289 289 288 288 289 288 288 288 289 288 287 285 286 287 288 289 289 287 285 283 284
304 304 305 305 304 303 303 302 301 299 298 297 295 293 292 291 290 289 289 289 288 290 288 287 287 287 287 287 287 287 285 285 285 285 285 286 288 288 288 288 287 284 280
304 304 305 305 304 304 303 302 300 298 297 295 293 292 290 289 289 288 287 287 287 287 287 286 286 286 286 286 285 285 285 285 285 286 285 286 287 287 287 287 287 286 283
304 305 305 305 303 303 302 299 298 296 295 294 292 290 289 288 287 286 286 286 286 286 286 286 286 285 285 285 284 284 285 284 283 284 285 286 286 286 286 286 286 285 284
305 305 305 304 302 301 300 298 297 295 294 292 290 289 289 287 286 285 286 286 285 285 285 285 285 285 285 284 283 283 283 282 283 284 284 285 287 285 285 285 284 284 284
304 304 304 303 301 300 299 298 296 294 293 291 289 288 287 286 285 285 286 286 285 284 285 285 284 284 285 284 283 284 282 283 284 284 284 284 284 284 284 284 283 284 285
304 303 303 302 301 300 298 296 294 293 291 290 288 287 286 285 285 285 285 285 285 284 284 284 284 285 284 284 284 283 283 283 284 284 284 284 284 284 283 284 284 285 284
303 303 302 301 299 298 296 295 293 291 290 288 287 286 286 285 285 285 285 285 285 285 285 284 284 284 284 285 284 285 283 283 283 283 284 285 286 289 288 285 285 284 283
303 303 303 300 298 296 295 293 290 289 288 287 286 286 286 285 285 284 284 284 284 283 283 283 283 282 285 289 289 288 284 283 283 282 283 284 286 286 289 289 289 288 284
303 303 302 300 298 296 294 290 288 288 286 285 285 285 285 285 284 284 283 282 282 282 281 281 281 281 281 288 289 289 284 283 282 282 282 283 284 285 283 286 288 288 289
302 302 301 298 297 295 293 290 287 285 285 284 284 285 284 283 283 282 281 281 281 280 280 280 281 280 282 288 288 288 284 283 283 283 283 282 282 284 285 284 284 284 284
302 301 299 296 294 291 288 286 285 284 284 284 284 283 283 281 281 280 280 280 280 280 279 281 280 279 280 287 288 287 283 283 282 283 283 283 283 286 288 284 283 282 281
300 297 295 294 291 288 287 285 284 283 283 283 282 282 282 281 280 280 280 280 280 281 282 281 280 282 280 286 288 287 283 282 282 282 283 286 285 287 288 284 281 279 278
295 295 293 290 287 287 286 284 283 281 282 283 282 282 281 281 280 280 280 279 279 280 278 279 279 279 281 282 287 287 283 282 282 281 281 282 285 287 287 286 280 280 283
293 292 288 287 286 287 285 283 280 281 282 282 282 281 281 282 282 279 279 279 278 277 277 277 278 280 281 285 285 286 286 286 282 281 281 281 286 285 285 283 284 284 283
291 289 287 285 283 284 283 281 281 282 281 280 280 280 281 281 280 279 278 278 278 276 277 278 278 279 281 281 285 286 286 286 282 281 283 286 284 283 281 282 283 282 277
288 287 285 283 281 282 282 281 281 281 280 279 279 280 279 280 279 280 279 277 276 276 278 278 278 278 279 279 280 282 282 284 282 284 282 282 281 281 280 279 279 278 278
288 287 285 283 281 281 281 281 281 280 279 279 278 279 279 278 278 278 277 276 277 280 280 279 279 278 278 280 284 284 281 282 283 282 278 276 276 275 276 277 277 278 278
287 286 284 282 281 281 280 280 281 280 279 277 278 278 278 277 278 277 278 283 284 285 285 285 283 282 284 285 285 285 285 285 284 278 275 275 275 275 275 275 276 276 277

GFSMW_sfc_thetae_033.txt.gz
Theta_e
305 307 309 312 314 315 316 317 319 320 322 318 313 309 306 306 305 305 304 303 303 302 300 300 299 299 298 295 295 296 295 295 295 293 291 293 296 294 294 294 296 298 299
304 306 309 312 316 316 316 316 315 315 316 315 312 308 305 304 304 303 300 300 299 299 298 297 295 294 294 293 292 292 293 294 293 290 289 288 291 293 293 294 297 294 293
304 304 306 310 311 312 312 312 311 311 311 310 309 307 306 304 302 300 298 297 296 296 296 294 293 292 292 291 290 290 290 290 291 290 289 285 285 287 292 294 292 291 291
304 305 307 306 307 307 309 310 311 310 309 309 307 304 302 300 300 300 298 296 294 293 294 293 292 291 291 289 290 291 289 290 289 290 292 289 288 285 286 290 290 290 290
305 305 306 307 306 305 303 303 304 305 304 304 303 303 300 300 300 298 296 294 292 292 292 292 290 289 290 288 288 288 287 288 289 288 288 287 287 288 285 282 284 288 289
304 305 306 306 304 302 302 302 303 302 302 303 301 299 297 296 294 292 292 292 291 291 290 290 289 288 288 288 287 288 287 287 288 288 287 286 285 285 284 283 283 284 286
304 305 304 303 301 301 301 302 301 299 299 298 297 295 293 291 290 290 289 288 288 288 287 287 286 287 287 287 287 287 286 287 285 285 285 286 286 287 286 285 283 283 285
304 304 304 302 301 301 300 300 299 297 296 295 294 292 292 291 289 289 288 287 287 286 286 286 286 286 286 286 285 286 286 285 284 283 283 284 285 286 286 285 284 281 282
303 303 303 302 301 299 299 299 297 296 294 292 291 289 289 288 287 287 287 286 286 288 285 285 285 285 285 285 284 284 283 283 283 283 283 283 285 286 286 286 285 283 278
302 303 303 302 300 300 299 297 296 294 293 291 289 288 287 287 286 286 285 285 285 285 285 285 284 284 284 284 283 283 283 282 282 284 282 283 285 285 285 285 285 284 282
302 303 303 302 301 300 298 296 295 293 291 290 288 287 286 286 285 285 284 284 284 284 284 284 284 283 283 283 282 282 283 282 281 282 283 283 284 284 284 284 284 284 283
302 303 302 301 300 298 296 295 293 292 290 289 288 286 286 285 284 284 284 285 284 284 284 284 284 283 284 283 282 281 281 281 281 282 282 282 285 283 283 284 283 283 283
302 302 301 300 299 297 296 294 292 290 289 288 286 286 285 284 283 283 284 284 284 283 283 284 283 284 284 283 282 282 281 281 281 282 282 282 282 282 283 283 282 283 284
302 301 300 299 298 297 295 293 291 290 288 287 286 284 284 284 283 284 284 284 284 283 283 284 284 284 283 283 283 282 282 281 282 283 283 282 282 282 282 283 283 284 283
301 301 300 299 297 296 293 291 289 288 287 286 285 284 284 284 284 284 284 283 283 284 284 283 282 282 283 284 284 284 283 281 281 282 283 283 285 287 286 284 283 282 282
301 301 301 299 296 295 292 290 288 287 287 285 284 285 285 284 283 283 283 282 282 282 282 281 281 280 283 288 289 288 283 282 281 281 282 283 285 285 288 288 288 287 283
300 301 300 298 296 293 291 288 287 286 284 284 284 285 284 284 283 283 282 281 280 280 279 280 280 279 279 288 289 289 284 282 281 281 281 282 284 284 283 286 288 287 288
301 301 299 296 294 291 289 287 285 284 284 284 283 284 283 282 282 281 280 279 279 279 279 279 279 279 281 287 288 288 283 281 281 281 281 281 282 283 284 283 283 284 284
301 299 297 293 291 288 287 285 284 284 284 283 283 283 282 281 280 279 278 279 278 278 278 279 278 277 278 286 287 286 282 282 281 282 282 283 282 285 287 284 283 281 280
296 293 291 289 287 286 286 284 282 282 282 282 282 282 281 280 279 278 278 279 278 279 279 279 278 281 278 284 286 286 282 281 281 282 282 285 283 286 288 283 281 277 277
292 291 289 287 285 284 284 283 282 281 282 282 282 281 280 279 279 278 278 278 278 278 276 276 276 277 279 280 286 286 283 281 282 281 280 281 285 288 286 285 279 279 282
289 288 286 285 285 284 283 280 279 281 281 281 281 280 279 280 281 278 278 277 277 276 275 275 276 277 278 283 284 286 286 286 282 280 280 281 286 284 283 282 283 284 283
287 287 285 283 282 282 281 280 280 281 280 280 279 279 279 279 279 277 277 276 276 275 276 276 277 278 279 278 284 286 286 286 282 282 284 284 283 282 280 281 282 282 277
285 284 283 281 280 281 281 280 280 281 279 278 278 279 278 280 278 278 277 276 275 275 277 278 278 278 278 279 280 282 282 284 283 283 280 280 280 280 280 279 279 278 278
285 284 282 280 279 279 279 280 280 279 278 278 278 277 278 277 277 277 276 276 276 279 279 279 279 278 278 280 284 283 282 282 282 281 277 276 275 275 276 276 277 277 277
285 283 281 280 279 279 279 279 280 279 278 277 277 277 277 276 276 275 276 282 283 284 284 284 282 281 284 285 285 284 285 284 283 277 274 274 274 274 275 275 275 276 276

GFSMW_sfc_thetae_036.txt.gz
Theta_e
303 305 307 310 312 313 314 315 318 318 315 312 308 304 302 305 304 304 303 301 299 298 297 296 295 295 293 291 292 292 292 292 291 289 289 291 293 291 290 291 294 293 292
302 304 308 311 314 313 314 315 315 315 313 310 306 304 302 302 301 300 297 297 296 296 295 293 292 292 291 290 289 289 290 291 290 287 287 286 289 290 290 291 293 289 291
302 303 307 311 311 310 310 311 310 309 308 306 305 303 302 301 298 296 294 293 294 294 293 292 291 290 290 289 288 288 288 287 289 289 286 282 282 285 288 288 289 289 288
303 304 308 308 308 307 308 308 308 307 306 306 304 302 300 298 297 295 293 292 291 292 292 291 290 289 289 287 287 289 286 287 287 288 291 288 286 282 282 287 288 287 288
304 306 308 307 306 305 304 305 306 305 304 303 303 302 299 299 297 294 291 289 289 290 290 290 288 288 288 286 286 286 285 286 287 286 286 285 285 285 283 280 282 286 287
304 305 305 304 301 301 301 302 303 301 302 302 300 299 297 294 293 291 289 289 289 289 288 288 287 286 286 286 285 285 285 285 285 285 284 284 283 282 281 280 281 281 284
303 303 302 301 300 300 300 301 300 298 298 297 295 294 292 291 289 288 288 287 287 286 286 286 285 285 285 285 285 285 284 284 283 282 282 284 284 285 283 282 281 281 283
303 303 301 300 299 299 298 298 297 295 295 293 291 290 290 289 288 287 287 286 286 285 285 284 284 284 284 284 283 284 284 283 282 281 281 282 283 283 284 283 281 279 280
302 301 300 300 299 298 297 296 295 293 292 291 290 288 288 287 286 286 285 285 285 287 284 283 283 283 283 283 283 283 282 281 281 281 281 281 282 283 283 283 283 280 276
301 301 300 299 298 297 295 294 294 292 290 288 288 287 286 285 285 284 284 284 284 284 283 283 283 283 283 283 282 281 282 281 281 283 281 281 282 283 283 283 283 282 280
301 301 300 299 298 296 295 293 291 290 288 287 286 285 285 284 284 284 283 283 283 283 283 283 283 282 282 282 281 281 281 280 280 281 281 281 282 282 282 283 283 282 282
301 301 299 298 296 295 293 292 290 289 287 287 286 285 285 284 283 283 283 283 282 282 282 282 282 282 283 282 281 280 280 280 280 280 281 281 283 281 282 282 281 282 282
301 300 298 297 295 294 292 291 290 288 287 286 285 284 283 283 282 283 283 283 282 282 282 283 282 282 283 282 281 280 280 280 280 280 280 281 281 280 281 281 281 282 283
300 299 298 297 295 294 292 290 288 288 286 285 284 283 283 283 283 283 283 283 282 282 282 282 282 282 282 281 281 282 281 281 281 281 281 281 281 281 281 282 282 283 281
299 299 298 296 294 293 291 289 288 287 286 285 284 284 283 283 283 283 282 282 282 282 282 281 281 280 281 283 284 283 282 280 280 280 281 282 284 287 286 284 283 282 281
299 299 298 296 294 292 290 288 287 286 286 285 284 284 284 283 283 282 282 282 281 280 280 279 279 279 282 287 289 287 283 281 280 280 281 282 284 284 287 287 287 286 283
300 299 298 297 295 291 289 287 286 285 284 284 284 283 283 283 282 282 281 280 279 279 278 278 278 278 278 287 288 289 284 280 280 279 280 281 283 284 282 285 287 286 288
300 299 298 296 293 290 288 286 285 284 283 283 283 284 282 281 281 280 279 278 278 278 277 278 278 277 279 286 287 288 282 281 280 280 280 280 281 282 283 282 282 283 281
301 300 297 292 289 287 286 284 283 283 283 283 283 282 281 280 280 279 278 278 277 277 277 277 277 276 277 285 286 285 281 281 280 281 281 283 281 284 287 284 281 279 279
296 293 291 289 287 285 285 284 283 282 282 282 281 281 280 279 279 278 278 278 277 277 278 277 276 280 276 283 286 285 282 280 280 282 282 284 283 286 288 282 279 276 277
290 289 289 287 285 284 284 282 281 281 281 281 281 280 280 279 279 278 277 277 276 277 275 275 275 276 277 278 285 286 283 281 282 280 280 280 285 286 285 284 278 278 282
287 287 285 283 283 283 283 281 280 280 280 280 280 279 279 280 280 277 277 276 276 275 274 274 275 277 277 283 284 286 286 286 281 280 280 282 285 284 283 281 283 284 282
286 286 284 282 281 281 282 279 278 280 279 279 278 278 278 278 278 276 276 275 275 274 274 276 277 278 279 277 284 285 286 285 282 281 283 284 283 282 280 281 282 282 277
284 284 283 281 279 279 280 279 279 279 278 277 277 277 277 279 277 277 276 274 274 274 277 278 277 277 278 279 280 282 281 283 282 283 279 280 280 280 279 278 278 277 277
283 283 281 280 278 278 278 279 279 278 277 277 277 277 277 276 276 276 275 275 276 279 278 278 278 277 277 279 284 283 281 281 282 281 277 275 275 275 275 276 276 276 276
282 281 279 278 278 278 278 278 279 278 277 277 277 277 277 275 276 275 274 281 283 283 283 283 282 280 283 284 284 284 284 284 282 277 274 274 274 274 274 274 275 275 276

GFSMW_sfc_thetae_039.txt.gz
Theta_e
303 303 305 307 310 308 311 312 315 313 314 310 307 305 305 304 303 302 301 300 299 296 294 293 292 292 290 289 289 290 290 290 290 287 288 289 291 290 287 289 290 289 290
301 302 305 307 310 311 312 314 313 311 310 308 304 303 303 301 300 299 297 296 294 293 292 291 290 290 289 288 287 287 287 288 289 286 285 283 285 288 288 288 290 287 288
301 301 304 308 310 311 311 313 310 308 306 304 303 301 299 299 296 295 294 292 292 292 291 290 289 289 288 287 287 286 286 285 288 287 284 280 279 283 286 286 287 287 286
302 303 305 308 309 309 308 308 307 305 304 305 303 302 299 296 296 294 290 290 290 290 290 289 288 288 287 285 286 287 285 286 284 286 289 286 284 280 280 285 286 284 285
302 303 308 310 308 306 305 304 304 304 302 302 302 300 297 295 292 290 288 288 288 289 289 288 287 286 286 285 284 284 284 284 284 284 284 283 283 282 281 278 280 283 284
301 305 306 305 302 301 302 303 303 301 301 301 300 299 295 292 290 289 288 287 287 287 287 287 285 285 285 284 284 283 283 283 283 283 282 282 281 281 279 278 279 279 282
303 303 304 302 300 300 301 301 301 298 298 298 297 296 294 292 289 288 287 286 286 285 284 284 284 283 284 284 284 283 283 283 281 280 280 282 282 282 281 280 279 278 281
303 305 304 301 300 300 299 299 298 295 295 294 291 290 290 290 288 287 286 285 285 284 284 283 283 283 283 283 282 282 282 282 281 279 279 281 281 282 282 280 279 277 278
303 303 300 300 298 297 297 297 295 293 292 290 289 287 287 287 286 284 284 284 284 286 283 283 282 282 282 282 282 282 281 280 280 280 280 280 281 282 282 282 281 279 275
301 299 299 298 297 296 294 294 293 291 289 288 288 286 285 284 284 284 283 283 283 283 283 282 282 282 282 282 281 281 281 280 280 281 280 280 281 281 281 281 281 281 279
298 298 297 297 296 294 293 291 290 288 287 287 285 285 284 283 283 283 283 282 282 282 282 282 282 281 281 281 280 280 280 279 279 280 280 280 281 281 281 281 281 280 280
299 297 296 295 294 292 291 289 288 287 286 285 285 284 283 283 282 282 282 282 282 282 282 282 281 281 281 281 280 279 279 279 279 280 279 280 283 280 280 280 280 280 281
297 296 295 294 293 291 289 288 287 286 285 285 284 283 282 282 282 282 282 282 282 281 281 281 281 281 281 280 280 280 280 280 280 280 279 280 280 279 280 280 280 281 283
297 296 295 294 292 290 289 287 286 286 285 284 283 282 282 282 282 282 282 282 281 281 281 281 280 280 280 280 280 281 281 280 280 280 280 280 280 280 280 282 282 283 280
296 296 294 293 291 289 288 287 286 285 285 284 283 282 282 283 282 282 281 281 281 280 280 280 279 279 280 282 283 283 281 280 279 279 280 281 283 286 285 284 281 281 281
297 297 295 292 290 289 287 287 285 285 285 284 283 283 283 283 282 281 281 280 280 279 279 278 278 278 281 286 288 287 282 280 279 279 280 280 283 283 287 287 287 286 282
298 297 295 293 292 289 288 286 285 285 284 283 283 283 283 283 281 280 280 279 278 277 277 278 277 277 277 286 288 288 282 280 279 279 280 280 282 283 281 284 286 286 287
298 298 296 294 291 289 287 285 285 284 283 282 282 283 284 282 280 279 278 277 277 277 277 277 277 276 278 286 287 287 281 279 279 279 279 279 280 281 283 283 284 280 280
299 298 296 292 289 287 286 284 283 282 282 282 283 283 282 280 279 278 277 277 277 277 276 277 276 275 276 284 286 285 281 280 279 280 281 282 281 284 287 283 280 279 278
298 293 291 289 287 285 285 284 282 282 282 282 283 282 280 278 278 277 277 277 277 277 277 276 276 278 276 282 286 285 281 280 280 282 281 284 283 286 287 282 279 276 277
292 290 289 287 285 285 285 282 282 281 282 282 281 279 278 278 278 277 277 276 276 276 274 275 274 275 277 278 285 286 282 281 281 280 280 280 285 286 285 284 278 278 282
289 288 285 283 283 284 283 281 280 280 282 280 279 278 278 280 279 277 276 275 275 274 274 274 275 277 277 282 284 286 286 286 280 280 280 281 285 284 283 282 283 284 282
286 285 283 282 282 283 284 280 278 279 278 278 277 278 278 278 277 276 275 274 274 274 274 276 276 277 279 277 283 285 286 285 283 281 283 284 283 282 280 281 282 281 276
284 284 283 281 279 279 280 279 278 279 277 277 276 277 277 277 276 277 276 274 274 274 277 277 277 276 277 278 279 281 280 284 282 282 279 280 280 280 279 278 277 276 276
283 284 282 280 278 278 278 278 278 278 277 276 277 277 277 275 275 276 274 275 276 278 278 277 277 276 276 279 283 283 281 281 282 281 277 275 275 274 274 275 275 276 276
281 280 279 278 277 277 277 277 278 278 277 277 277 277 276 274 276 274 275 280 282 283 283 283 281 280 282 284 284 284 284 284 282 277 273 273 273 273 273 274 274 275 275

GFSMW_sfc_thetae_042.txt.gz
Theta_e
306 304 304 304 306 306 309 313 316 316 314 311 308 308 304 303 302 302 303 300 298 296 295 292 290 290 289 287 288 288 287 289 288 286 287 287 288 289 287 288 288 287 287
301 302 302 303 307 307 309 312 311 311 312 312 305 304 306 302 299 299 299 300 295 294 291 290 289 288 288 287 286 285 286 286 287 284 283 281 283 286 287 286 288 285 287
303 300 302 304 307 308 309 312 309 306 305 304 302 301 300 298 296 296 295 293 293 291 290 289 288 287 287 286 285 284 285 284 285 286 283 279 278 281 284 285 286 285 284
303 302 302 305 307 308 309 309 306 303 303 304 303 303 302 298 295 293 292 291 290 289 289 288 287 286 286 285 285 285 284 284 283 284 287 284 283 278 278 283 284 282 284
304 301 302 307 308 307 306 304 302 302 301 302 303 300 297 294 293 291 289 288 287 287 288 287 286 285 285 284 283 283 282 283 283 282 282 281 282 281 279 277 278 282 283
301 301 303 307 304 303 302 302 301 299 300 300 298 297 292 291 290 289 287 286 286 286 286 286 284 284 284 283 283 282 282 281 281 281 280 281 280 279 278 276 278 278 280
298 301 303 304 302 301 301 301 301 298 299 300 299 296 293 292 289 287 286 285 284 284 283 283 283 283 283 283 283 282 282 281 280 279 279 281 281 281 280 278 278 277 279
298 302 304 305 303 302 301 301 299 297 297 297 295 292 291 290 288 286 285 284 284 283 283 283 283 282 282 282 282 282 281 281 280 279 279 280 280 281 281 279 278 276 276
300 303 304 303 301 301 299 299 297 294 293 291 290 288 288 287 285 284 284 284 283 284 282 282 282 282 282 281 281 281 280 279 279 279 279 279 280 281 281 280 280 278 274
300 302 302 300 300 298 296 295 295 292 290 289 288 286 285 284 284 284 282 282 282 282 282 282 282 281 281 281 280 280 280 279 279 280 279 279 280 280 281 280 280 280 278
300 299 298 297 296 295 294 291 290 289 287 286 285 284 283 283 283 282 282 282 282 282 282 282 281 281 280 280 279 279 280 279 279 279 279 279 280 280 280 280 280 279 279
298 296 295 294 293 291 291 289 288 287 286 285 284 283 283 282 282 281 281 282 281 281 281 281 281 280 280 279 279 278 279 279 279 279 279 279 282 279 279 280 279 279 280
295 294 294 293 291 290 288 287 287 285 285 284 283 282 282 281 281 281 281 281 281 281 281 281 280 280 280 279 279 279 279 279 279 279 279 279 279 278 279 279 279 280 282
295 294 293 291 290 288 287 286 285 285 284 284 283 282 281 281 281 281 281 281 281 281 280 279 279 279 279 279 279 280 280 280 280 279 279 279 279 278 279 280 281 282 280
294 294 291 290 288 286 286 285 284 284 284 283 283 282 282 282 281 281 281 281 281 280 280 279 278 278 279 281 282 282 281 279 279 279 279 280 282 286 286 283 281 281 280
295 293 292 289 287 286 285 285 284 284 284 283 282 282 282 281 281 280 280 280 280 279 278 278 277 277 280 285 288 287 281 280 279 279 279 279 283 282 287 287 287 286 283
295 293 291 290 288 286 286 284 284 284 283 283 282 282 282 281 281 282 281 280 278 277 277 277 276 276 276 286 288 288 282 280 278 278 279 280 282 283 280 284 286 287 287
295 294 292 290 288 287 286 284 284 283 283 282 282 282 282 281 281 280 279 278 277 276 276 276 276 275 277 286 287 287 281 279 278 278 278 278 279 280 283 283 283 280 280
297 295 293 290 287 286 285 284 283 282 282 281 281 281 281 281 280 278 277 276 276 276 275 276 275 274 276 284 286 285 280 279 279 280 279 280 281 284 287 284 280 279 279
296 293 290 288 286 285 285 284 282 282 281 281 281 281 282 280 278 277 276 276 276 277 277 276 275 278 275 282 285 285 281 279 280 280 280 284 283 286 287 282 279 276 277
292 290 289 287 285 285 284 282 282 281 281 281 282 281 280 278 277 276 276 276 275 276 274 275 275 275 277 278 285 286 282 280 281 279 280 281 285 286 285 285 278 278 282
289 288 285 283 284 285 284 282 281 280 281 281 280 279 277 279 278 276 275 274 274 274 274 274 276 277 276 282 283 285 286 285 280 280 280 281 285 284 283 281 283 284 282
286 285 283 282 282 284 286 283 280 279 280 280 278 277 277 277 277 275 274 274 274 274 274 276 276 276 279 276 283 285 285 285 282 281 283 284 283 282 279 280 282 281 276
283 283 283 281 279 281 283 281 279 279 279 276 276 276 277 275 275 277 276 274 274 274 276 276 276 276 277 277 279 280 280 283 282 282 280 280 280 279 279 277 277 276 276
284 284 282 280 277 278 278 278 278 278 277 276 276 276 276 274 274 275 274 274 275 277 277 277 277 276 276 278 283 283 281 281 281 281 276 274 274 274 274 274 275 275 275
282 280 279 278 277 277 277 277 277 277 276 276 277 277 275 274 275 274 274 280 282 283 283 283 281 279 282 283 284 284 284 284 282 276 273 273 273 272 273 273 273 274 275

GFSMW_sfc_thetae_045.txt.gz
Theta_e
307 310 311 311 310 311 313 316 322 327 326 320 318 316 313 310 311 306 305 303 303 299 295 295 295 295 294 293 293 294 293 293 294 294 294 295 295 297 297 294 296 294 293
304 308 308 308 309 311 312 316 322 323 322 321 317 313 311 309 308 306 302 300 299 296 295 295 294 294 293 292 292 293 293 292 293 290 291 289 292 294 293 294 294 292 292
301 304 306 308 310 311 311 315 317 317 315 310 308 305 304 304 302 300 299 297 295 293 294 294 293 293 293 291 291 292 292 290 291 291 290 288 286 287 291 292 293 291 290
300 302 305 307 309 312 313 316 313 311 309 310 308 307 307 304 301 299 297 295 295 291 293 292 292 292 292 291 291 290 290 291 288 290 289 290 289 284 284 289 290 289 288
299 300 303 307 310 313 313 313 309 308 308 309 309 309 305 301 298 294 292 292 291 292 291 291 291 290 290 290 290 289 289 289 289 288 288 287 288 288 285 281 284 286 288
298 301 305 307 310 311 311 308 307 305 306 307 307 305 300 296 292 291 290 289 289 290 290 290 290 290 289 289 289 288 288 287 287 287 287 286 285 284 283 282 283 283 285
300 302 303 306 308 309 307 306 305 302 303 302 301 299 295 294 291 291 289 288 288 288 288 289 289 289 289 288 288 288 288 287 287 286 286 287 286 286 285 283 282 282 284
299 302 304 307 308 308 306 305 303 301 301 300 297 296 295 293 291 289 289 289 288 288 288 288 288 288 288 287 288 288 288 287 287 285 285 286 286 286 286 284 282 281 282
297 301 305 307 307 306 305 304 302 300 299 296 295 293 292 290 289 289 289 288 288 287 287 288 287 287 287 287 287 287 286 286 286 286 285 285 286 286 286 286 285 282 278
296 301 305 306 306 306 303 302 300 297 296 294 292 290 288 289 288 288 287 287 287 287 287 287 287 286 286 286 285 285 285 285 286 286 285 285 285 286 286 285 285 284 282
298 303 304 303 302 300 299 297 295 293 292 290 288 288 287 287 287 287 287 286 287 287 286 286 286 285 285 285 284 284 285 284 285 285 285 284 285 285 285 285 284 283 283
301 301 299 298 297 296 295 294 293 290 289 289 288 287 286 286 286 285 286 286 286 286 286 285 285 284 284 284 283 283 284 284 284 284 284 284 284 284 284 284 283 283 284
296 295 295 295 294 293 292 292 290 287 287 287 286 286 285 285 285 285 285 286 285 285 285 284 284 283 283 283 283 284 285 285 285 284 283 283 283 282 283 283 283 283 283
294 295 294 292 291 291 290 289 287 287 287 287 286 285 285 285 285 285 285 285 285 284 284 283 283 283 282 283 284 285 286 285 285 284 284 284 283 283 283 283 284 284 283
293 293 291 290 289 289 288 286 286 286 287 286 285 284 284 284 284 284 284 284 284 283 283 283 282 282 283 283 286 287 286 285 284 284 284 284 285 287 287 285 284 283 283
293 292 290 289 288 287 287 286 285 286 287 285 284 284 284 284 284 283 283 283 283 282 282 281 281 281 282 285 288 288 286 285 284 283 284 284 284 284 287 286 287 286 284
292 290 290 289 288 287 287 285 285 286 285 284 284 284 284 283 283 283 283 282 282 282 281 281 281 280 280 285 288 288 286 284 284 283 283 283 283 285 283 285 287 287 287
293 291 290 288 287 287 286 286 286 285 284 284 283 284 283 283 283 283 282 281 281 281 280 280 280 280 280 285 286 287 285 284 284 283 283 282 283 284 284 284 285 284 283
294 292 291 288 287 286 286 285 285 284 284 283 283 283 283 282 282 281 281 281 280 280 280 280 279 279 281 284 286 286 284 283 283 283 283 283 283 285 287 285 282 281 281
294 291 289 288 287 286 286 285 284 284 283 283 282 283 283 282 281 281 280 280 280 280 280 280 280 280 280 283 285 285 284 282 283 284 283 285 284 286 287 283 282 279 279
292 290 289 287 286 286 286 284 284 282 282 283 282 282 282 281 280 280 280 279 279 279 278 279 280 280 281 282 284 285 284 283 283 282 282 283 285 286 285 285 281 280 283
290 289 286 285 286 286 285 284 282 282 283 282 282 281 281 281 280 279 278 278 278 278 278 279 280 281 281 282 283 285 285 285 282 282 283 283 285 284 283 282 282 284 283
288 287 285 284 285 286 286 282 281 282 281 281 280 280 280 279 279 278 278 278 278 278 278 279 279 279 281 280 283 284 285 285 283 283 284 284 283 282 280 280 282 281 277
285 285 284 284 283 285 284 282 281 282 281 280 279 279 279 278 278 279 279 278 278 278 279 279 278 279 279 280 281 282 283 284 283 283 282 281 280 280 279 278 278 277 277
284 285 283 281 280 282 281 281 281 281 279 279 279 279 278 278 278 278 278 279 279 280 280 280 279 278 278 280 283 283 282 283 283 282 279 276 276 275 275 276 276 277 277
282 281 280 279 279 280 279 279 281 281 279 278 279 278 278 277 278 277 277 280 282 282 282 282 281 281 282 283 284 284 284 284 283 278 275 274 274 274 274 274 274 275 276

GFSMW_sfc_thetae_048.txt.gz
Theta_e
312 314 316 318 320 321 321 321 322 327 332 334 334 336 334 329 324 322 318 317 311 306 299 298 299 302 301 300 300 299 299 298 298 298 299 300 300 301 301 300 300 298 297
305 309 313 316 317 319 320 321 323 327 332 333 332 331 325 315 313 313 311 308 307 302 302 302 299 301 299 298 298 298 297 296 297 294 296 295 297 299 300 298 298 296 297
303 304 307 313 316 317 319 320 323 328 331 331 329 321 313 307 305 305 305 303 299 298 298 299 300 297 298 296 297 297 296 295 296 295 294 293 292 292 297 296 295 295 294
304 305 305 307 312 316 321 320 323 327 329 325 319 316 317 308 304 303 302 298 297 296 296 296 298 298 297 296 295 295 295 296 293 295 293 293 292 289 288 294 294 293 292
304 304 305 307 309 315 320 320 322 324 322 322 322 321 316 307 301 298 296 296 295 296 297 297 297 296 296 295 295 294 294 294 294 293 292 292 292 291 288 286 290 292 293
303 304 306 308 309 313 319 321 320 320 320 321 321 321 310 301 296 295 294 294 295 295 295 295 295 295 295 294 294 294 293 292 293 292 291 290 289 288 287 286 287 287 290
302 304 305 306 309 311 318 318 318 316 317 319 319 314 307 302 298 296 293 291 293 291 293 294 294 294 294 293 294 293 293 293 292 291 290 291 290 289 288 287 286 286 288
302 303 304 307 309 313 316 316 316 314 315 316 315 310 301 298 295 293 291 292 293 294 294 293 293 293 293 293 293 293 293 292 292 289 290 289 290 290 289 287 285 283 285
302 303 305 308 310 313 315 315 314 312 312 311 308 303 298 294 291 290 291 291 292 292 293 293 292 292 292 291 291 292 291 291 291 290 290 289 290 290 289 289 288 285 281
304 306 305 307 311 314 315 315 313 310 309 306 304 300 295 292 292 291 291 293 292 292 292 292 292 291 291 290 290 290 290 289 290 290 289 289 289 289 289 289 288 287 284
305 306 308 306 311 314 313 311 309 306 304 303 300 297 293 291 291 291 293 293 292 292 292 291 291 290 289 289 289 289 289 288 289 289 288 288 288 288 287 287 287 286 285
303 306 307 308 310 310 309 307 305 303 301 298 295 292 290 291 292 292 292 292 291 291 291 290 289 289 288 288 288 288 288 288 288 288 288 287 287 286 287 286 285 285 286
303 304 306 306 306 306 305 303 301 298 296 294 291 289 290 292 292 291 291 291 291 290 290 289 288 287 287 287 287 287 288 289 288 288 287 287 286 285 286 286 286 286 285
300 302 303 303 303 303 301 298 293 292 292 291 290 290 291 291 291 291 290 290 290 289 288 288 287 287 286 286 287 288 289 289 288 288 287 287 286 285 285 286 285 285 285
298 299 300 299 298 295 293 290 289 289 290 289 291 291 291 290 290 290 289 289 289 288 288 287 286 286 287 286 288 289 289 288 288 288 287 287 287 287 287 285 285 285 284
295 295 295 294 292 290 288 288 288 288 290 290 289 289 289 289 289 289 288 288 288 287 287 286 286 286 285 285 288 288 288 288 287 286 286 286 286 286 287 288 288 286 284
294 293 292 291 290 289 288 287 288 290 289 289 288 288 288 288 288 288 288 287 287 287 286 285 285 285 285 285 287 288 287 287 286 286 285 285 285 286 285 286 287 288 289
294 292 291 290 289 289 289 288 289 290 289 288 287 288 287 287 287 287 286 285 286 286 286 285 285 285 284 285 286 287 287 286 286 286 286 285 285 285 285 285 286 286 285
294 293 292 291 291 290 289 290 289 289 289 287 287 287 287 286 287 285 284 285 286 285 285 285 284 284 285 284 286 286 286 285 285 286 286 286 285 286 287 285 285 283 283
296 293 292 291 290 290 290 289 289 288 287 286 286 287 287 287 285 284 285 285 285 285 285 284 284 283 284 284 285 286 285 284 284 285 286 286 286 286 287 285 283 281 281
292 291 291 290 289 290 290 288 288 286 287 286 287 287 286 284 284 285 285 285 285 284 284 284 284 284 284 284 285 285 285 284 284 284 284 285 286 287 286 285 282 281 283
290 290 288 288 289 290 289 288 287 286 286 285 284 283 283 283 285 285 284 284 284 284 283 283 283 284 284 284 284 285 285 286 284 283 284 285 286 285 284 283 283 284 284
292 292 290 288 290 290 290 285 283 284 283 283 282 282 284 285 285 285 284 284 284 283 282 282 282 282 283 283 284 285 286 286 284 284 285 285 284 283 282 282 282 282 280
290 290 289 288 288 287 285 283 283 283 283 282 282 284 284 284 284 284 284 284 283 282 282 281 281 281 282 282 283 284 284 285 284 285 284 283 282 281 281 280 280 280 280
289 289 289 288 285 284 283 283 283 283 282 283 283 284 284 284 283 283 284 284 284 283 281 281 281 280 280 281 284 284 283 284 284 283 281 279 278 278 278 278 279 280 279
287 286 286 285 283 282 282 282 284 284 283 283 283 283 283 283 283 283 283 281 282 282 282 282 281 282 283 283 284 284 284 284 283 279 277 277 277 277 277 276 277 278 278

GFSMW_sfc_thetae_051.txt.gz
Theta_e
312 314 316 318 320 321 322 323 324 324 327 332 335 336 336 335 330 333 335 332 328 318 310 307 307 307 305 304 303 302 301 299 299 300 302 302 301 302 302 302 300 300 299
307 310 313 315 317 320 322 323 324 325 327 333 335 336 334 321 321 320 320 318 312 307 305 305 305 302 302 301 301 301 299 298 298 296 299 298 298 300 301 301 299 298 298
306 307 308 313 317 318 320 322 323 325 329 333 335 330 318 314 311 310 308 308 307 305 305 302 300 301 302 300 300 299 300 298 297 296 295 294 294 293 298 298 298 296 297
306 307 308 309 312 317 322 323 324 325 329 333 332 323 317 311 307 306 304 303 302 302 302 301 300 298 300 299 298 297 297 298 294 297 294 295 292 289 288 296 296 296 293
306 306 308 309 310 314 320 323 323 325 329 331 330 323 318 315 306 301 299 297 298 298 298 298 298 296 298 298 297 296 295 294 295 294 292 292 292 292 289 287 291 293 294
304 305 307 309 310 313 318 323 323 324 329 330 324 321 321 307 300 297 295 296 298 299 297 298 298 298 297 296 296 295 295 293 293 293 291 290 289 289 288 287 288 288 290
303 304 305 306 308 310 313 319 321 322 325 323 323 323 312 306 302 298 295 295 296 295 295 297 296 296 296 295 295 295 295 294 293 291 291 291 290 290 289 288 287 286 288
303 304 304 305 307 310 312 315 319 321 321 322 322 319 311 307 301 297 295 293 294 293 296 295 295 295 294 294 294 294 294 294 293 291 291 290 290 291 290 288 286 283 285
303 304 305 307 307 308 311 315 318 319 319 321 320 314 307 301 298 294 293 293 294 294 295 295 294 293 293 293 293 292 291 291 291 291 291 290 291 291 290 290 288 285 281
305 306 307 308 310 310 312 316 317 317 318 319 313 306 301 296 294 292 291 292 292 293 293 293 293 292 292 291 291 291 290 289 291 290 290 290 290 290 290 289 288 287 284
304 305 307 309 310 310 313 316 316 315 315 312 306 301 295 293 293 292 292 292 293 293 293 292 292 291 291 290 290 289 289 289 289 290 289 289 289 288 288 288 287 286 285
306 306 307 309 310 309 314 315 313 311 310 306 302 297 293 292 292 292 292 294 292 293 292 292 291 290 289 289 288 288 289 288 288 289 288 288 288 287 287 287 286 286 286
303 305 307 307 309 310 313 311 309 307 304 302 298 293 293 292 292 291 292 292 292 291 291 290 289 289 288 288 288 288 288 289 289 289 288 287 287 286 286 286 285 286 286
301 303 305 307 309 310 309 307 304 302 299 296 293 293 292 291 291 291 292 292 291 290 290 289 289 288 287 287 288 289 289 289 289 289 288 288 287 285 285 285 285 285 284
299 301 303 305 306 305 304 301 298 297 295 293 293 291 291 291 290 291 291 291 290 289 289 288 288 287 287 287 287 289 289 288 288 288 288 287 288 288 288 286 285 285 283
297 300 301 303 302 299 296 293 293 292 292 292 291 290 290 290 291 290 290 289 289 288 288 287 287 287 286 286 288 288 287 287 287 286 286 287 288 287 288 288 288 287 284
296 297 298 295 294 292 292 290 290 291 291 289 289 289 290 290 290 290 289 288 288 288 287 287 286 286 286 285 287 288 287 286 286 286 286 285 286 287 285 287 288 287 288
294 294 292 291 290 290 290 290 290 289 288 288 289 290 289 289 289 289 288 287 287 287 287 286 286 286 286 285 286 287 286 286 286 286 286 285 285 286 286 285 284 285 285
294 293 291 290 289 289 290 289 289 288 288 288 289 289 289 288 288 286 286 286 286 286 286 286 285 285 285 285 285 286 285 285 285 286 286 286 285 287 288 285 283 283 283
292 290 290 290 290 290 290 289 289 288 288 288 288 288 288 287 286 286 285 287 287 285 285 285 285 285 284 285 285 285 284 283 284 285 285 287 286 288 288 285 282 280 281
291 292 291 290 290 291 292 290 290 288 288 288 288 288 287 286 286 286 286 286 285 285 285 285 285 285 285 284 285 285 284 283 283 283 283 284 287 287 287 287 282 281 283
291 291 290 290 292 293 291 288 286 287 287 287 285 284 284 285 286 286 286 285 285 285 284 284 284 285 285 285 285 285 286 286 283 282 283 284 286 287 286 284 284 285 284
290 290 288 288 290 291 291 287 286 286 285 284 283 283 284 286 286 286 285 285 284 283 283 282 282 282 283 283 285 285 286 286 284 284 285 286 286 285 283 283 284 283 280
293 292 291 290 290 289 287 284 284 284 283 282 283 284 285 285 285 285 284 284 284 283 282 281 281 281 281 282 283 283 284 285 284 284 283 283 283 283 282 281 280 280 280
292 292 290 289 285 284 283 283 283 284 282 283 284 285 285 284 284 284 284 284 284 282 281 281 280 279 279 281 284 283 282 283 283 283 280 279 278 278 278 278 279 279 279
291 290 287 284 283 282 282 283 284 284 284 284 284 284 284 284 284 283 283 283 282 282 282 282 281 281 283 284 284 284 284 284 284 279 277 277 277 277 277 276 276 277 278

GFSMW_sfc_thetae_054.txt.gz
Theta_e
306 307 309 309 310 312 316 319 318 318 321 324 332 333 332 333 333 335 334 332 324 310 306 304 303 302 301 299 298 297 296 293 293 292 293 294 296 295 296 296 294 294 294
304 306 307 308 310 311 312 315 316 318 319 322 328 331 323 319 317 319 322 318 311 307 302 301 301 300 299 298 297 297 294 293 292 289 292 290 292 294 295 295 293 291 291
302 303 303 306 307 309 311 315 316 317 320 322 325 317 316 312 309 307 306 306 306 306 305 302 302 302 301 298 297 296 295 292 291 290 289 287 286 286 291 292 292 289 289
302 302 302 302 304 309 310 313 316 316 319 324 323 319 317 314 309 306 305 303 304 303 303 303 302 300 299 296 295 295 293 294 291 292 292 288 287 283 282 288 288 288 289
300 301 302 303 304 304 310 312 314 317 317 325 324 319 314 307 305 301 299 300 300 300 301 299 298 298 297 294 294 291 290 290 290 289 288 287 287 286 283 282 284 287 288
296 297 300 303 302 303 304 310 313 315 318 324 322 316 308 304 299 297 295 296 296 297 297 298 298 297 295 293 293 291 290 289 289 288 287 287 285 284 283 281 281 282 285
295 297 297 299 300 300 304 306 313 313 319 322 319 316 305 302 298 296 295 295 295 296 296 297 296 297 295 293 292 291 290 289 288 287 286 287 287 287 285 283 281 281 283
296 297 296 299 300 302 303 304 310 313 319 318 316 308 303 301 298 297 296 295 294 295 296 295 295 294 293 291 291 290 289 289 288 286 286 286 286 286 286 284 281 280 280
297 296 297 299 300 301 303 305 310 314 316 316 311 306 303 300 298 297 296 295 294 294 294 293 292 291 291 289 290 289 287 287 286 285 285 285 286 286 285 285 284 280 278
300 301 301 302 303 303 304 305 311 313 314 315 310 304 299 296 295 294 293 293 293 293 293 292 291 290 288 288 288 287 286 285 285 286 285 285 285 285 284 284 284 282 280
301 303 304 305 303 304 304 307 311 313 316 308 302 296 293 293 294 293 292 292 292 292 291 291 290 288 288 287 286 286 286 285 285 285 285 285 285 284 283 283 282 281 281
302 303 303 305 304 303 304 308 312 314 305 301 294 292 291 292 292 291 291 293 291 292 291 290 289 287 286 286 285 285 285 285 284 285 284 284 286 283 283 282 281 281 281
300 300 301 302 304 305 305 310 311 305 301 295 292 292 292 292 291 291 291 292 291 290 289 288 287 286 286 285 284 285 285 285 285 285 284 284 283 282 281 281 280 281 284
298 298 300 303 303 306 310 308 303 300 295 292 291 292 292 291 291 291 291 290 290 289 287 287 286 286 285 285 285 286 285 285 285 285 285 284 283 282 281 282 281 282 281
297 299 302 303 306 305 304 300 296 293 292 291 291 291 291 290 290 290 289 289 289 287 287 286 285 285 286 286 286 286 285 283 283 284 284 284 286 289 288 284 281 281 281
296 298 301 301 299 297 296 294 291 291 291 291 291 290 290 289 289 289 288 287 286 285 285 284 285 284 286 287 288 287 284 283 282 282 283 283 286 285 289 289 289 287 283
296 297 294 292 292 291 291 289 289 290 290 290 290 289 289 289 288 288 287 285 284 284 283 284 284 284 284 287 287 288 284 282 282 281 281 282 285 285 282 286 288 287 288
295 292 289 288 288 290 290 290 290 290 289 289 289 290 288 287 287 286 285 284 284 284 283 284 283 283 284 286 286 287 282 281 281 281 281 281 281 282 284 283 279 281 282
292 290 289 288 289 289 290 289 289 289 288 288 288 288 287 286 285 284 283 283 284 284 283 283 282 281 281 285 285 285 281 281 280 282 282 283 282 286 288 284 281 281 281
289 288 288 289 289 289 290 289 288 288 287 287 287 287 287 285 284 283 284 285 284 283 283 282 281 284 280 285 286 285 281 279 280 281 282 286 285 287 288 284 282 279 279
289 290 290 289 290 291 291 288 288 287 287 287 287 286 284 284 284 284 284 284 283 282 281 280 280 280 281 280 286 286 282 280 281 280 280 281 287 287 288 287 281 280 283
291 291 290 290 292 293 291 288 286 287 286 285 284 283 284 285 285 284 283 282 281 280 279 279 278 279 279 285 285 286 286 286 281 280 280 281 286 287 286 284 284 285 284
290 291 291 291 293 291 287 283 283 284 283 283 282 283 284 285 284 282 281 280 280 279 278 278 277 277 279 278 285 286 286 286 282 282 284 286 285 285 282 283 284 283 277
288 289 288 287 286 286 284 283 283 283 283 283 283 284 283 282 281 281 281 280 279 278 277 277 276 276 276 277 278 281 279 283 282 283 280 283 282 282 281 279 279 277 277
289 289 286 283 281 282 282 282 283 284 283 283 283 282 281 280 279 279 279 278 279 279 277 277 276 275 275 278 283 283 281 281 283 283 278 276 275 276 276 276 277 277 277
289 285 283 282 281 281 282 283 284 284 284 282 281 280 279 279 279 278 278 283 283 282 282 282 280 279 282 284 284 284 285 285 284 278 275 274 275 275 275 275 275 276 276

GFSMW_sfc_thetae_057.txt.gz
Theta_e
302 303 304 308 307 309 313 314 319 324 333 335 334 333 331 330 331 332 329 328 321 314 310 306 303 301 299 298 297 295 294 291 292 291 293 293 294 293 294 294 293 293 293
300 303 303 303 305 306 307 313 315 319 326 332 334 332 324 318 320 326 325 321 311 309 305 302 301 298 297 296 295 295 293 293 293 291 292 290 291 292 294 293 293 290 290
298 299 300 302 303 304 307 309 312 314 318 322 321 317 315 313 310 307 306 306 306 307 304 300 300 299 299 298 297 296 295 293 291 290 290 286 288 287 291 292 291 288 288
298 299 299 299 300 304 306 308 312 313 315 321 321 322 322 319 311 305 306 305 304 303 303 302 301 300 302 300 295 295 293 294 291 290 291 288 286 283 282 287 288 288 288
297 299 299 301 301 301 304 305 309 313 314 319 322 323 320 308 305 304 302 301 303 304 305 303 300 299 300 296 294 293 292 292 291 290 288 286 286 284 283 281 284 286 286
294 296 298 300 300 299 302 305 309 310 312 318 320 320 311 306 304 301 298 300 300 299 300 299 299 298 298 297 296 293 290 288 288 288 286 286 285 284 282 281 281 281 283
293 295 294 296 297 299 300 302 305 309 311 318 318 314 310 308 305 301 298 297 297 296 297 297 296 296 297 297 296 293 291 288 287 286 286 286 286 286 284 282 280 280 281
293 293 294 296 297 298 299 301 302 308 314 316 312 308 306 304 301 300 300 299 299 298 295 296 296 296 296 296 293 291 290 288 287 285 285 286 286 286 285 283 280 278 279
298 298 299 299 297 297 300 300 301 309 314 311 306 304 302 301 300 299 298 298 296 295 295 294 294 294 293 293 291 288 287 286 286 285 285 285 285 285 284 284 283 280 276
300 300 300 302 301 300 300 302 303 309 312 307 304 302 300 300 298 297 296 295 295 294 293 293 293 292 291 290 289 288 286 286 286 286 284 284 284 284 283 283 282 281 279
299 300 303 302 302 303 301 301 304 310 307 304 300 297 297 296 295 294 294 294 294 293 292 292 291 290 288 288 287 287 286 285 285 284 285 284 284 283 282 282 281 280 279
299 300 300 301 301 302 303 302 305 310 301 298 296 294 293 293 293 293 294 293 292 292 291 290 289 289 287 287 286 285 285 285 284 284 284 284 286 282 282 281 280 279 279
299 298 297 298 299 301 302 303 308 299 296 294 293 293 292 292 290 291 292 292 291 291 291 289 288 287 287 286 285 285 285 285 285 285 284 283 282 281 281 280 279 280 282
298 298 300 300 301 303 304 306 299 295 293 292 292 291 291 290 291 291 291 292 292 291 288 288 287 287 286 286 286 286 285 285 285 284 284 283 282 281 280 280 280 281 279
297 298 300 297 295 299 300 297 295 293 293 292 291 291 291 291 291 291 291 290 290 288 287 286 286 286 286 286 285 286 285 284 283 283 283 283 285 289 287 284 281 280 279
296 293 293 294 292 291 292 292 292 292 293 292 291 290 291 291 290 289 289 288 287 286 286 285 285 283 286 290 290 287 284 283 282 281 282 282 285 285 289 289 289 287 283
294 290 288 289 289 291 291 290 290 291 290 289 289 290 290 289 289 289 287 286 285 285 284 284 283 283 285 289 288 288 283 282 281 280 280 281 284 284 281 285 288 287 288
290 288 288 288 289 290 290 290 290 289 289 289 289 289 289 288 287 286 285 285 285 283 282 282 283 283 286 288 287 287 281 281 280 280 280 279 280 281 284 282 281 282 281
288 288 288 288 288 288 289 289 288 288 288 288 288 288 287 287 286 285 285 284 283 282 283 284 283 281 283 286 286 284 281 280 279 281 281 282 281 286 288 284 280 280 280
288 288 288 288 287 288 289 288 287 287 287 287 287 287 287 286 285 284 284 283 284 284 284 282 281 284 280 285 286 284 281 279 279 280 280 285 284 287 288 284 282 278 278
289 290 290 289 289 289 289 288 287 285 286 287 287 286 286 285 284 284 284 284 283 282 280 280 279 279 280 280 286 286 281 280 279 279 279 280 286 287 287 287 281 280 283
289 290 289 289 289 291 289 287 285 285 286 287 286 285 285 286 285 284 283 282 281 279 278 278 278 278 278 285 285 287 286 286 280 279 279 280 286 286 285 283 284 285 284
288 290 288 288 289 290 289 287 286 285 284 284 284 284 284 284 284 282 281 280 279 278 277 277 276 276 278 277 284 285 286 285 282 281 283 286 285 283 280 282 283 282 277
291 292 292 290 288 287 286 284 284 284 283 283 283 284 283 281 281 280 280 278 278 277 277 277 276 275 276 276 278 280 279 282 282 283 279 282 281 281 280 278 278 277 276
289 289 288 284 283 283 282 283 284 284 284 283 283 282 281 279 278 279 278 278 278 278 277 277 277 275 275 278 283 283 281 281 283 282 277 275 275 275 275 276 276 276 276
286 285 283 281 280 281 282 283 284 285 283 282 280 279 279 279 278 278 277 284 284 283 283 282 280 279 282 284 284 284 285 285 283 276 274 273 274 274 274 274 274 275 275

GFSMW_sfc_thetae_060.txt.gz
Theta_e
302 302 304 304 305 306 307 311 325 330 334 333 332 330 330 329 327 327 324 323 321 316 312 309 303 301 301 298 296 294 292 290 290 290 291 295 294 293 295 295 292 293 292
297 300 302 301 301 303 304 307 314 328 333 334 334 332 331 323 325 325 326 324 318 314 310 306 302 300 298 296 295 294 292 293 291 289 291 291 292 293 292 293 292 290 290
298 297 298 300 301 301 302 304 310 318 331 334 326 318 317 316 314 314 315 314 313 314 308 304 301 299 302 296 295 296 297 293 291 290 290 287 287 286 289 289 288 287 287
296 297 298 298 299 300 302 305 307 311 317 326 328 323 323 317 315 309 308 304 310 310 307 302 301 301 300 298 301 299 295 293 291 291 290 289 288 285 283 287 288 288 287
295 296 297 298 299 299 299 302 305 309 311 323 327 326 325 315 306 307 305 306 304 306 307 305 302 303 301 299 298 297 294 293 291 291 287 285 285 285 283 282 284 286 286
293 294 297 298 298 298 299 302 303 306 309 316 323 324 317 308 305 302 302 303 303 304 306 305 304 302 298 297 296 295 294 291 289 289 288 286 284 284 283 282 282 282 284
292 293 294 295 296 296 299 300 302 305 307 309 317 321 315 311 309 303 303 302 301 302 300 302 300 298 297 296 295 294 293 290 289 287 286 286 285 285 284 282 281 280 282
296 298 298 298 296 296 297 298 300 301 305 310 315 316 313 312 309 306 303 302 300 300 300 300 300 298 296 295 294 293 293 292 287 286 285 285 285 285 285 283 281 278 278
298 299 300 300 300 300 299 297 298 300 308 311 308 308 309 305 303 301 302 301 300 300 299 300 298 295 295 294 293 292 290 289 288 285 286 284 284 285 284 283 282 280 276
298 299 300 300 301 301 301 301 301 299 309 304 303 303 303 302 301 301 300 300 300 299 298 297 295 294 293 292 291 289 288 287 287 285 284 284 284 283 283 282 282 281 279
297 298 299 300 301 301 301 301 301 301 304 302 301 299 298 299 299 299 299 300 298 296 295 293 293 291 291 291 289 287 287 286 284 284 284 284 283 283 282 281 281 280 279
298 298 298 299 299 300 300 301 302 303 304 300 299 298 297 298 297 297 297 296 294 295 293 291 290 290 289 289 287 287 286 286 284 284 283 283 285 282 281 280 280 279 279
297 296 296 296 297 297 300 301 302 303 299 296 294 294 294 293 293 293 293 294 293 292 291 290 289 288 287 286 286 286 286 286 285 284 283 283 282 281 280 280 279 279 281
297 295 296 294 291 292 299 301 298 297 296 295 293 292 292 292 293 292 292 292 291 290 290 288 287 287 287 287 287 287 286 285 284 283 283 283 282 281 280 280 279 280 279
297 295 293 294 291 290 290 292 292 292 294 294 293 291 293 292 291 291 291 291 289 288 287 286 286 286 287 287 287 286 285 283 282 282 283 282 284 288 287 284 281 280 279
294 290 289 292 291 290 289 291 291 293 294 292 291 291 291 291 290 290 288 288 287 287 287 286 286 286 289 291 291 286 283 283 282 281 280 281 284 284 288 288 289 287 282
290 288 287 288 290 291 291 290 291 292 291 290 290 290 289 288 288 288 287 287 286 286 285 285 285 285 287 290 290 288 283 281 280 279 279 280 283 283 280 285 288 287 289
289 287 287 288 288 289 289 289 289 289 289 288 288 289 289 288 288 287 286 285 286 285 285 284 284 284 287 289 288 287 280 279 279 280 279 279 280 281 284 282 280 280 281
288 287 288 288 288 288 289 288 288 288 288 288 288 288 288 286 286 285 285 285 285 284 283 284 283 284 284 288 287 284 280 280 280 280 280 281 280 285 288 283 280 280 280
288 287 288 288 287 288 288 287 286 287 287 287 287 287 285 285 285 286 285 285 285 284 284 282 282 284 280 286 286 284 280 280 280 280 280 284 284 287 288 284 280 278 278
289 290 289 288 288 289 289 287 286 285 286 287 286 285 285 285 285 285 285 284 283 282 281 280 279 278 280 279 286 287 281 280 280 279 280 280 286 287 287 286 279 279 282
289 289 288 289 290 290 289 286 284 285 286 285 285 285 285 286 286 284 283 283 282 280 278 277 277 278 278 284 285 286 286 285 280 279 279 280 286 285 284 282 283 284 283
289 289 288 289 289 289 288 285 285 285 286 285 285 285 286 286 285 282 281 279 278 277 277 278 277 276 278 277 283 285 285 285 281 280 283 285 284 282 280 281 282 282 276
289 289 289 288 288 289 288 286 287 287 286 285 284 284 284 282 280 279 279 278 278 277 277 277 275 275 276 277 278 280 279 283 282 282 277 280 280 280 279 278 277 277 276
291 291 290 287 285 285 285 285 285 284 283 283 283 282 280 278 278 279 278 278 277 278 276 276 277 275 275 278 283 282 281 280 281 279 275 274 274 274 274 275 275 275 275
291 288 285 281 282 281 282 282 285 285 285 284 280 279 278 278 278 277 277 285 284 284 283 283 280 279 282 284 284 284 284 283 282 275 273 272 273 273 273 273 273 274 274

GFSMW_sfc_thetae_063.txt.gz
Theta_e
302 300 302 303 303 303 305 310 326 332 334 333 332 330 329 329 327 327 326 323 323 321 318 312 307 304 303 300 297 294 292 290 290 291 292 292 293 291 292 292 292 293 291
298 298 300 300 301 302 302 305 322 329 333 333 333 331 331 331 329 325 324 323 322 319 315 311 307 304 300 296 295 294 292 290 289 289 290 289 291 291 291 292 292 290 290
298 298 297 299 299 299 301 302 307 323 330 333 331 320 321 319 316 318 321 321 320 318 317 311 307 303 302 299 297 295 295 292 292 291 291 287 287 286 287 288 288 287 287
296 296 297 297 297 298 299 301 303 309 326 332 327 325 325 323 325 326 319 310 316 316 312 308 306 303 302 300 303 303 298 296 294 293 292 288 287 284 282 285 286 286 286
293 294 295 297 298 298 297 299 301 304 313 327 329 326 325 325 313 309 309 304 310 311 310 306 304 305 306 306 305 303 298 296 295 291 288 286 286 284 282 281 282 285 285
294 295 295 295 295 296 296 297 300 302 306 316 327 327 325 311 311 309 309 304 305 306 307 306 306 305 304 303 303 302 298 293 293 290 290 288 287 284 283 281 280 281 283
296 297 298 298 298 297 295 297 299 302 303 308 318 323 320 313 313 312 312 305 303 302 303 305 305 304 302 301 299 297 293 292 291 290 288 289 287 287 283 282 280 279 281
296 298 298 299 299 300 299 297 297 297 299 305 311 316 317 315 313 310 310 310 307 304 302 302 304 302 300 297 297 294 293 291 289 288 288 287 287 285 284 282 280 278 278
296 297 299 299 300 300 301 300 300 300 299 303 308 311 310 309 307 305 306 305 303 302 302 302 300 299 298 295 294 292 292 289 289 287 287 287 286 284 283 283 282 280 276
296 297 298 299 300 300 301 301 302 301 300 304 305 305 304 303 301 302 301 300 301 301 300 300 298 296 295 293 292 290 289 288 288 288 286 286 284 283 282 282 282 281 279
296 297 298 299 299 298 299 300 301 301 301 303 301 299 298 298 299 300 300 300 300 299 298 298 296 293 292 291 290 289 288 287 287 286 286 285 284 283 282 281 280 280 279
297 297 296 296 297 296 295 296 299 300 301 301 298 297 297 298 297 297 298 299 297 297 297 295 293 292 291 290 288 287 287 286 285 285 285 284 285 283 281 280 279 279 278
297 295 295 295 291 290 290 293 297 298 301 298 296 295 294 296 298 298 300 298 297 294 293 292 290 289 288 287 287 286 286 286 286 286 285 284 283 282 282 279 278 278 280
297 296 295 291 288 288 289 290 291 296 294 294 293 292 292 295 295 294 295 294 292 291 290 289 288 287 288 288 288 287 286 286 285 285 284 283 282 281 279 279 279 280 278
296 291 292 290 288 288 289 290 290 290 291 292 293 293 294 292 293 291 291 290 289 288 287 287 287 287 288 288 287 287 285 284 283 283 282 283 285 287 286 284 280 280 279
289 290 290 289 290 288 290 291 289 291 292 291 290 291 291 291 289 288 287 287 287 287 287 287 288 289 291 292 290 286 284 283 282 281 281 280 283 284 287 288 288 287 282
289 288 287 287 287 290 291 289 290 291 290 289 289 289 289 288 288 288 288 287 286 287 286 286 287 288 290 291 290 287 283 281 280 280 279 280 282 283 280 285 288 287 289
287 287 287 287 288 289 289 290 289 289 288 288 288 289 289 288 288 287 286 286 286 286 286 286 285 285 287 290 290 287 282 280 279 279 279 279 279 281 283 282 281 281 281
286 287 288 288 288 288 289 289 288 289 288 288 288 289 288 287 286 285 285 285 285 285 284 285 284 285 285 289 288 284 280 281 279 280 280 281 280 285 287 283 281 280 280
287 287 287 288 287 287 288 288 287 288 287 287 287 287 287 286 285 285 285 285 285 284 284 283 283 286 281 287 286 285 280 279 279 280 280 284 283 287 288 283 278 276 277
289 289 289 287 288 289 288 286 286 286 287 287 287 286 286 285 285 285 285 284 284 283 280 279 278 278 280 280 286 287 281 280 280 280 280 280 285 287 287 285 277 278 281
289 289 289 289 290 289 288 285 284 286 287 286 285 285 285 286 285 285 284 283 281 279 277 277 276 277 277 284 284 285 286 285 280 279 279 280 285 285 284 282 283 284 283
289 289 289 288 289 288 287 285 285 286 286 286 285 285 286 286 286 283 280 279 279 277 276 277 276 276 278 277 284 285 285 285 282 281 283 283 282 281 279 281 282 282 275
288 289 289 288 288 288 288 286 287 287 287 285 285 286 286 283 280 279 278 278 277 277 277 277 275 275 276 277 278 280 279 282 281 281 276 279 279 279 278 277 277 276 275
289 290 288 288 286 287 287 287 288 287 286 285 285 282 280 278 278 278 278 277 277 278 276 276 276 275 275 278 283 282 281 279 280 279 275 274 273 273 273 274 275 275 275
290 290 287 285 285 285 284 284 285 285 284 282 280 279 277 278 279 278 278 285 284 284 284 283 280 279 282 284 284 284 283 282 282 275 272 272 272 272 272 273 273 273 274

GFSMW_sfc_thetae_066.txt.gz
Theta_e
302 301 301 303 303 302 305 307 324 333 333 332 332 331 330 329 328 327 325 322 323 322 321 318 313 309 307 304 299 294 292 290 290 291 291 291 292 291 291 292 291 292 290
297 298 299 298 300 301 302 304 310 327 332 333 333 334 332 331 330 328 326 323 322 320 320 317 312 309 304 299 297 295 291 290 290 289 290 288 292 291 291 290 291 289 288
296 296 296 297 297 298 299 301 304 316 330 333 332 324 326 321 320 321 324 323 321 320 320 316 313 309 306 302 299 296 297 295 292 293 296 289 289 287 287 288 288 287 286
293 294 295 295 296 297 298 299 301 306 321 331 330 329 328 325 326 327 326 323 321 320 318 316 311 308 306 302 300 303 306 304 298 295 294 292 291 287 284 285 285 285 285
292 293 294 295 295 296 296 296 298 301 306 323 329 328 326 326 319 316 321 310 316 318 315 312 309 306 306 305 303 304 302 302 299 297 297 291 289 286 285 283 283 284 285
296 297 298 299 299 298 296 296 298 299 301 309 324 326 325 318 313 311 310 308 312 313 313 308 307 306 305 305 304 302 301 298 297 296 292 292 289 286 285 284 282 281 282
296 297 298 299 299 300 300 300 298 297 299 302 312 324 325 319 316 315 315 309 308 305 307 307 305 305 305 304 302 301 299 296 295 294 293 292 289 287 286 284 280 281 281
296 297 297 298 299 300 299 299 300 300 299 298 303 310 317 317 317 315 316 313 312 312 307 307 306 304 303 302 301 300 296 294 291 290 290 288 288 287 287 285 283 279 279
295 296 298 299 298 298 299 299 299 299 300 300 301 304 310 312 313 308 308 307 305 304 306 306 304 303 302 299 297 296 293 292 290 289 288 288 287 287 287 286 284 281 277
296 297 297 297 298 298 298 298 298 299 300 299 302 305 306 307 305 302 302 302 301 302 302 302 302 300 299 295 293 291 290 289 289 288 287 287 286 286 286 285 283 282 280
296 296 296 295 296 294 293 293 294 296 298 299 301 301 301 300 300 299 298 299 299 300 299 299 298 298 296 292 290 289 289 288 287 287 287 286 286 285 284 284 282 281 279
296 296 294 295 291 289 290 290 292 294 297 298 299 297 299 300 299 300 301 300 299 299 298 297 295 292 291 290 289 288 288 287 286 286 286 285 286 284 284 283 283 280 280
296 294 293 291 288 287 288 289 290 292 296 297 295 297 299 299 299 299 299 299 298 297 295 293 291 290 289 289 288 288 287 287 287 287 287 286 285 284 283 282 281 280 281
294 291 290 292 288 288 288 289 289 290 292 294 295 295 297 297 297 297 297 296 294 293 292 290 289 288 288 288 288 288 287 287 286 286 285 284 283 282 282 282 281 280 279
292 289 289 292 288 287 288 288 288 289 290 292 294 293 294 294 293 291 291 291 290 288 288 288 288 288 288 289 287 287 286 285 284 284 284 284 285 287 286 284 282 281 279
290 289 289 290 288 286 287 288 288 288 290 290 290 290 289 288 288 288 287 287 287 288 289 289 289 290 291 293 291 287 285 284 283 282 282 282 283 284 287 287 288 287 281
289 288 287 288 285 288 289 288 289 290 289 289 289 289 289 288 288 288 287 287 287 288 288 289 289 289 290 292 290 288 284 283 282 281 281 281 283 283 281 284 287 287 288
288 287 287 288 288 287 288 290 290 289 289 289 288 289 288 288 288 288 287 287 287 287 287 287 287 286 290 291 288 286 282 281 281 280 280 279 280 280 283 282 281 281 282
286 287 288 288 286 287 288 289 289 289 289 288 288 288 288 287 287 286 286 286 286 285 285 285 285 285 287 290 288 284 281 281 280 281 280 280 280 284 288 283 280 279 279
287 287 287 288 287 288 289 288 288 288 287 287 287 287 287 286 286 286 285 285 285 285 285 285 285 286 284 288 287 285 281 279 280 281 280 284 284 287 288 282 278 275 276
287 289 288 287 288 289 288 287 286 285 287 287 287 286 286 286 286 286 285 285 284 284 282 281 280 280 281 283 288 287 281 281 280 280 280 280 286 286 286 285 277 278 280
288 289 288 288 289 289 288 286 285 286 287 287 286 286 286 287 286 285 284 283 281 279 278 278 277 277 277 285 286 286 286 285 280 280 280 280 285 284 283 281 283 284 282
288 289 287 288 288 288 287 285 286 287 287 286 286 286 287 287 286 283 281 280 279 278 277 278 276 276 278 278 285 285 285 285 281 281 282 283 282 281 278 281 282 281 275
288 288 289 288 287 288 288 287 287 287 286 286 285 286 284 280 279 278 278 277 277 277 277 276 275 275 276 277 278 280 278 282 281 281 276 279 279 279 278 277 276 275 275
289 289 289 287 286 287 287 288 288 288 286 286 286 281 278 277 276 277 276 276 276 277 276 275 276 275 275 278 283 282 281 279 280 278 274 273 273 273 273 274 274 274 274
288 287 288 287 287 287 287 287 288 288 286 282 278 277 277 277 278 277 278 286 285 285 284 283 280 279 282 284 284 284 283 282 282 274 272 271 271 271 272 272 272 273 273

GFSMW_sfc_thetae_069.txt.gz
Theta_e
305 306 306 307 308 308 309 312 328 336 337 334 332 332 330 330 331 332 330 329 330 329 328 328 327 325 323 319 314 307 303 299 300 299 299 300 301 300 303 304 302 301 299
301 303 303 303 305 306 307 308 313 327 336 335 334 334 333 332 332 332 331 328 328 328 328 327 325 323 320 317 310 304 300 298 299 300 299 298 298 299 298 298 299 299 298
297 300 301 302 302 303 304 305 308 314 332 336 335 334 332 327 329 329 330 328 327 327 327 327 325 321 319 314 309 306 305 300 297 298 302 295 297 294 294 296 297 297 296
295 296 298 299 299 301 302 304 305 307 319 334 333 330 329 327 329 331 331 330 327 326 326 325 324 321 318 315 310 306 307 306 301 298 296 297 298 293 291 291 293 294 292
298 299 299 300 300 300 300 301 302 304 307 322 332 331 328 330 331 330 329 328 326 327 325 324 322 319 316 315 309 306 307 309 305 303 296 294 292 290 289 291 288 290 290
299 300 302 303 303 304 304 303 302 303 304 306 320 330 329 327 326 323 324 322 322 324 324 322 321 319 315 312 310 309 308 308 306 303 299 295 294 291 289 288 289 289 288
299 300 301 302 302 302 303 304 304 304 304 304 307 319 327 328 325 326 323 316 316 317 319 318 318 316 315 313 312 309 308 306 304 300 297 296 294 293 290 288 287 286 286
298 300 301 301 301 301 302 301 302 302 304 305 305 307 315 324 324 324 323 320 318 318 319 317 315 314 312 311 309 308 307 304 301 297 294 291 292 291 289 289 288 283 283
298 300 300 300 300 300 299 298 299 300 302 303 304 305 308 312 321 321 321 321 318 314 313 313 312 310 310 308 306 304 301 297 294 292 291 290 289 290 289 289 288 287 282
299 300 299 298 299 296 295 296 296 297 298 301 303 304 307 309 314 315 315 313 310 310 310 309 308 307 305 304 303 299 295 291 290 289 288 288 288 288 288 288 286 286 284
298 299 297 298 295 293 293 294 294 295 297 300 301 303 306 307 308 308 306 306 305 305 305 305 304 302 299 298 294 292 291 289 288 288 288 287 287 287 286 286 285 285 284
298 298 296 295 292 292 292 293 293 294 297 299 300 302 303 304 304 304 303 304 302 303 301 301 299 296 293 292 290 289 289 288 287 287 287 287 288 286 286 285 284 284 284
298 295 294 293 292 291 292 292 292 293 296 299 299 300 301 301 301 301 301 301 300 299 298 295 292 291 290 289 289 289 288 288 288 288 287 286 287 286 286 284 284 284 284
295 292 292 292 291 291 291 290 290 292 294 297 297 298 298 299 299 299 298 296 294 293 291 290 290 289 289 289 289 289 288 288 287 287 286 286 285 284 284 284 284 285 283
293 290 291 292 291 290 290 290 290 291 292 293 293 293 294 293 293 293 292 291 290 289 289 289 289 289 290 289 288 288 287 286 285 285 285 285 285 287 287 287 286 285 284
292 290 290 290 290 290 289 290 290 290 291 289 289 289 289 288 288 288 288 289 289 289 291 291 290 290 291 293 292 288 286 286 285 283 283 283 285 286 287 287 288 288 286
290 289 288 288 288 289 290 289 290 291 290 289 289 289 289 288 288 289 289 289 289 290 291 292 292 290 291 293 292 289 285 284 283 283 283 283 284 284 284 285 287 287 288
289 288 288 288 288 289 290 290 290 290 290 289 289 289 288 288 288 288 288 287 288 288 288 288 289 289 291 291 289 287 284 283 283 283 283 282 283 283 285 285 285 285 285
287 288 288 289 288 288 289 289 289 289 289 288 288 288 288 287 287 287 286 287 286 286 285 285 285 286 287 289 288 285 283 283 282 283 283 284 283 285 288 286 284 282 282
287 287 288 288 288 289 290 289 288 288 287 287 287 288 287 287 286 286 285 285 286 285 287 286 287 289 287 289 288 284 284 282 283 283 283 284 285 287 287 285 282 279 280
287 288 289 287 288 289 289 287 287 286 287 288 287 287 287 286 286 286 286 285 285 284 284 283 284 284 284 288 288 286 284 283 283 282 282 283 285 286 285 284 281 280 284
288 289 288 288 289 289 288 286 285 287 287 287 287 286 287 288 287 286 286 285 282 280 280 280 279 280 281 286 287 287 286 286 283 281 282 282 284 283 283 282 283 283 282
288 289 288 287 288 288 288 285 286 287 287 287 286 286 287 287 285 282 282 281 281 280 279 279 278 278 280 281 285 285 285 285 283 282 283 282 281 281 279 280 281 280 278
287 288 288 287 286 288 288 287 287 288 287 286 286 286 285 281 280 280 280 280 280 279 279 278 277 278 279 281 282 282 282 283 282 281 279 279 279 278 278 278 278 278 278
288 289 289 288 287 287 287 288 288 288 287 287 286 283 280 279 279 279 279 278 279 280 278 278 278 278 279 281 284 284 283 282 282 280 277 276 275 275 275 276 276 277 277
288 288 288 287 287 287 287 288 288 288 287 284 281 279 279 279 280 281 281 286 285 285 284 283 281 281 283 284 284 283 283 282 281 276 274 274 274 274 274 274 275 275 275

GFSMW_sfc_thetae_072.txt.gz
Theta_e
311 313 314 315 315 316 317 318 323 333 339 337 333 333 332 333 338 339 338 337 335 334 333 333 332 332 331 330 327 324 319 315 315 309 308 307 307 306 308 310 309 308 306
308 309 311 312 313 314 315 315 317 324 333 338 337 338 336 335 334 336 336 337 336 335 334 333 331 331 330 331 328 323 317 317 312 312 313 308 305 304 305 307 307 306 306
305 306 308 309 311 311 313 313 315 316 323 334 336 337 337 337 334 332 332 335 336 335 334 334 333 331 330 329 329 323 319 313 310 312 315 309 308 304 304 302 304 304 303
301 301 303 305 307 308 311 311 312 314 316 325 330 332 330 330 333 334 335 333 335 335 335 334 333 333 331 328 328 324 320 320 310 307 305 306 307 304 299 299 300 300 299
305 305 306 307 307 307 307 308 308 309 312 315 325 330 330 331 334 335 334 334 332 332 333 333 333 331 330 329 328 322 320 320 318 310 306 304 303 300 300 303 294 294 296
305 306 308 309 309 310 311 311 307 307 309 310 315 325 327 329 331 332 332 334 332 329 330 330 330 331 329 326 327 323 320 319 319 313 309 304 302 301 299 298 296 295 293
306 307 307 307 308 308 308 308 309 309 310 309 311 312 323 328 328 329 328 327 327 324 325 327 327 327 328 326 325 321 319 318 317 313 309 303 299 298 298 297 293 288 289
306 306 306 306 307 306 306 306 306 307 308 310 311 311 314 320 326 327 326 327 327 326 327 325 325 325 325 323 322 321 319 317 316 311 303 296 293 294 292 292 290 287 287
305 305 305 306 305 304 303 303 303 305 306 307 309 311 312 313 317 324 325 325 326 326 327 324 320 319 317 317 316 314 314 310 308 302 295 292 292 291 291 291 292 290 287
305 305 304 305 303 302 302 303 303 303 304 305 308 308 310 312 313 316 320 320 320 317 316 316 315 312 312 311 309 308 305 300 296 293 291 290 290 289 289 288 289 287 285
303 305 303 303 301 301 301 301 301 301 304 306 307 307 309 311 312 313 314 314 313 312 312 312 310 308 307 306 300 297 294 291 291 290 289 288 289 288 288 287 287 287 286
302 304 302 300 299 299 300 299 299 300 303 303 306 306 307 307 308 308 309 309 309 309 308 307 305 302 299 296 293 291 290 289 288 289 288 287 289 287 287 287 286 285 286
303 302 300 299 298 298 298 298 298 299 302 302 302 302 303 304 304 305 305 305 306 305 303 300 296 294 292 291 291 290 289 290 290 290 289 288 288 287 286 286 285 285 286
302 300 298 298 298 297 296 296 296 297 300 299 298 298 299 300 300 299 298 298 296 294 293 292 291 291 291 290 290 291 291 290 289 289 288 287 287 286 285 286 285 285 285
300 298 297 297 297 297 296 296 295 295 296 294 292 292 293 293 293 292 292 291 291 290 291 290 290 291 291 291 290 290 289 287 287 286 287 286 287 287 287 287 288 287 286
299 295 294 293 295 296 295 294 294 294 295 292 291 290 289 290 290 290 290 291 291 291 291 291 291 291 291 293 292 289 287 287 286 284 285 285 288 288 288 288 288 288 287
297 294 292 291 293 294 295 293 294 294 293 291 290 289 289 289 290 291 292 292 291 292 291 291 291 290 291 293 293 291 286 285 285 284 284 286 286 286 285 286 287 288 288
295 293 292 291 291 294 295 295 294 292 291 290 289 290 289 289 290 290 290 290 289 289 289 289 289 289 291 291 289 287 285 285 285 286 286 285 284 284 286 287 287 287 287
292 292 292 291 292 293 294 294 294 293 290 289 289 289 289 288 288 288 287 288 288 286 286 286 286 286 287 288 287 286 286 285 285 285 285 285 285 285 288 287 286 285 285
289 290 291 290 290 291 294 293 292 291 290 289 289 289 288 287 287 287 286 286 287 286 288 287 289 290 288 289 287 286 285 285 285 285 285 284 286 286 287 285 284 282 281
289 290 291 290 290 291 292 291 289 288 289 289 289 288 288 287 287 287 287 287 287 287 287 286 286 286 288 288 288 286 286 285 285 284 284 285 285 285 284 284 283 281 284
290 290 289 289 290 291 290 288 286 288 288 288 288 288 289 289 289 289 288 288 287 285 284 283 283 285 287 287 287 287 287 286 284 283 284 284 283 283 282 282 282 283 283
291 291 290 289 290 290 289 287 288 289 289 288 288 289 289 290 290 288 286 285 285 284 283 282 282 281 283 286 285 286 285 285 284 284 283 282 281 281 281 281 281 282 281
291 291 290 288 288 289 289 289 290 291 290 288 287 289 287 286 286 285 285 285 284 284 282 281 281 282 283 285 286 285 285 283 283 282 282 280 279 279 279 280 280 281 281
291 291 290 289 289 289 289 290 291 291 290 290 289 287 286 285 284 284 285 285 284 284 282 282 282 282 282 284 285 284 284 284 283 282 280 279 279 279 279 280 280 280 280
291 291 291 290 290 289 290 290 291 291 290 289 286 285 284 284 284 284 284 286 285 284 284 283 283 284 284 284 284 283 283 281 281 279 277 278 278 278 278 278 279 279 279

GFSMW_sfc_thetae_075.txt.gz
Theta_e
311 312 314 317 319 320 320 322 329 338 342 339 336 336 333 339 341 342 340 339 337 335 333 332 331 331 329 329 328 327 325 323 324 318 313 313 312 310 310 312 312 311 310
309 311 312 314 315 316 318 319 320 322 331 337 337 335 334 335 336 342 341 340 338 338 335 334 333 332 330 330 330 327 323 322 322 314 314 310 309 309 308 309 310 309 308
307 309 311 312 315 314 315 316 318 319 322 330 338 338 339 339 335 334 336 338 340 339 337 335 334 333 331 329 330 328 324 319 319 317 317 312 311 307 308 306 308 307 307
307 307 307 308 311 312 315 315 316 317 318 321 327 333 333 332 335 336 335 334 336 339 338 336 335 334 332 330 330 330 326 321 316 314 315 317 311 308 300 304 304 305 304
305 304 305 307 308 309 310 312 312 313 315 316 319 324 328 333 334 334 333 336 334 333 334 334 333 333 333 332 330 329 327 322 320 312 311 310 308 306 303 301 297 301 301
306 307 309 310 310 312 312 313 310 309 311 312 314 318 324 328 329 330 330 332 335 333 331 332 331 330 330 331 330 329 327 323 322 318 315 309 307 304 300 300 297 296 296
306 307 308 308 309 309 310 310 311 310 311 311 311 312 316 323 327 328 329 330 331 331 330 329 330 328 329 328 327 326 325 322 321 320 315 311 307 303 302 301 292 291 290
307 307 308 309 308 308 307 307 307 308 309 310 312 313 313 314 318 327 328 329 328 326 327 326 327 327 327 327 325 323 323 321 321 319 316 309 300 298 296 295 291 288 289
307 307 308 308 307 306 306 306 306 306 307 308 309 310 312 312 313 318 325 327 326 325 326 325 323 324 323 323 321 319 317 316 314 304 299 295 293 293 293 293 295 294 290
307 307 307 307 306 305 306 306 305 305 306 308 309 310 310 311 313 314 315 319 322 321 319 319 319 317 316 315 313 311 307 302 299 297 294 293 291 290 290 290 289 289 288
306 307 306 305 304 304 304 304 304 304 305 306 308 309 309 311 312 312 314 315 315 314 314 314 312 311 310 309 306 304 299 297 294 294 292 290 290 289 288 289 289 287 287
304 306 305 303 303 302 302 302 302 302 304 304 304 305 307 308 309 310 311 311 311 311 311 310 309 306 304 300 296 295 294 292 290 290 290 289 290 289 289 289 287 287 286
303 305 303 302 301 301 300 299 299 301 303 303 302 302 303 304 304 305 306 307 307 306 305 303 301 297 295 293 292 291 291 290 290 290 290 290 289 288 288 287 286 286 287
302 304 302 301 300 299 298 298 298 299 299 298 297 296 297 297 296 296 295 295 295 294 293 293 292 292 291 291 291 291 290 290 290 290 291 290 289 287 286 286 286 286 285
302 302 301 300 299 299 298 298 297 297 298 295 292 291 292 293 292 292 292 292 292 292 292 291 291 292 291 291 290 289 288 288 287 287 287 288 289 289 288 287 287 287 286
303 302 299 297 297 298 297 297 296 296 295 293 291 291 291 291 291 292 292 292 292 292 292 291 292 292 293 294 293 290 288 287 286 284 285 287 288 289 289 289 288 288 286
301 298 297 295 295 296 297 296 296 296 293 292 291 290 291 291 293 293 293 292 292 292 291 291 291 290 291 293 292 290 285 284 284 284 285 285 286 286 285 286 287 288 289
300 297 295 294 294 296 297 297 295 293 292 291 290 290 290 290 291 290 290 290 290 289 289 289 289 289 290 292 290 288 285 285 286 286 286 285 285 285 285 286 287 287 287
298 296 294 293 294 295 297 296 295 293 291 290 290 290 290 289 289 288 288 288 287 286 286 286 286 286 287 289 288 287 286 286 285 285 285 285 285 286 288 287 286 285 284
292 292 292 293 293 293 296 296 294 294 291 290 289 289 289 288 287 288 286 286 287 287 288 288 289 289 287 288 288 287 286 285 285 285 285 285 286 287 287 284 283 281 281
290 291 292 291 291 292 293 293 292 290 290 290 289 289 289 288 288 288 288 288 288 288 287 287 288 289 289 288 288 287 286 285 284 283 283 284 285 285 284 284 282 281 283
291 291 290 290 291 291 292 290 287 289 290 289 289 289 289 290 290 289 290 290 289 287 285 285 285 286 287 288 288 287 287 286 283 282 283 283 284 283 283 282 283 284 284
292 292 291 290 290 290 290 287 288 289 289 289 289 290 290 291 291 290 288 286 286 285 284 283 282 282 284 286 286 286 285 285 283 283 283 283 282 282 282 281 282 282 280
292 292 292 290 289 290 290 289 290 290 290 289 289 290 289 289 288 287 287 286 285 284 283 282 281 282 283 284 285 285 285 284 284 283 283 281 281 281 280 280 281 280 280
293 293 291 290 290 290 289 290 291 291 290 290 290 289 287 286 285 286 286 285 284 284 283 282 282 282 282 283 284 284 283 283 282 281 279 278 278 278 279 279 280 280 280
293 292 292 291 290 290 290 291 293 293 292 290 288 286 285 285 285 284 283 286 285 285 285 285 284 283 284 284 284 283 283 282 282 279 277 277 278 278 278 278 278 279 280

GFSMW_sfc_thetae_078.txt.gz
Theta_e
306 308 312 313 314 316 317 324 334 337 338 336 334 336 331 332 335 334 334 332 330 329 326 324 322 321 320 320 321 320 319 316 314 310 306 306 306 304 305 306 306 306 305
304 305 307 308 309 312 313 314 316 324 337 336 335 335 333 334 333 333 335 334 332 330 328 325 324 323 322 321 321 319 317 316 316 309 304 301 303 304 304 304 305 304 304
302 303 304 306 308 309 309 311 313 313 315 329 335 331 333 331 331 333 333 334 334 332 330 327 326 325 324 323 322 321 318 315 313 311 309 305 303 300 301 301 303 302 301
300 302 302 303 305 307 307 308 310 312 313 314 326 331 329 329 331 329 331 333 333 333 331 329 328 326 325 323 324 324 321 317 314 310 313 310 305 300 295 298 299 301 300
298 299 301 305 306 306 305 305 306 307 308 309 310 313 326 330 330 329 329 330 330 333 332 332 331 328 328 326 324 322 322 320 315 313 308 309 302 300 297 292 294 297 298
301 303 305 306 306 307 307 307 305 305 306 306 306 306 307 313 320 323 323 324 328 328 329 331 329 328 328 327 327 324 324 324 318 313 309 307 304 304 299 297 294 295 294
302 303 303 303 305 304 305 305 305 305 306 306 306 306 305 306 310 317 321 322 322 324 326 329 328 327 327 328 328 325 323 322 320 319 311 309 308 304 304 303 296 293 290
303 303 304 304 303 303 302 302 302 303 304 304 305 306 306 306 307 308 316 320 322 322 325 325 325 325 326 326 325 324 323 321 318 317 315 306 300 302 300 299 293 289 290
303 303 304 303 302 301 301 301 301 302 303 303 304 304 305 306 306 307 309 314 319 323 323 323 322 323 323 323 322 320 319 318 316 306 301 297 297 297 297 296 297 296 290
303 303 303 302 301 301 301 301 301 301 303 303 304 305 304 305 306 306 307 309 313 315 316 317 318 317 316 315 314 311 306 302 299 298 297 295 294 293 293 293 294 295 292
302 302 302 301 300 300 299 299 299 300 301 301 302 302 303 305 306 306 307 307 308 310 311 312 311 310 309 308 306 302 300 298 296 295 294 292 291 291 291 292 292 289 289
302 301 300 299 298 298 297 296 297 298 300 300 302 303 304 304 303 304 305 307 308 309 309 308 305 303 299 298 297 296 295 293 291 291 290 290 292 290 291 290 288 287 287
300 300 299 298 296 296 295 295 295 296 297 297 298 298 297 297 297 297 296 297 297 297 296 295 294 292 292 292 292 292 291 290 290 290 290 290 290 289 289 288 287 287 287
299 300 297 296 295 295 294 294 294 295 294 293 293 293 293 293 293 292 292 292 293 292 292 292 292 292 291 291 291 291 290 290 290 290 290 290 289 288 287 287 286 286 285
299 299 297 296 296 295 294 294 294 294 293 291 290 291 292 292 292 292 292 292 292 292 292 291 291 291 291 291 290 289 289 288 287 287 288 288 290 290 289 287 286 286 284
299 299 296 295 295 294 293 294 293 292 292 291 290 291 291 292 292 292 292 292 292 292 292 292 292 292 292 294 293 289 287 286 285 285 285 286 288 289 290 290 289 288 285
299 296 294 293 294 294 295 293 292 292 291 291 291 291 292 292 292 292 292 291 290 291 290 290 290 290 291 294 293 290 284 284 284 285 285 286 286 286 285 286 287 288 289
297 295 292 292 293 295 295 294 292 290 291 290 290 291 291 290 291 290 289 289 289 288 288 288 289 290 291 293 291 289 284 285 284 283 283 284 284 284 285 286 284 284 285
294 293 292 293 294 295 295 293 290 290 290 290 290 290 290 289 289 288 287 287 287 286 286 286 284 284 287 290 289 286 283 282 281 282 283 283 283 287 288 284 282 281 281
290 291 292 293 293 293 295 292 290 289 288 290 289 289 289 288 287 287 286 286 287 287 287 287 284 288 283 289 289 286 283 281 281 281 282 286 285 287 286 281 279 277 277
290 292 292 291 291 292 293 292 291 288 289 289 289 288 288 288 288 288 288 287 287 286 284 283 284 284 284 285 289 289 283 281 280 279 279 280 285 285 284 284 278 278 280
290 290 289 290 291 292 292 289 287 289 289 289 288 288 288 289 289 288 288 287 285 282 281 280 280 282 283 288 288 288 286 285 279 278 279 280 284 283 283 281 283 284 283
289 290 288 288 290 291 290 287 287 289 288 288 288 289 289 289 290 289 286 283 281 280 279 279 278 278 281 281 287 286 285 285 280 280 282 283 282 282 280 282 283 282 277
290 289 288 287 286 289 289 289 289 289 289 289 289 290 289 290 288 285 282 281 280 279 278 277 277 277 278 279 280 281 280 284 281 282 279 280 281 281 280 279 279 278 277
290 290 288 287 288 289 289 290 290 290 289 289 289 288 285 281 280 281 280 278 279 281 277 277 277 277 277 280 283 282 280 279 280 280 276 275 275 275 276 277 277 277 277
291 289 288 287 288 289 289 290 291 291 290 289 286 282 281 280 279 279 279 286 286 287 287 286 281 281 284 285 284 283 283 283 282 277 274 274 274 274 276 276 276 278 279

GFSMW_sfc_thetae_081.txt.gz
Theta_e
305 309 312 314 327 329 328 333 334 334 334 332 330 330 330 333 332 329 329 328 328 327 324 320 319 318 318 319 319 318 318 314 312 308 305 304 304 304 306 305 306 307 308
303 304 308 309 311 315 322 326 331 334 334 335 333 332 331 330 330 332 333 331 328 328 325 323 320 318 318 317 318 318 315 315 312 307 302 300 302 303 303 303 305 304 304
300 302 303 305 305 307 308 311 314 325 336 334 331 329 330 329 328 329 330 331 332 328 327 324 324 321 320 319 318 318 317 314 313 310 306 301 300 300 301 301 302 303 301
299 300 301 301 302 303 305 306 307 308 311 332 333 330 329 327 329 329 328 328 330 330 329 326 323 323 322 320 320 321 319 315 315 311 311 309 306 300 298 298 298 300 300
300 298 300 304 305 305 305 305 304 304 305 306 317 327 325 327 326 327 326 328 327 329 330 328 326 324 324 324 322 322 321 319 317 315 309 308 304 300 297 295 295 299 300
299 301 303 305 304 305 305 305 305 304 304 304 303 304 305 306 312 321 323 324 326 326 327 327 326 327 328 327 326 324 324 323 321 318 311 311 309 307 300 296 293 297 296
301 301 301 302 302 302 302 304 303 302 304 303 304 304 303 303 304 308 316 320 323 321 323 325 328 328 327 327 327 325 323 322 320 318 316 314 311 310 307 304 297 295 293
300 301 302 302 301 301 300 300 300 301 302 302 302 302 303 304 304 305 307 313 318 320 326 325 327 327 326 326 326 324 324 322 320 318 316 311 308 306 306 306 299 293 290
300 302 303 301 299 299 300 299 300 300 301 302 302 302 303 303 303 304 305 307 314 319 322 323 323 323 323 323 322 320 319 319 316 314 310 303 300 300 299 299 300 299 291
300 301 300 300 299 299 299 299 299 300 301 301 301 302 302 303 304 304 306 308 309 310 312 314 316 316 315 315 315 310 307 304 300 299 297 296 296 295 297 297 298 297 296
299 299 298 299 299 298 297 297 298 300 300 300 300 300 301 302 303 303 304 305 306 307 308 308 307 308 306 307 304 302 300 297 296 295 293 292 293 292 293 293 293 292 292
299 298 297 297 297 296 296 296 297 298 298 299 299 298 299 298 298 296 297 302 301 303 302 300 297 297 296 297 297 296 295 294 292 292 292 291 292 291 291 291 289 289 289
298 296 295 295 294 294 294 294 295 295 295 294 294 293 295 294 293 293 294 295 295 294 294 294 293 292 293 293 293 292 292 292 291 291 291 290 290 289 289 288 287 287 288
299 296 294 294 294 293 293 292 292 292 292 291 290 290 292 292 292 292 293 293 293 292 292 292 292 292 292 292 292 291 291 290 290 290 290 290 289 288 287 287 287 286 285
297 296 294 293 293 292 292 292 291 291 290 289 289 290 292 292 292 292 292 292 292 292 292 291 291 291 291 291 290 290 289 288 287 288 289 289 290 291 289 287 286 286 285
298 297 295 294 292 291 292 292 291 291 290 289 290 292 292 292 292 292 292 292 292 292 293 292 292 291 292 294 293 288 286 285 285 285 285 287 289 291 291 291 290 288 283
299 296 294 293 293 292 293 291 291 291 290 290 291 292 292 292 292 292 291 291 290 291 290 290 291 291 292 294 293 290 284 283 284 284 285 286 287 286 283 286 287 287 289
296 295 294 293 293 294 294 293 292 289 289 290 291 292 291 291 291 290 289 289 289 289 289 289 291 291 292 293 292 289 284 283 282 282 282 282 282 282 284 283 282 282 283
293 293 294 294 294 294 294 292 291 289 289 290 290 290 290 289 289 288 287 287 287 286 285 285 283 283 285 290 289 285 282 281 280 281 282 282 281 287 288 281 279 278 279
291 292 293 293 294 294 294 291 288 287 287 289 289 290 289 288 287 287 286 286 287 286 284 283 283 288 284 290 289 284 281 280 280 280 281 287 283 286 285 279 277 276 276
290 292 292 292 292 292 294 291 289 287 288 290 289 288 288 288 288 288 288 287 287 284 282 281 282 282 283 285 290 288 281 280 278 279 279 280 285 285 284 284 277 278 279
291 290 289 290 291 292 292 289 287 289 289 289 288 288 289 289 289 287 288 287 282 281 280 280 280 281 282 288 288 288 287 284 279 278 278 279 284 283 283 281 282 283 282
289 289 288 288 290 291 290 288 288 289 288 288 288 288 289 289 289 286 284 283 280 279 278 279 278 278 281 281 287 286 286 285 280 279 282 283 282 282 280 281 283 282 276
289 289 287 286 286 289 289 289 289 289 288 288 288 289 288 289 289 287 283 280 279 278 278 277 276 276 277 278 279 280 279 284 281 281 278 281 281 281 280 279 278 277 277
291 289 287 286 286 288 289 289 289 289 289 289 289 289 290 287 280 280 279 277 278 279 277 276 277 276 277 280 283 281 280 278 280 279 276 275 275 275 276 276 277 277 277
289 288 287 286 286 287 289 289 290 290 289 289 288 286 282 279 279 278 279 286 287 287 286 285 281 281 284 286 285 284 283 283 282 277 274 273 274 274 275 275 276 277 279

GFSMW_sfc_thetae_084.txt.gz
Theta_e
304 306 311 327 328 328 331 332 333 332 333 330 329 328 328 330 326 325 326 326 327 326 323 320 318 317 318 318 318 317 317 314 311 308 306 304 304 304 305 305 308 312 311
301 303 307 309 324 328 329 331 332 331 332 332 331 330 329 329 329 329 328 327 326 326 325 322 319 317 316 316 316 316 314 315 311 307 302 302 304 304 303 303 304 305 308
302 300 302 307 308 317 325 330 332 332 333 331 330 328 328 327 327 328 328 329 330 326 325 323 322 318 318 317 316 316 316 313 312 308 308 300 300 300 301 301 301 302 302
300 298 298 300 303 303 305 309 313 322 326 331 329 328 329 329 329 328 327 329 330 330 327 324 321 320 319 318 317 318 317 314 314 311 312 307 305 302 301 298 300 300 300
300 298 299 302 303 303 302 303 304 305 306 325 330 328 325 325 324 325 325 325 326 328 329 328 324 321 320 320 319 320 319 320 320 315 311 311 307 302 301 302 298 300 300
297 298 302 304 303 303 303 303 303 302 302 303 305 319 324 317 314 320 323 323 324 325 326 327 327 325 322 322 323 323 322 322 320 319 316 314 310 309 302 300 298 299 299
298 300 301 300 300 300 301 303 303 301 302 302 303 303 303 302 303 306 312 317 320 321 324 324 323 324 326 327 326 325 322 322 321 320 318 315 315 311 309 308 300 299 296
298 300 301 300 299 299 299 299 300 300 301 301 301 302 303 304 304 305 306 310 316 319 322 322 323 323 327 327 326 324 323 322 321 319 318 314 312 310 310 309 302 293 293
298 300 300 299 298 298 298 298 299 300 300 301 301 301 302 302 302 303 304 306 312 317 318 320 321 322 324 324 322 320 319 318 313 311 309 304 300 301 302 302 302 303 296
298 299 298 298 298 298 297 298 300 300 299 300 300 300 301 302 302 304 305 306 308 309 311 313 314 313 315 316 316 310 307 304 300 299 297 296 297 297 298 299 299 300 298
297 296 296 297 297 297 297 297 299 299 299 299 298 298 299 300 299 301 302 303 304 305 305 305 304 304 304 306 303 301 300 297 296 296 295 294 294 294 294 294 293 292 292
297 296 295 295 294 294 296 296 298 298 298 298 297 296 295 294 293 293 295 298 299 298 297 296 294 294 295 296 297 297 296 295 293 293 293 292 293 291 291 291 289 289 288
296 295 294 293 293 292 293 295 296 295 294 294 293 292 292 292 293 293 293 294 294 293 293 292 292 293 294 294 294 294 293 292 292 292 291 291 291 289 289 289 288 288 288
297 294 293 292 291 291 292 292 292 292 292 291 291 290 290 290 292 293 293 293 293 293 293 293 293 293 293 293 292 292 291 291 291 291 290 290 289 288 288 287 287 286 285
296 295 293 292 291 291 291 291 291 290 290 290 290 290 292 292 292 292 292 293 293 292 292 292 292 292 292 291 290 290 289 288 288 289 289 290 291 292 290 287 286 286 285
298 297 294 293 291 290 290 291 290 290 290 289 289 291 292 292 292 292 292 292 292 292 292 292 292 291 292 294 293 287 286 287 286 286 286 289 290 292 292 292 290 287 282
295 297 294 293 291 291 291 290 289 290 289 289 290 292 292 292 292 292 291 291 290 291 291 291 291 291 291 294 293 290 283 284 284 285 285 285 286 284 282 287 288 288 289
297 296 294 292 291 292 291 290 290 289 289 289 291 292 291 291 291 290 289 289 289 289 290 290 291 292 293 294 292 289 282 281 282 281 281 280 281 282 283 282 281 281 281
295 295 296 294 294 293 293 292 291 290 289 289 291 291 291 289 289 288 287 288 288 287 286 287 286 285 287 291 289 284 281 280 280 281 280 280 281 288 287 281 279 278 278
292 293 293 294 294 293 293 291 290 289 288 289 290 290 290 288 287 287 286 286 284 284 283 282 283 288 284 290 288 283 280 279 280 280 281 287 283 286 285 279 277 276 276
291 292 293 293 293 293 292 290 289 288 289 290 290 289 289 288 288 287 287 286 283 282 281 280 281 281 283 285 289 287 281 280 278 278 279 280 285 285 284 283 277 278 279
291 292 291 291 292 293 292 290 288 289 290 289 289 288 289 289 289 288 287 285 282 281 280 279 280 281 282 288 288 288 286 284 279 278 278 279 284 283 283 281 283 283 282
291 291 290 288 289 291 292 289 288 289 289 288 288 288 289 289 288 288 285 282 280 279 278 279 278 279 281 280 287 287 286 285 280 279 281 284 283 282 280 282 283 282 276
290 290 289 287 287 288 290 290 289 289 288 288 288 288 288 288 288 286 284 280 279 278 279 278 277 277 278 278 279 280 279 284 281 282 278 280 281 281 280 279 278 277 276
290 290 288 286 286 286 287 289 289 289 288 288 288 288 289 288 285 283 281 278 278 280 277 277 277 276 276 279 282 281 280 278 280 279 276 274 275 275 275 276 276 276 277
290 288 289 286 286 286 288 289 290 289 289 288 288 288 288 284 281 278 278 285 285 287 286 285 280 279 283 286 287 286 284 284 283 277 274 273 273 273 274 275 275 276 278

GFSMW_sfc_thetae_087.txt.gz
Theta_e
304 305 315 329 329 328 329 331 332 332 332 330 328 327 328 324 322 323 328 328 328 325 320 318 317 317 318 318 318 316 315 313 312 309 307 306 306 304 305 305 310 313 313
301 303 304 312 324 327 329 330 332 330 332 332 329 329 328 328 326 325 324 326 326 325 323 320 318 317 316 316 316 316 313 314 311 308 304 305 308 304 304 303 304 305 311
300 301 302 304 313 322 325 330 331 331 332 330 329 327 327 326 326 326 325 325 325 324 324 322 322 318 317 317 315 316 315 313 311 308 311 302 302 301 303 301 301 302 302
299 299 299 299 305 313 316 325 328 329 329 330 329 327 326 327 327 327 326 327 329 328 325 324 322 321 318 316 316 316 316 315 313 310 311 309 308 306 305 302 299 300 302
299 298 299 301 301 302 303 308 313 315 317 328 329 328 325 326 324 325 325 326 327 329 328 326 323 320 319 318 317 316 316 318 318 315 313 312 307 304 306 309 307 301 301
297 297 300 302 302 302 302 302 303 303 304 317 325 326 326 322 319 320 322 322 323 324 326 327 325 322 320 319 319 318 319 319 319 318 316 313 310 309 305 303 306 301 299
296 298 300 300 300 300 301 302 303 302 303 303 302 304 311 315 316 313 314 317 320 321 323 324 324 325 325 323 321 320 319 319 318 319 318 316 315 314 310 309 305 300 298
295 298 299 299 298 299 299 300 300 300 301 301 301 301 302 302 302 303 304 308 313 316 320 322 322 323 323 323 323 322 323 321 320 319 316 316 314 311 311 310 304 296 294
296 298 299 298 297 297 298 298 299 300 300 301 301 301 302 302 302 303 303 305 309 315 316 317 319 320 321 321 321 318 318 315 309 306 307 306 302 303 303 304 304 304 297
297 297 297 297 297 297 297 298 299 299 299 299 300 300 300 301 303 304 305 306 307 308 310 313 315 315 315 315 314 309 307 304 301 300 300 298 298 298 299 299 300 300 299
296 295 295 296 295 295 296 297 298 298 298 298 297 298 298 298 299 300 301 303 304 305 305 304 304 305 305 306 304 302 301 299 296 297 296 295 296 295 295 295 294 293 294
296 294 294 294 293 293 295 296 297 297 297 297 296 294 294 294 293 293 296 299 297 296 296 295 295 296 297 298 299 298 296 294 295 294 294 293 294 292 292 291 290 289 289
294 293 292 292 292 292 293 295 295 294 295 294 293 292 291 291 291 291 292 293 292 292 292 292 292 293 293 293 293 293 293 294 293 293 292 292 291 290 289 289 288 288 289
294 292 292 291 290 291 291 292 291 292 292 292 291 290 290 290 290 292 293 294 294 293 293 293 293 293 293 293 293 292 292 291 291 291 291 290 290 289 287 287 287 287 285
294 293 292 291 290 290 290 290 290 290 290 291 290 290 291 291 291 293 293 293 293 292 292 292 292 292 292 292 291 291 290 289 289 288 288 288 291 292 291 286 285 286 285
296 295 294 292 290 290 290 290 289 289 290 290 289 290 291 292 292 292 293 293 292 292 292 292 292 292 293 295 293 290 288 288 287 286 287 288 290 292 293 292 290 286 282
297 296 294 293 291 291 291 289 289 289 288 289 290 291 291 291 292 292 291 291 291 291 291 291 291 290 291 294 293 290 286 285 285 285 285 284 285 284 282 288 289 289 290
295 297 294 293 292 291 291 290 290 288 288 289 290 291 292 291 291 290 290 290 290 290 290 291 291 292 292 293 292 289 282 282 281 281 280 280 280 282 282 281 280 280 280
296 296 295 294 291 291 291 291 290 290 290 290 290 291 291 290 289 288 288 288 288 287 287 287 288 288 290 292 290 284 281 281 280 281 280 280 281 288 286 280 279 277 278
292 293 294 294 293 292 293 291 290 289 289 290 290 290 290 289 288 287 286 286 287 286 286 285 284 288 285 289 288 283 281 279 280 280 281 287 283 286 285 279 277 275 276
291 292 293 292 292 293 292 291 290 289 290 290 290 289 289 288 288 287 287 286 285 284 282 281 281 282 284 285 288 287 281 280 278 279 279 280 285 285 284 283 277 277 278
292 293 292 292 293 293 292 290 288 290 290 290 289 289 289 289 289 287 287 285 283 280 279 280 280 281 281 289 288 287 285 284 279 278 278 279 284 283 283 281 283 284 282
291 291 291 291 291 292 292 289 289 289 289 289 288 288 289 289 288 287 286 283 281 280 278 280 279 279 281 280 288 288 287 285 280 279 281 284 284 283 280 282 283 282 276
291 291 290 289 288 289 290 290 289 290 289 288 288 289 288 288 288 287 285 281 280 279 280 279 278 278 278 278 279 281 280 285 282 282 278 280 281 281 280 279 278 277 276
291 290 289 288 288 287 287 288 290 289 288 288 288 288 288 288 286 286 284 279 279 281 279 278 278 277 277 279 282 281 280 279 281 279 276 275 274 274 275 275 276 276 276
289 288 288 288 287 286 287 288 290 289 288 288 288 288 288 287 286 284 279 286 285 287 287 285 280 279 283 285 287 287 286 285 284 277 274 273 273 272 274 274 274 275 276

GFSMW_sfc_thetae_090.txt.gz
Theta_e
309 306 312 329 329 329 331 333 332 331 333 331 329 328 327 325 323 327 332 331 330 325 321 320 318 318 318 318 317 315 314 312 312 311 310 309 308 307 305 306 307 313 314
303 304 305 310 327 328 330 331 332 331 331 332 331 329 327 325 324 325 326 330 329 327 322 321 318 316 316 315 315 315 312 313 311 310 305 307 310 307 306 304 304 304 310
300 302 303 304 311 325 327 329 331 331 332 331 330 327 327 327 325 323 322 323 326 326 325 321 319 316 317 316 315 315 314 313 310 309 312 303 304 303 304 302 302 302 303
299 299 300 301 302 312 324 328 329 329 331 330 329 328 327 327 326 326 325 324 324 323 323 322 321 318 317 316 316 316 316 314 312 310 311 310 310 308 307 304 303 302 302
300 300 299 299 300 304 312 320 325 327 328 330 330 329 326 326 324 325 325 325 326 327 326 325 324 322 322 320 317 315 315 317 318 315 313 313 307 307 309 309 311 302 300
298 299 299 301 300 300 301 305 312 307 316 326 326 325 324 322 321 321 321 322 323 324 325 326 325 323 321 320 320 318 316 318 318 318 316 314 310 306 305 306 309 307 304
297 296 299 300 300 299 299 301 303 302 305 310 314 319 323 326 325 321 319 319 320 321 323 323 324 325 323 321 319 317 317 317 317 317 317 316 315 314 310 309 307 305 301
295 296 299 299 298 299 299 300 300 300 303 302 301 302 303 304 304 304 304 308 312 315 318 320 322 323 323 322 321 319 318 317 317 319 318 317 314 312 312 310 307 298 297
293 296 298 298 297 297 298 299 299 300 301 301 301 301 301 301 301 302 303 304 306 312 314 314 316 318 320 321 320 320 320 316 313 310 309 308 303 304 304 305 306 305 298
293 295 296 296 296 296 296 298 299 299 299 299 300 299 299 300 301 302 303 304 305 307 309 315 316 315 316 318 316 311 309 305 302 303 302 300 299 299 300 300 301 301 302
293 293 294 294 294 295 297 297 297 298 297 298 297 297 297 297 297 299 300 301 302 303 303 305 306 307 307 308 306 305 303 300 298 297 297 296 297 296 296 296 295 294 294
294 293 293 293 293 293 295 295 296 296 296 296 295 294 294 294 294 294 296 297 296 295 296 296 297 297 299 301 302 300 299 298 296 295 295 293 295 293 293 292 291 290 291
293 292 292 292 291 292 293 294 294 293 293 293 292 292 292 292 292 291 292 293 292 292 293 293 294 294 294 294 294 294 294 294 293 292 292 293 292 291 290 290 289 289 290
293 292 291 291 290 291 292 292 291 291 291 291 290 290 290 290 290 291 292 292 292 292 293 294 293 293 293 292 292 292 292 291 291 292 292 291 290 289 289 288 286 287 286
292 292 291 290 289 289 290 290 289 289 290 290 289 289 290 291 291 291 292 293 293 293 293 293 293 293 293 293 292 291 291 290 289 289 289 289 291 292 290 286 284 284 282
295 293 293 292 290 289 289 289 288 288 289 289 289 290 290 291 291 291 291 292 292 292 293 292 293 293 294 295 294 291 289 289 288 287 287 289 291 293 293 292 290 285 281
295 294 293 293 291 290 290 289 288 288 288 288 289 290 290 290 290 291 292 291 291 291 291 291 292 292 293 295 294 291 286 286 286 286 285 284 285 284 283 289 290 290 290
296 297 295 293 291 291 291 289 289 288 288 288 289 290 290 290 291 291 290 290 291 290 290 291 291 291 292 293 291 290 286 285 283 281 280 280 281 283 282 281 280 279 280
293 294 297 294 292 291 291 290 288 288 289 289 291 291 291 290 290 289 288 289 289 288 287 288 289 290 291 292 291 284 281 281 280 280 280 281 281 288 286 280 279 277 278
291 293 293 293 292 290 291 290 289 290 289 291 291 291 291 290 288 288 287 287 288 287 287 286 287 290 286 290 289 284 281 280 280 281 282 287 283 286 286 278 277 275 275
290 291 292 291 292 292 292 291 290 289 290 291 291 290 290 289 289 288 287 287 286 285 284 284 283 283 284 285 288 286 281 280 279 279 279 280 286 285 284 284 277 277 278
291 294 293 292 292 293 292 291 288 290 291 290 290 289 289 290 289 287 286 286 285 283 282 282 281 281 282 289 289 288 285 284 279 278 278 279 284 283 283 281 283 284 282
292 292 292 291 292 293 293 290 290 290 290 289 289 289 289 289 289 287 285 284 283 282 281 281 280 280 281 280 289 288 287 285 279 279 281 284 285 284 280 282 283 282 276
291 292 291 290 290 291 291 291 289 290 289 288 288 289 288 288 288 288 286 284 282 280 281 280 279 278 279 279 279 281 282 286 282 283 278 280 281 281 280 279 278 277 276
294 292 291 290 289 289 289 289 289 289 288 289 289 288 288 289 287 286 285 284 283 282 280 279 279 278 277 280 282 281 280 278 281 278 276 275 275 274 275 275 275 275 276
291 289 289 289 289 288 288 288 288 289 289 288 288 288 288 287 286 285 284 288 286 288 288 286 282 280 284 286 287 287 286 285 285 278 275 274 273 273 274 274 274 275 276

GFSMW_sfc_thetae_093.txt.gz
Theta_e
313 310 312 331 332 334 335 336 338 338 337 336 333 333 333 334 334 338 338 336 334 331 329 328 327 327 326 326 326 325 324 322 322 322 323 322 323 322 321 320 318 318 321
311 311 310 316 330 330 333 333 333 333 336 335 335 334 335 333 336 335 336 337 335 333 329 328 327 325 325 324 324 323 321 322 321 322 318 318 320 320 317 317 315 316 316
308 310 307 309 315 327 331 332 333 332 334 335 332 330 331 331 328 327 329 331 334 333 331 328 328 325 324 323 323 322 321 320 320 321 321 313 314 314 316 313 313 313 312
303 303 304 305 308 310 324 330 333 333 333 333 333 331 330 329 330 330 329 327 328 330 330 328 327 326 324 323 322 322 323 322 320 318 318 316 315 311 310 314 310 308 308
302 302 303 304 304 307 315 326 331 331 332 331 331 330 328 330 330 329 331 327 328 328 328 328 327 326 325 324 323 322 322 322 322 320 318 316 313 312 311 311 318 309 307
302 303 305 304 305 305 308 317 326 327 329 331 331 331 329 327 326 327 328 329 329 330 329 328 327 326 326 326 325 323 322 321 321 322 320 317 314 311 309 308 311 315 309
302 303 302 303 304 304 305 309 316 314 319 328 329 329 329 328 328 327 326 326 327 327 328 329 330 329 328 326 325 324 323 322 321 322 321 321 319 316 312 311 312 307 305
299 300 301 303 303 303 303 305 307 306 308 311 312 312 314 318 318 316 317 318 319 320 321 323 327 328 329 328 326 324 323 322 322 321 321 321 320 318 316 312 309 301 302
296 297 300 302 301 301 302 303 304 304 305 305 305 305 306 307 307 307 308 309 310 314 318 319 321 322 325 326 326 325 324 323 324 323 320 316 310 310 310 311 313 308 300
296 297 299 299 299 300 300 302 303 303 303 303 304 304 305 305 307 307 308 309 311 312 314 317 318 319 319 322 323 319 316 314 309 308 308 306 305 306 305 307 307 305 306
296 297 297 298 298 299 300 300 301 301 301 302 302 302 301 302 303 305 306 307 307 308 309 310 311 311 312 313 311 308 306 305 304 303 303 302 302 302 302 302 299 299 303
295 295 295 296 297 298 299 299 299 299 299 299 299 298 299 299 300 300 301 302 301 300 301 303 303 303 304 307 307 305 304 301 302 299 299 297 297 296 298 298 296 295 297
294 294 294 295 295 297 297 297 298 297 297 296 296 296 296 297 296 297 297 297 298 297 298 299 299 299 299 300 301 300 299 299 298 298 297 297 296 295 295 293 293 293 293
294 294 294 294 294 295 296 295 295 296 295 295 295 294 294 295 295 295 295 296 296 296 297 297 297 297 297 297 297 297 296 295 295 295 295 295 295 293 291 291 291 291 291
294 294 294 293 293 293 295 294 293 293 294 293 293 293 293 294 294 294 294 295 295 295 295 295 295 296 296 295 295 294 294 293 292 292 292 292 293 293 292 290 289 289 288
295 295 295 294 293 293 293 293 292 292 293 293 292 293 293 293 293 294 294 294 294 294 294 294 295 295 295 296 295 293 292 291 290 288 289 293 294 294 293 292 290 289 287
297 296 295 295 294 293 293 292 292 291 291 292 292 292 292 292 293 293 293 293 293 293 293 293 294 294 295 296 295 293 287 287 287 287 288 287 288 288 290 292 292 291 291
298 298 297 296 295 294 293 292 291 291 291 291 291 292 292 292 292 293 292 292 292 292 292 292 292 293 294 295 294 292 289 288 286 285 285 285 285 286 285 285 284 284 285
295 296 298 298 295 294 293 292 290 290 291 291 291 292 292 291 291 291 290 290 291 290 289 290 291 291 291 293 292 288 286 284 283 284 285 286 287 288 286 284 282 282 282
293 294 295 295 294 293 293 291 290 290 290 292 292 293 292 291 290 290 288 288 289 289 289 288 290 292 290 292 289 285 284 282 283 285 287 288 287 288 285 282 281 279 280
293 293 293 293 293 292 292 291 291 291 292 293 292 292 292 291 291 289 289 289 288 287 287 286 286 286 288 289 289 287 284 283 283 284 284 285 287 286 286 284 282 280 282
293 294 293 293 292 293 293 292 291 292 292 292 291 291 291 291 290 289 288 288 287 285 284 284 283 285 287 289 289 288 285 286 283 281 282 283 285 284 284 283 283 284 284
292 293 293 292 293 293 294 292 291 291 291 291 290 290 290 290 290 288 286 285 285 284 283 283 283 284 285 286 290 289 288 286 281 282 283 284 285 284 283 282 283 284 281
292 292 292 291 291 292 293 293 291 291 290 290 290 290 289 289 289 288 287 285 284 283 283 282 283 283 283 283 284 286 287 286 283 285 284 282 282 281 281 281 281 280 280
295 293 292 292 291 291 291 291 291 291 290 289 290 289 289 290 288 288 286 286 286 285 283 283 283 282 281 283 285 284 283 284 283 281 279 278 278 277 278 278 278 279 279
291 292 292 291 291 290 290 290 290 290 289 289 289 289 289 289 288 286 285 289 288 289 288 286 284 283 285 287 288 288 287 286 286 281 278 277 277 277 277 277 277 278 279

GFSMW_sfc_thetae_096.txt.gz
Theta_e
316 317 316 318 330 338 338 337 337 341 343 340 338 336 335 338 338 341 342 340 338 337 337 336 334 334 332 332 332 331 329 328 329 327 327 328 329 329 329 330 329 328 327
315 317 314 316 321 333 337 339 335 337 340 341 337 336 335 336 338 340 343 342 341 339 337 336 335 334 333 333 332 330 327 327 328 325 325 320 324 326 327 328 326 327 327
312 316 317 313 315 326 333 335 335 336 336 335 337 334 333 332 331 332 337 340 341 341 339 337 336 335 334 333 332 330 328 326 327 327 324 319 318 323 324 323 324 323 323
314 314 311 312 310 314 331 334 336 334 333 334 333 331 331 328 330 332 333 336 338 339 338 337 336 336 334 334 333 331 330 328 325 325 325 327 324 319 318 320 317 316 315
311 311 311 311 313 313 316 329 333 335 334 331 332 331 330 332 333 335 333 332 330 330 333 335 335 335 334 333 333 329 329 328 326 326 325 324 324 322 318 316 320 317 315
309 310 312 312 312 312 312 318 329 333 335 334 334 332 332 330 330 331 331 332 330 328 329 330 331 332 332 331 330 331 330 329 328 327 327 324 321 318 316 315 318 316 319
309 309 308 308 309 310 312 313 319 326 333 334 334 334 334 334 331 332 331 332 332 331 331 331 330 330 330 330 330 329 329 328 327 327 326 326 325 324 318 316 316 316 315
309 309 309 310 310 312 311 312 316 324 327 327 329 333 333 333 332 333 330 330 329 330 330 332 333 333 332 331 332 331 330 329 327 327 327 326 325 325 323 320 317 307 308
306 307 308 308 310 311 310 312 314 316 318 322 316 315 318 319 319 318 319 319 318 319 321 323 325 326 328 329 329 328 328 327 327 327 327 325 325 322 321 318 316 313 308
302 304 306 307 308 308 309 310 312 311 311 312 315 313 312 312 312 312 312 313 315 316 318 319 320 321 322 324 324 326 326 326 321 320 322 315 311 312 314 316 315 312 311
303 303 305 307 307 306 307 308 308 308 309 309 310 310 309 310 311 311 312 313 313 314 315 315 316 317 317 319 319 319 316 315 310 309 309 308 310 306 307 310 310 308 309
302 303 304 304 305 306 306 305 306 307 307 308 308 307 307 308 308 308 309 310 309 309 310 311 311 311 312 313 313 311 308 306 305 304 306 303 303 303 302 303 303 305 304
301 301 302 303 304 305 305 305 306 305 304 304 304 305 305 306 306 306 306 306 307 307 307 308 308 307 307 307 308 307 304 303 303 304 301 302 302 299 300 302 301 300 298
300 301 301 302 303 304 304 304 303 304 303 303 304 303 303 303 303 303 304 304 304 304 304 305 304 304 305 305 305 302 301 300 299 300 302 300 301 301 299 297 297 297 297
300 301 301 302 302 302 303 303 302 302 302 302 302 301 301 301 302 301 301 301 301 301 301 301 301 302 302 301 301 302 302 301 298 298 297 297 296 296 296 295 295 295 294
301 302 301 301 301 302 302 301 301 300 301 301 300 300 299 300 300 300 300 300 300 300 300 300 299 300 298 296 297 298 296 295 295 293 294 295 294 294 294 293 293 293 292
303 302 303 302 302 301 302 301 300 299 299 299 299 298 298 298 299 299 299 299 299 299 298 298 297 297 298 297 297 295 289 288 288 289 291 291 292 294 293 293 292 292 291
303 304 304 304 304 303 301 302 300 298 298 298 298 298 298 298 298 298 298 298 297 296 295 295 295 295 296 296 295 293 291 290 290 290 290 290 290 289 289 288 287 288 288
304 305 306 306 306 304 302 300 298 298 298 298 298 298 298 297 297 297 296 295 294 293 292 293 293 293 293 295 294 291 290 288 288 288 289 289 288 289 288 287 285 285 286
300 301 301 302 303 304 303 300 298 298 297 298 298 297 297 295 295 295 293 292 293 291 292 291 292 293 291 293 292 291 289 287 286 288 289 289 289 287 285 285 284 282 283
299 299 300 300 301 302 300 299 299 297 298 298 296 295 295 294 295 295 294 293 291 290 290 289 290 290 291 291 290 288 287 286 286 286 287 288 288 287 286 284 284 282 283
298 298 299 298 297 298 298 298 297 297 297 296 295 294 294 295 294 294 293 291 289 288 287 286 286 287 288 290 289 288 287 288 286 285 286 287 287 286 286 285 284 285 285
297 297 298 297 297 297 298 297 296 296 294 293 292 292 293 292 292 292 291 287 287 287 285 285 284 284 286 289 289 289 288 287 285 285 285 286 286 285 284 283 284 286 285
297 296 294 294 294 295 294 295 293 292 292 291 291 292 291 291 291 292 291 289 286 285 285 284 283 284 285 288 289 288 288 287 284 285 286 286 285 285 283 283 284 283 283
300 299 295 293 293 294 294 294 293 292 291 292 292 292 293 291 289 289 290 289 288 287 285 285 284 284 285 287 289 288 286 286 285 285 284 282 282 282 281 281 281 282 282
296 297 297 295 294 293 293 293 292 292 292 291 292 293 291 291 289 288 288 290 289 290 290 289 287 287 288 288 289 289 288 288 287 283 281 281 281 280 280 280 280 281 281

GFSMW_sfc_thetae_099.txt.gz
Theta_e
316 319 321 324 326 334 335 336 339 342 340 339 337 339 337 339 338 342 341 340 338 337 336 337 333 333 332 333 333 331 329 328 329 327 327 328 329 329 330 331 330 330 330
314 317 318 320 323 325 335 335 337 339 341 340 340 338 339 339 338 338 342 342 340 339 337 337 336 334 333 332 332 332 329 328 329 325 326 321 325 327 328 330 329 329 329
313 315 317 319 320 321 330 334 336 337 339 339 339 336 335 332 332 333 335 340 341 341 339 338 337 337 335 333 334 333 330 326 328 328 325 321 318 324 326 326 327 326 327
314 315 316 318 318 318 325 333 334 334 333 337 334 332 331 329 332 333 336 338 339 339 340 339 337 337 336 334 335 334 331 330 327 328 326 327 326 320 320 323 323 322 320
313 314 315 318 318 318 321 326 333 333 332 332 328 328 328 331 333 331 331 334 334 334 336 336 336 336 337 335 335 335 332 331 329 328 327 325 325 325 320 317 318 316 316
313 314 318 318 316 316 315 318 328 328 329 327 328 325 324 324 324 325 327 330 329 328 330 332 333 334 335 332 332 330 331 328 328 327 328 326 324 322 320 317 318 320 317
311 313 314 313 315 315 318 311 316 325 329 328 325 324 322 323 323 323 324 325 328 328 327 329 328 329 330 331 331 330 330 331 329 328 327 328 327 325 320 318 317 315 316
310 311 312 315 311 312 314 315 314 316 327 330 330 330 331 328 326 326 326 327 327 328 331 331 330 330 330 330 330 329 329 328 328 327 326 327 327 326 322 319 318 310 311
310 311 312 312 312 313 314 315 313 316 323 329 324 328 331 330 329 323 325 326 327 325 329 330 332 332 332 332 329 328 327 328 327 327 327 326 325 324 324 322 319 315 307
308 310 311 312 312 313 314 312 314 316 319 323 322 319 317 317 318 317 316 315 316 317 319 320 322 323 324 325 326 326 326 326 325 323 323 320 317 317 317 317 318 315 313
304 306 309 311 311 311 310 311 313 312 311 315 314 315 314 314 313 313 313 314 314 315 315 316 317 317 318 319 319 319 320 320 318 312 317 312 310 310 310 312 312 310 309
305 306 307 309 308 307 309 309 310 310 311 311 311 309 310 311 311 310 311 311 310 311 311 312 312 313 313 314 315 314 310 310 308 307 308 304 304 306 306 305 305 305 305
303 304 305 306 307 307 308 307 308 308 308 308 308 308 308 309 308 308 309 309 309 308 308 309 309 309 309 309 310 309 307 306 305 304 303 303 302 302 302 304 302 302 301
302 303 304 305 306 307 307 307 306 306 306 306 306 306 307 307 307 307 306 306 307 307 307 307 306 306 307 307 307 305 304 302 301 301 302 302 303 301 300 300 299 299 299
302 303 303 304 305 305 306 306 305 305 305 305 305 304 304 304 304 304 304 304 304 304 304 304 303 304 304 303 304 305 303 300 299 298 298 298 297 299 300 298 297 297 296
302 303 303 304 304 304 304 304 304 304 304 304 303 303 303 303 303 303 302 303 302 302 302 302 301 301 300 297 298 300 299 298 296 294 294 295 295 295 296 296 296 296 294
303 304 304 304 304 305 305 303 303 303 303 303 302 302 302 301 301 301 301 301 301 301 301 300 300 300 299 297 297 296 290 288 288 290 292 292 294 293 293 294 293 292 293
305 305 306 306 306 305 304 305 303 301 301 301 301 301 301 301 301 300 300 300 300 299 298 298 297 297 297 297 296 294 292 292 291 291 290 291 291 292 290 288 287 287 287
307 307 308 308 308 306 305 304 302 301 301 301 300 301 301 300 300 299 299 298 297 296 294 295 294 294 294 295 295 292 290 288 287 288 289 289 289 290 290 287 285 285 285
302 303 304 304 305 307 306 303 301 301 300 301 301 301 300 299 298 299 296 294 295 293 293 292 293 293 292 295 293 291 288 286 286 288 288 290 289 289 288 285 284 282 283
301 303 303 302 303 304 305 302 302 301 302 301 300 299 298 298 298 297 296 295 294 292 292 291 291 291 291 292 293 292 288 287 286 287 286 287 289 287 286 285 282 282 283
301 301 301 300 300 301 301 301 301 301 300 299 298 297 297 296 296 296 295 294 293 291 290 289 287 288 290 292 292 290 289 289 286 285 286 287 288 287 287 285 286 285 285
300 300 300 299 299 300 300 299 299 299 298 297 296 296 295 294 293 293 292 291 291 289 287 286 285 285 286 288 290 290 289 289 285 285 286 289 287 286 285 284 285 286 283
300 299 298 297 297 297 297 297 296 297 296 293 293 293 292 292 292 292 292 290 289 287 286 285 284 284 284 285 287 287 288 288 284 286 285 286 286 286 284 282 283 282 282
301 301 300 297 295 295 296 297 296 295 293 292 292 292 292 293 291 291 290 290 291 290 287 286 285 284 283 285 289 288 286 285 284 285 284 282 281 281 281 281 281 281 280
298 298 298 298 296 295 294 294 294 293 292 292 292 292 293 293 292 290 288 292 292 291 291 290 287 286 289 290 291 291 290 288 287 283 281 280 280 279 279 279 279 280 281

GFSMW_sfc_thetae_102.txt.gz
Theta_e
313 317 317 319 321 326 332 333 337 338 338 336 334 335 335 336 336 339 340 336 332 330 330 330 326 327 326 326 326 325 322 321 322 319 318 319 321 323 323 324 323 323 324
309 315 315 317 322 327 328 333 336 337 337 334 336 336 335 335 335 336 337 339 336 334 332 332 330 327 327 326 327 325 322 322 322 318 317 314 317 320 322 322 323 322 322
306 313 313 314 315 321 327 329 334 335 336 335 335 334 332 333 332 332 334 335 338 337 334 332 332 330 328 327 327 326 324 320 322 322 318 312 311 316 320 320 321 320 319
307 308 312 312 313 317 327 329 331 332 334 333 333 331 328 327 329 329 332 333 335 335 336 334 333 332 331 329 329 329 326 324 321 321 323 320 319 313 312 317 318 315 314
309 308 311 314 312 315 321 326 330 330 330 330 330 327 325 326 327 328 329 331 331 331 332 333 332 332 332 331 330 329 328 326 324 323 321 321 321 321 316 311 313 312 311
305 309 311 312 311 311 314 322 326 326 327 325 326 325 324 323 323 322 324 326 327 327 328 330 331 330 331 330 330 328 328 327 326 325 325 322 319 317 316 312 313 313 311
304 306 310 309 310 308 308 313 322 323 323 322 323 322 323 323 322 321 321 322 325 326 326 327 327 328 329 330 329 327 326 326 325 325 325 326 324 322 318 314 312 312 307
302 306 309 309 310 311 308 308 309 314 323 320 321 322 322 321 321 321 321 321 324 326 328 328 328 327 327 327 328 327 327 327 325 325 325 325 325 324 320 317 315 309 310
302 305 307 310 307 309 311 310 311 311 315 323 323 323 322 322 322 322 322 322 322 324 327 327 327 328 328 328 328 326 325 325 326 325 325 325 324 323 322 319 318 314 303
302 304 306 306 307 307 310 311 309 309 314 322 321 320 317 320 319 318 315 316 315 317 321 322 323 323 323 323 324 324 324 324 323 322 322 322 319 320 318 317 315 314 311
299 304 305 306 306 305 306 306 308 309 311 315 315 312 313 313 312 312 313 313 313 314 315 315 316 316 316 315 314 314 313 313 314 315 316 317 314 313 312 312 312 310 309
299 300 302 303 303 303 304 305 306 306 307 308 309 307 308 308 308 308 309 309 307 308 309 310 310 310 310 310 310 310 309 308 309 309 309 308 307 306 306 306 305 304 305
300 301 302 301 301 302 303 303 304 304 305 305 304 305 304 305 304 305 305 306 305 305 306 307 307 307 307 306 306 306 305 306 305 305 305 304 304 302 302 302 302 302 302
299 299 299 300 301 301 302 301 301 302 302 302 302 303 303 302 302 302 303 302 304 303 303 303 303 303 304 304 304 303 303 302 301 302 302 302 302 301 301 300 300 299 296
298 299 299 299 300 300 300 300 300 300 301 301 301 300 300 300 300 300 300 300 299 300 301 300 300 300 300 299 298 301 299 298 297 298 297 297 299 301 300 297 295 296 295
299 299 300 301 299 298 299 300 299 299 300 300 299 300 299 299 300 299 299 298 298 298 298 298 298 297 298 299 299 299 295 295 295 293 293 295 296 297 299 299 299 296 290
300 300 299 299 299 300 300 298 298 299 299 298 298 299 299 299 298 298 298 297 297 297 296 296 296 295 295 298 298 297 290 288 288 290 292 292 294 293 293 295 295 295 295
301 301 300 300 300 300 299 299 298 297 298 297 297 298 298 297 297 297 296 295 294 294 293 293 293 294 295 298 297 295 291 291 291 291 291 291 291 291 289 287 286 283 285
301 301 302 302 300 299 299 298 297 296 297 297 297 297 297 296 296 295 294 293 292 291 291 292 292 290 294 296 296 292 289 288 287 289 290 289 289 293 291 285 283 282 283
299 298 299 300 301 300 299 298 296 295 295 297 297 297 297 296 294 294 291 292 293 292 292 291 288 292 290 296 294 291 288 285 285 286 288 291 288 291 291 283 281 281 281
298 299 299 297 297 298 299 297 297 295 297 298 297 295 295 294 294 292 291 290 292 292 291 289 288 288 289 293 294 293 288 286 285 285 285 286 290 289 287 286 280 281 282
298 299 297 296 296 297 297 297 295 296 296 296 294 293 293 294 293 291 291 293 292 290 289 289 287 288 289 292 294 293 291 290 285 284 284 285 290 288 287 284 286 287 285
296 297 295 295 295 296 296 295 294 295 294 294 292 292 293 293 293 293 291 291 291 289 288 287 286 285 286 288 292 292 290 290 284 283 285 289 288 287 287 286 287 287 281
296 296 295 292 292 293 293 292 293 294 293 291 291 292 292 291 292 292 292 290 289 288 287 285 285 284 284 285 286 287 287 289 285 287 285 287 286 285 284 283 283 282 281
297 297 296 294 291 292 295 294 293 293 292 292 292 292 292 292 291 291 291 290 290 289 287 286 286 284 284 285 288 287 285 284 284 283 282 281 280 280 280 279 280 280 279
294 294 294 293 292 292 293 293 294 293 292 291 292 292 292 292 291 289 289 292 293 293 293 292 288 286 289 290 291 291 290 289 288 282 280 280 280 279 279 279 278 278 280

GFSMW_sfc_thetae_105.txt.gz
Theta_e
311 321 322 324 327 331 331 334 336 338 338 336 336 335 334 334 335 338 337 333 329 328 327 325 324 324 324 324 323 322 321 320 320 317 317 317 317 318 318 321 321 322 322
309 313 315 317 322 325 328 333 336 337 337 336 334 334 334 333 334 336 337 337 333 329 328 328 324 325 325 325 325 324 321 321 321 317 316 313 316 318 320 320 321 321 321
308 310 313 316 320 323 324 331 334 336 336 333 334 333 333 332 330 330 333 335 337 335 334 331 329 325 326 325 324 324 322 319 320 320 317 310 310 314 317 318 319 320 318
307 312 311 312 316 322 326 330 332 333 333 334 332 331 329 327 330 329 331 333 335 336 336 334 332 331 328 327 326 327 324 321 319 320 321 320 318 313 312 316 315 314 314
305 310 311 312 315 322 324 326 328 329 330 330 332 329 324 326 328 330 330 330 330 331 332 333 333 331 330 329 329 328 326 325 323 321 319 317 317 317 314 311 312 310 307
304 310 310 312 312 315 321 325 325 324 327 327 325 325 323 324 324 324 324 325 327 327 328 330 329 330 330 330 329 329 328 327 326 324 323 320 317 315 314 313 313 310 311
302 307 307 309 309 311 319 323 324 322 321 323 322 321 321 321 321 321 321 322 324 325 326 327 327 327 327 327 328 327 325 326 324 324 324 325 324 322 318 315 314 314 310
300 306 308 307 307 308 312 320 321 320 320 319 318 319 320 319 319 320 319 320 321 324 327 327 327 327 327 326 326 326 325 325 324 324 325 325 324 322 320 318 316 309 309
299 304 307 308 308 306 307 312 317 320 320 319 317 316 317 318 318 319 319 320 321 323 325 325 325 327 326 326 326 325 325 325 325 325 324 323 322 321 322 319 318 316 308
299 303 308 307 308 309 307 308 308 316 320 319 320 319 319 318 319 319 319 319 320 321 323 324 324 324 325 325 324 323 324 324 322 322 321 320 319 321 320 320 319 316 315
299 302 305 307 306 308 308 307 307 310 315 318 314 312 315 315 315 315 313 314 314 316 318 320 319 318 317 315 315 315 314 314 313 314 315 316 316 316 314 314 312 312 311
297 300 301 302 303 302 303 304 306 308 308 310 310 311 310 309 310 309 310 312 311 312 311 311 311 310 311 310 310 310 309 308 307 308 308 310 308 310 309 309 309 309 307
297 298 300 300 300 301 302 303 303 304 304 304 304 304 305 305 305 306 306 306 306 305 306 307 307 307 306 305 305 306 305 305 304 304 305 306 306 306 304 305 304 304 303
297 297 297 298 299 300 301 301 301 302 301 302 301 301 301 301 302 303 303 304 303 302 302 303 303 303 302 303 302 302 301 301 301 302 303 304 303 303 302 302 302 301 301
297 297 297 297 298 299 299 299 299 299 300 300 299 299 299 299 299 300 300 300 300 300 300 299 299 299 299 298 297 299 298 297 298 298 298 297 299 302 303 301 299 299 297
298 299 299 299 298 298 298 299 298 298 299 298 298 298 298 298 297 297 297 298 298 297 298 297 297 296 297 299 299 298 295 294 293 292 292 295 297 299 300 300 300 298 294
298 298 298 298 298 298 298 297 297 298 298 297 297 297 297 297 297 297 297 296 295 296 294 295 295 294 293 298 298 296 290 288 288 291 292 293 295 295 295 297 297 297 297
299 299 298 298 299 298 298 297 297 297 297 296 296 297 297 296 296 296 295 294 293 293 292 292 292 292 294 298 297 296 291 291 292 292 292 291 291 291 290 287 286 286 287
298 299 299 299 298 298 297 296 296 296 296 295 295 296 296 295 295 294 292 292 291 290 289 290 291 289 293 297 296 292 289 289 289 290 290 291 290 293 291 286 284 284 285
298 298 298 298 298 297 297 295 294 294 295 295 296 296 295 295 293 292 291 290 290 290 292 292 288 291 290 296 296 292 288 286 287 287 290 292 290 293 291 284 283 282 282
298 298 297 296 296 297 297 295 294 293 295 296 296 295 294 293 293 291 290 291 291 292 291 290 289 289 289 293 295 293 287 287 286 285 286 288 292 292 291 287 282 281 282
298 298 296 295 296 296 297 295 293 295 295 295 294 293 292 293 292 290 289 289 292 290 290 289 288 289 289 293 295 295 292 290 286 285 285 286 291 289 288 285 286 287 286
295 296 295 294 294 294 295 294 293 294 294 293 291 291 291 291 292 291 292 290 291 290 289 288 287 286 287 289 294 295 293 291 285 285 286 289 290 289 286 286 287 288 280
296 295 293 292 291 292 292 292 293 293 292 291 291 292 292 292 292 293 292 291 290 289 288 286 286 286 285 285 287 290 289 290 288 288 287 288 287 286 284 283 284 282 281
295 296 294 292 291 291 292 294 294 294 293 292 291 292 292 293 291 291 291 291 291 290 288 287 287 285 285 286 288 288 286 285 284 284 283 283 282 280 280 280 280 280 281
293 292 292 291 290 290 290 291 294 293 292 292 292 292 292 291 291 290 290 293 293 293 294 293 289 287 291 291 291 291 290 290 289 283 281 281 281 281 280 279 279 279 281

GFSMW_sfc_thetae_108.txt.gz
Theta_e
310 314 325 329 331 333 334 336 334 336 337 336 334 333 332 331 332 332 331 330 330 329 327 326 325 325 324 323 323 321 320 318 318 316 316 317 316 316 317 316 318 319 321
308 312 321 323 328 329 331 334 335 336 336 336 335 336 334 332 333 333 332 331 329 329 327 326 324 324 323 323 322 322 319 320 320 316 314 311 315 317 317 318 318 319 320
305 308 316 320 323 325 328 332 332 334 334 335 334 334 334 331 331 332 331 333 333 331 330 328 324 323 324 324 324 323 321 319 319 319 316 309 308 312 316 317 318 319 317
305 306 313 315 320 323 325 330 331 334 334 335 334 332 331 329 329 330 330 331 333 334 333 332 331 327 326 325 325 326 324 321 318 319 320 318 316 312 312 315 312 314 315
307 306 313 316 318 322 322 327 329 330 329 329 330 329 327 327 329 330 330 329 330 331 332 332 331 330 330 328 327 327 325 324 322 320 318 317 317 316 314 311 312 309 306
304 307 310 313 316 318 321 324 326 327 328 328 326 325 326 326 326 326 325 326 327 327 329 330 331 331 331 329 329 329 328 326 325 324 323 320 317 316 314 312 313 309 308
301 305 307 311 314 317 319 321 323 325 325 324 323 324 323 323 322 322 323 324 324 324 325 326 326 327 327 328 328 326 326 326 325 324 323 324 322 321 318 315 314 310 307
302 306 308 311 314 316 318 320 321 320 321 321 319 320 320 321 320 320 321 322 322 322 323 324 324 325 325 325 325 325 324 324 323 323 323 323 323 323 322 320 316 309 308
302 304 305 306 310 316 318 320 319 318 318 318 317 316 317 317 316 316 317 317 318 320 322 323 322 324 324 324 324 323 323 323 323 323 324 324 324 324 323 321 317 315 309
299 303 305 305 307 314 314 316 319 318 317 316 315 315 315 315 316 316 316 316 317 318 319 322 323 322 323 324 323 322 323 322 322 323 323 323 322 320 319 319 317 317 317
298 305 305 306 307 306 308 308 309 313 315 316 315 315 314 315 315 316 316 317 317 318 319 321 320 320 320 319 318 316 316 317 315 315 315 315 316 316 316 315 314 314 311
296 304 306 305 304 305 305 306 306 309 312 313 312 312 311 313 313 314 312 312 312 313 314 315 313 312 311 310 311 310 310 310 309 308 307 307 307 309 310 309 311 311 310
295 298 299 302 301 302 303 304 306 307 309 310 309 308 307 307 307 308 307 307 306 307 308 308 308 307 307 306 305 304 304 303 302 302 302 304 306 306 306 306 307 306 305
295 296 297 298 299 300 301 302 302 304 304 304 304 303 302 303 303 303 303 303 302 302 302 303 303 302 302 303 302 301 300 300 299 300 300 302 302 303 304 303 304 304 303
296 296 296 296 298 299 299 299 299 300 301 300 300 299 300 300 300 299 299 300 300 299 299 299 298 299 299 298 297 299 298 297 296 296 297 298 298 301 303 302 302 301 299
296 297 297 298 297 297 298 298 298 298 299 298 298 298 298 298 297 297 296 297 296 296 297 296 296 295 297 300 300 298 294 294 294 293 292 293 296 298 301 302 301 300 297
296 298 297 298 298 298 298 297 297 297 297 297 296 297 297 296 296 296 296 295 294 294 294 294 294 294 293 299 299 296 291 287 287 288 291 294 295 295 295 297 297 297 297
297 298 298 298 298 298 298 297 297 297 297 296 296 296 296 296 295 295 294 293 292 292 291 291 291 291 293 298 298 296 292 292 291 290 291 292 291 291 291 288 287 287 287
298 298 298 298 298 298 297 297 296 296 296 295 295 296 296 294 294 293 292 291 291 289 289 290 289 289 290 297 297 293 290 289 289 290 291 291 291 293 292 287 285 285 286
297 297 298 297 297 296 296 295 294 294 295 295 295 295 295 294 293 292 290 289 289 290 290 289 288 290 288 295 296 293 287 285 286 288 290 293 291 294 292 285 284 283 284
296 296 296 295 295 296 295 294 294 294 295 296 295 294 294 293 292 291 289 289 289 289 290 290 291 287 289 292 297 295 287 286 285 285 286 288 292 294 292 289 283 283 284
296 296 294 294 295 296 296 294 293 295 295 295 294 293 292 293 292 290 288 288 288 287 289 289 289 289 289 293 294 296 294 290 286 285 286 286 292 292 291 288 287 288 286
295 295 294 293 292 293 295 294 293 294 293 293 292 291 291 291 290 289 288 288 289 288 289 288 288 287 288 289 293 295 297 295 288 286 287 289 291 290 288 287 288 288 280
295 294 292 291 291 292 292 292 293 293 292 291 290 290 290 290 290 292 292 291 290 290 289 287 287 287 287 287 287 290 292 294 290 288 287 289 290 289 286 285 284 281 280
294 294 293 291 290 290 292 292 292 293 292 293 292 293 292 293 292 292 291 291 292 291 288 288 287 286 286 287 289 289 288 287 286 285 283 284 283 282 281 280 280 280 281
292 291 291 290 290 290 290 290 292 292 293 292 292 292 292 292 292 291 290 294 294 294 294 294 290 288 291 293 292 292 292 292 291 284 280 282 282 281 280 279 279 279 282

GFSMW_sfc_thetae_111.txt.gz
Theta_e
307 309 312 324 331 334 336 338 338 337 337 335 333 332 330 329 328 328 330 332 333 330 329 328 327 327 325 324 322 320 319 317 317 316 316 316 317 315 315 314 315 317 320
305 307 310 322 329 331 333 334 335 336 336 336 335 334 332 330 330 330 328 331 331 330 329 327 327 327 325 323 322 321 318 319 318 315 313 311 312 316 317 316 316 316 318
304 305 307 312 324 330 332 333 333 335 336 336 335 331 330 331 330 329 330 330 329 329 329 327 327 326 326 324 322 321 320 318 318 318 315 308 307 311 316 316 316 317 317
305 306 306 310 319 328 329 332 333 333 334 335 333 330 326 324 329 331 330 331 331 330 330 328 326 324 325 324 324 324 322 321 319 319 320 317 316 311 311 314 312 312 315
307 307 307 311 317 323 328 329 332 332 333 334 331 329 326 327 330 330 331 330 331 331 330 330 330 328 326 326 326 326 325 324 322 320 318 317 317 317 314 310 313 310 308
307 307 309 313 316 320 324 326 329 328 331 332 331 329 328 329 329 329 330 329 329 329 329 329 330 330 329 327 327 327 326 326 325 324 322 319 316 315 314 312 313 311 312
306 306 308 311 314 317 319 324 326 325 328 329 329 329 329 329 329 329 328 327 326 325 327 328 329 329 329 329 329 328 327 327 326 326 324 324 322 321 318 315 314 313 312
305 303 306 312 315 317 318 322 324 323 324 324 323 325 325 325 325 324 324 322 322 323 325 325 325 326 325 324 325 325 324 323 322 322 323 323 323 322 321 318 315 312 310
301 304 306 311 313 315 317 319 319 321 321 320 319 319 319 319 319 318 318 319 319 320 321 322 321 323 322 322 321 321 321 322 321 321 321 321 321 322 322 321 320 317 309
300 303 304 307 311 314 314 315 316 318 317 317 317 316 316 316 316 316 316 316 317 317 318 319 320 320 320 321 320 319 320 320 320 320 320 320 321 320 320 320 320 318 316
298 303 304 305 308 310 312 313 314 314 314 313 313 313 313 314 314 314 314 314 316 318 317 320 320 318 318 320 318 318 317 317 315 314 313 313 313 312 313 314 314 314 314
297 303 303 303 304 306 308 309 309 312 312 312 312 312 313 313 312 312 311 312 313 314 314 316 317 315 313 310 310 309 309 310 308 308 309 306 306 307 308 308 309 310 311
295 300 302 304 303 304 305 305 306 308 310 311 311 309 309 310 309 308 309 308 309 307 307 308 307 306 306 306 306 306 305 305 302 300 300 300 301 303 304 305 306 307 306
296 296 300 300 301 302 302 303 304 305 306 307 307 305 304 304 305 306 305 303 303 303 302 303 302 302 301 301 301 300 299 300 298 298 298 299 298 298 300 302 303 304 304
295 296 296 297 299 300 299 300 301 301 302 302 302 301 300 300 300 300 299 299 299 299 299 298 298 297 297 297 296 296 296 295 295 295 295 295 297 300 301 301 301 301 300
295 296 297 298 297 298 298 298 298 299 300 299 299 299 298 298 297 297 297 297 296 296 296 295 295 294 297 301 301 295 292 291 291 291 291 292 295 295 300 301 302 301 298
295 296 297 297 298 298 298 297 297 297 297 297 297 297 297 296 296 296 295 294 293 293 293 293 293 292 293 300 299 296 291 289 289 290 289 291 293 293 293 294 294 294 295
296 296 296 296 297 297 297 296 296 296 296 295 295 296 296 295 294 294 294 292 291 291 291 291 291 291 293 298 298 297 292 292 292 292 291 291 290 290 291 289 288 288 289
295 296 297 297 296 297 296 295 295 295 295 294 295 295 295 294 293 292 291 290 291 290 289 289 289 289 289 297 297 294 290 287 288 289 290 291 291 293 293 288 286 286 286
295 297 296 296 296 295 295 295 294 294 294 295 295 295 294 293 292 292 290 290 289 289 289 289 287 290 288 294 296 294 288 285 285 286 287 293 292 293 294 286 284 284 284
295 295 295 294 294 295 295 295 294 294 295 296 295 294 293 293 292 291 290 289 289 289 287 289 291 290 287 288 295 297 290 288 286 284 284 287 292 293 294 290 284 284 285
295 295 294 293 294 295 295 294 293 294 294 294 293 293 292 293 292 290 289 288 288 287 291 290 289 288 287 292 294 296 296 292 287 286 286 287 291 293 293 290 289 289 287
293 294 293 292 292 293 295 294 293 294 293 293 292 291 291 291 290 289 288 287 287 287 286 288 288 285 287 289 293 295 296 297 290 287 288 290 290 292 290 290 288 288 282
294 294 293 292 291 292 292 292 292 292 292 291 290 290 290 289 289 290 290 288 287 287 288 287 287 288 287 288 288 289 291 294 293 290 288 288 289 290 287 286 284 282 281
293 293 292 291 290 290 291 291 292 292 291 290 290 290 290 291 290 291 292 292 291 290 287 286 285 284 284 286 290 289 288 288 289 287 284 284 283 282 282 281 280 280 280
293 291 290 289 289 289 289 290 291 292 291 291 292 292 292 292 291 291 291 294 294 294 294 294 291 287 291 293 293 293 293 294 293 287 282 282 281 281 281 280 280 279 281

GFSMW_sfc_thetae_114.txt.gz
Theta_e
307 311 311 316 326 331 329 337 337 337 336 333 331 329 328 327 328 330 333 331 331 328 326 325 323 324 322 321 321 320 319 317 317 316 316 316 317 315 314 313 315 316 319
306 308 308 314 327 326 331 332 335 337 336 335 334 332 331 329 328 327 330 333 331 329 328 327 326 326 325 322 321 320 317 318 317 315 312 311 313 314 316 314 314 314 316
304 307 306 308 316 326 329 332 330 337 337 336 335 331 330 330 328 326 325 328 331 330 330 328 328 327 326 324 322 322 320 318 317 317 316 309 308 311 315 314 315 315 315
306 307 306 306 311 322 329 332 333 335 336 336 333 330 329 327 329 328 328 328 328 328 328 327 326 326 326 324 324 323 321 321 319 318 319 317 316 313 311 315 313 314 316
306 306 305 307 313 322 326 328 329 332 334 333 333 329 326 327 329 328 328 328 329 329 329 328 326 325 326 325 325 324 323 323 320 320 318 318 317 317 314 312 314 312 310
304 306 305 307 313 321 322 322 326 329 332 331 328 324 321 322 326 327 328 328 329 329 328 328 328 328 327 326 326 325 325 324 322 321 321 319 317 316 315 313 313 313 313
303 306 303 305 313 319 320 319 323 321 328 329 326 325 323 323 326 327 327 327 327 327 328 329 329 329 330 328 327 325 325 325 325 325 324 325 323 321 318 316 314 314 315
303 306 305 304 313 317 321 322 322 321 324 326 328 326 326 326 327 326 327 329 328 329 330 329 330 329 328 328 327 326 325 324 322 322 322 322 322 322 321 318 316 311 311
305 303 305 305 314 316 320 323 323 323 324 325 325 326 328 328 326 327 327 326 323 323 325 325 325 325 323 323 323 320 319 319 319 320 320 320 320 321 321 320 319 315 309
302 303 305 307 313 317 318 319 320 320 321 320 321 321 321 321 320 320 319 318 318 319 320 320 320 320 319 320 319 317 317 317 318 319 319 319 318 318 318 318 318 318 315
300 302 304 307 312 313 315 315 316 315 315 315 316 317 317 316 316 316 315 316 316 316 315 316 317 317 316 317 318 317 318 317 315 313 311 310 309 309 309 309 310 312 313
298 302 303 303 307 309 311 312 312 312 311 311 313 313 314 314 314 313 313 314 313 313 314 315 316 316 313 314 315 311 309 309 309 307 306 304 304 304 304 304 305 307 309
295 300 302 302 305 307 307 307 309 310 310 311 311 310 311 311 310 310 310 310 310 309 310 309 307 307 308 308 307 307 306 304 302 300 300 299 299 298 300 302 301 303 305
296 297 300 300 301 302 303 304 304 307 308 309 308 307 306 306 306 305 305 305 305 304 303 303 302 302 302 302 301 300 298 298 297 297 297 296 296 295 295 297 297 300 302
296 296 297 298 298 300 299 300 301 303 304 305 304 303 302 301 301 301 300 300 300 300 299 298 297 297 297 297 296 296 295 294 294 293 293 293 295 298 299 298 295 297 299
295 296 296 298 299 298 297 298 299 299 301 301 299 299 300 299 298 298 297 297 296 296 296 295 294 294 297 301 299 295 293 293 293 292 290 291 294 295 298 299 300 299 297
295 296 296 297 297 298 298 297 296 297 297 297 297 297 297 296 296 296 295 294 293 293 292 292 293 292 294 300 298 295 291 289 290 291 288 290 292 291 290 293 293 292 294
294 295 295 296 296 296 296 296 296 296 295 295 295 295 295 296 295 294 293 292 291 291 291 290 291 291 294 299 298 295 291 292 292 291 290 289 289 290 290 287 286 286 289
294 294 295 296 295 296 295 295 294 294 295 294 294 294 294 293 292 292 291 290 290 289 289 289 289 289 289 298 297 292 287 287 286 288 288 288 288 293 294 287 284 284 285
294 294 294 295 294 294 295 295 294 294 293 294 294 294 293 293 291 291 289 289 289 289 289 288 287 292 287 294 297 294 287 285 285 287 288 293 291 294 295 287 285 283 284
294 294 293 292 293 294 294 293 293 293 294 294 294 293 293 292 292 290 289 289 289 288 288 288 289 291 288 288 295 297 289 289 288 287 287 287 293 294 295 292 285 284 284
293 294 292 291 292 294 294 293 292 293 293 294 293 292 291 292 291 289 288 288 288 288 289 290 290 290 287 292 294 296 297 294 288 287 287 287 291 292 294 292 291 290 288
292 293 292 291 291 292 293 293 291 292 292 292 291 291 290 290 290 289 288 287 288 287 286 288 288 288 287 287 294 295 296 297 292 288 289 291 291 291 292 292 289 288 282
293 293 292 291 290 291 291 291 291 291 291 290 290 290 289 289 289 290 289 288 287 287 287 286 286 287 288 288 289 288 289 294 293 293 289 289 290 290 288 287 285 282 281
291 291 291 291 290 291 291 291 292 292 290 290 289 289 290 291 290 290 290 289 290 291 289 287 286 286 286 285 289 288 286 287 289 288 285 284 284 284 284 282 281 280 280
293 292 291 289 288 288 288 289 290 291 290 290 290 290 290 290 290 290 291 294 295 295 295 294 290 288 291 293 294 294 294 294 294 288 284 283 283 283 283 282 280 279 280

GFSMW_sfc_thetae_117.txt.gz
Theta_e
305 308 310 314 315 321 317 333 336 336 334 332 330 330 328 329 331 331 331 332 332 331 330 329 328 328 327 326 327 326 325 324 324 324 325 325 326 325 324 323 323 324 327
304 307 310 312 314 319 324 332 335 335 334 333 332 333 331 331 331 333 331 332 332 331 329 328 327 327 326 324 325 326 324 325 324 324 322 321 322 321 323 323 321 322 325
303 306 308 310 311 322 326 330 333 334 335 335 334 334 332 330 329 330 332 332 332 331 331 330 328 326 326 324 324 326 326 326 324 325 325 317 314 318 322 322 322 321 322
306 307 307 308 311 324 325 327 328 330 335 335 332 330 329 326 330 329 331 333 334 332 332 332 331 329 329 329 329 328 327 327 324 322 323 322 321 319 317 320 319 320 319
306 306 307 309 317 326 327 325 326 330 333 334 333 331 329 330 333 330 329 330 332 332 332 331 331 329 330 330 330 327 326 327 326 325 324 323 323 322 317 318 316 318 314
305 307 308 309 321 325 328 327 324 324 329 327 329 329 323 328 328 329 328 328 330 330 330 329 329 328 329 329 327 328 328 327 326 327 326 323 320 319 317 315 316 316 316
305 306 306 313 318 319 322 320 320 323 327 328 326 323 321 322 325 328 328 327 327 327 328 329 330 329 329 328 327 327 327 328 328 327 326 324 323 323 318 317 315 314 315
305 307 305 313 318 318 319 319 319 322 325 325 324 323 323 323 323 326 326 326 326 327 329 329 329 329 329 329 329 328 328 326 324 322 322 322 322 322 321 318 315 311 312
305 306 305 311 318 320 320 319 319 320 322 324 324 324 324 324 325 325 326 326 327 326 329 330 329 330 329 328 327 325 326 325 324 324 324 324 324 321 322 323 319 316 310
305 304 307 311 317 320 322 323 322 321 322 323 324 325 325 326 325 326 324 322 324 325 326 327 327 324 324 324 324 323 323 323 323 322 321 319 316 315 315 315 316 316 315
301 304 306 313 316 318 320 320 321 320 321 321 321 320 321 321 322 323 322 321 321 323 323 323 323 322 322 322 321 320 321 319 317 315 314 311 311 311 311 311 311 312 312
298 304 306 310 314 314 315 316 316 317 318 318 318 317 318 318 318 317 317 318 317 318 318 319 319 320 320 321 320 315 315 315 311 308 307 305 307 307 307 307 307 308 311
297 302 305 307 310 312 312 312 314 314 315 315 315 315 315 315 315 314 314 315 314 314 316 317 316 314 313 314 314 313 309 308 306 304 305 304 304 303 304 304 303 304 305
297 299 301 303 306 307 308 310 311 313 313 312 312 312 312 312 311 311 310 311 311 310 309 309 308 308 308 307 306 305 304 303 302 302 301 301 301 300 301 302 302 303 303
297 297 299 301 302 303 304 305 307 310 310 309 309 307 308 308 306 305 305 305 306 305 304 302 302 302 302 301 302 301 301 300 299 298 298 298 298 299 301 301 301 299 298
296 297 298 300 300 301 302 302 304 305 307 307 305 304 304 303 303 302 301 302 301 301 300 299 299 299 300 300 300 298 297 296 296 295 295 296 296 297 299 298 298 298 298
295 296 297 298 299 300 300 300 300 302 302 301 300 301 301 300 300 300 299 298 298 298 297 297 298 298 299 299 298 297 294 291 292 294 294 295 294 294 294 294 293 293 294
295 296 297 297 298 298 298 299 299 299 299 298 298 299 299 298 298 297 297 296 296 296 296 295 296 297 298 299 297 296 295 295 295 295 294 294 294 294 294 292 291 290 291
295 295 296 297 297 297 297 297 297 297 297 297 297 297 297 296 296 295 295 294 294 294 293 293 293 295 297 299 297 294 292 291 292 292 293 293 293 294 295 292 290 289 290
295 295 295 296 296 296 297 297 296 296 296 296 296 296 296 295 295 294 293 293 293 292 292 291 292 293 293 298 298 295 292 291 291 291 292 293 294 294 295 292 289 288 287
295 295 294 294 294 295 296 295 295 295 296 296 296 295 295 295 294 293 293 293 292 292 292 291 292 293 292 293 297 297 293 292 291 290 290 290 293 294 295 295 288 288 287
294 294 293 292 293 295 296 294 294 294 295 295 295 294 294 294 293 293 292 292 292 291 291 292 292 293 292 293 295 297 296 294 291 290 290 291 292 293 294 294 292 291 289
293 293 292 292 292 293 294 294 292 294 294 294 293 293 293 293 293 292 292 291 291 291 291 290 290 291 290 291 295 296 297 297 293 292 291 291 292 292 293 294 293 290 287
294 294 293 292 291 291 292 292 292 293 293 292 292 292 292 292 292 292 292 292 291 291 290 288 289 290 290 291 292 292 294 296 296 295 292 292 291 291 290 290 287 285 285
292 292 291 292 291 291 292 292 292 293 292 292 291 292 292 292 291 292 292 292 292 292 291 291 290 289 289 290 292 291 289 290 291 291 287 286 285 286 286 286 284 284 284
293 293 292 291 290 290 289 290 291 292 292 291 292 292 292 292 291 291 292 295 295 295 295 294 292 290 292 293 294 294 294 294 294 289 286 286 285 285 285 284 284 283 284